<?xml version="1.0" encoding="UTF-8" standalone="no" ?><gpx xmlns="http://www.topografix.com/GPX/1/1" xmlns:gpxx="http://www.garmin.com/xmlschemas/GpxExtensions/v3" xmlns:wptx1="http://www.garmin.com/xmlschemas/WaypointExtension/v1" xmlns:gpxtpx="http://www.garmin.com/xmlschemas/TrackPointExtension/v1" creator="GuideVTT.com" version="1.1" xmlns:xsi="http://www.w3.org/2001/XMLSchema-instance" xsi:schemaLocation="http://www.topografix.com/GPX/1/1 http://www.topografix.com/GPX/1/1/gpx.xsd http://www.garmin.com/xmlschemas/GpxExtensions/v3 http://www8.garmin.com/xmlschemas/GpxExtensionsv3.xsd http://www.garmin.com/xmlschemas/WaypointExtension/v1 http://www8.garmin.com/xmlschemas/WaypointExtensionv1.xsd http://www.garmin.com/xmlschemas/TrackPointExtension/v1 http://www.garmin.com/xmlschemas/TrackPointExtensionv1.xsd">
<metadata><link href="http://www.garmin.com"><text>Garmin International</text></link><time>2013-06-22T15:13:50Z</time></metadata>
<trk><name>rp2017_15.gpx</name><extensions><gpxx:TrackExtension><gpxx:DisplayColor>Cyan</gpxx:DisplayColor></gpxx:TrackExtension></extensions><trkseg>
<trkpt lat="46.28057" lon="7.31935"><ele>1367</ele><time>2017-07-23T10:08:40Z</time></trkpt>
<trkpt lat="46.28057" lon="7.31935"><ele>1367.6</ele><time>2017-07-23T10:08:41Z</time></trkpt>
<trkpt lat="46.28057" lon="7.31935"><ele>1368.2</ele><time>2017-07-23T10:08:42Z</time></trkpt>
<trkpt lat="46.28058" lon="7.31936"><ele>1368.8</ele><time>2017-07-23T10:08:49Z</time></trkpt>
<trkpt lat="46.28058" lon="7.31936"><ele>1368.8</ele><time>2017-07-23T10:08:50Z</time></trkpt>
<trkpt lat="46.28057" lon="7.31936"><ele>1369</ele><time>2017-07-23T10:09:08Z</time></trkpt>
<trkpt lat="46.28057" lon="7.31936"><ele>1369</ele><time>2017-07-23T10:09:09Z</time></trkpt>
<trkpt lat="46.28056" lon="7.31937"><ele>1368.8</ele><time>2017-07-23T10:09:15Z</time></trkpt>
<trkpt lat="46.28056" lon="7.31937"><ele>1369.8</ele><time>2017-07-23T10:09:39Z</time></trkpt>
<trkpt lat="46.28057" lon="7.31935"><ele>1369.6</ele><time>2017-07-23T10:09:57Z</time></trkpt>
<trkpt lat="46.28057" lon="7.31935"><ele>1369.6</ele><time>2017-07-23T10:10:00Z</time></trkpt>
<trkpt lat="46.28057" lon="7.31937"><ele>1371</ele><time>2017-07-23T10:10:05Z</time></trkpt>
<trkpt lat="46.28058" lon="7.31938"><ele>1371.8</ele><time>2017-07-23T10:10:18Z</time></trkpt>
<trkpt lat="46.28059" lon="7.31938"><ele>1372.2</ele><time>2017-07-23T10:10:22Z</time></trkpt>
<trkpt lat="46.28059" lon="7.31938"><ele>1372.8</ele><time>2017-07-23T10:10:30Z</time></trkpt>
<trkpt lat="46.28058" lon="7.3194"><ele>1373.4</ele><time>2017-07-23T10:10:39Z</time></trkpt>
<trkpt lat="46.28058" lon="7.3194"><ele>1373.6</ele><time>2017-07-23T10:10:42Z</time></trkpt>
<trkpt lat="46.28058" lon="7.31939"><ele>1374.8</ele><time>2017-07-23T10:11:07Z</time></trkpt>
<trkpt lat="46.28058" lon="7.3194"><ele>1374.8</ele><time>2017-07-23T10:11:12Z</time></trkpt>
<trkpt lat="46.28058" lon="7.3194"><ele>1375</ele><time>2017-07-23T10:11:14Z</time></trkpt>
<trkpt lat="46.28058" lon="7.31941"><ele>1375.8</ele><time>2017-07-23T10:11:36Z</time></trkpt>
<trkpt lat="46.28057" lon="7.31945"><ele>1375.8</ele><time>2017-07-23T10:11:41Z</time></trkpt>
<trkpt lat="46.28065" lon="7.31947"><ele>1375.8</ele><time>2017-07-23T10:11:48Z</time></trkpt>
<trkpt lat="46.28071" lon="7.31951"><ele>1376</ele><time>2017-07-23T10:11:54Z</time></trkpt>
<trkpt lat="46.28072" lon="7.31952"><ele>1376</ele><time>2017-07-23T10:11:55Z</time></trkpt>
<trkpt lat="46.28076" lon="7.31954"><ele>1376.6</ele><time>2017-07-23T10:11:59Z</time></trkpt>
<trkpt lat="46.2809" lon="7.31954"><ele>1378</ele><time>2017-07-23T10:12:09Z</time></trkpt>
<trkpt lat="46.28091" lon="7.31954"><ele>1378.2</ele><time>2017-07-23T10:12:10Z</time></trkpt>
<trkpt lat="46.28092" lon="7.31953"><ele>1378.4</ele><time>2017-07-23T10:12:11Z</time></trkpt>
<trkpt lat="46.28094" lon="7.31952"><ele>1378.6</ele><time>2017-07-23T10:12:13Z</time></trkpt>
<trkpt lat="46.28097" lon="7.31949"><ele>1379</ele><time>2017-07-23T10:12:15Z</time></trkpt>
<trkpt lat="46.28105" lon="7.31942"><ele>1379.6</ele><time>2017-07-23T10:12:21Z</time></trkpt>
<trkpt lat="46.28112" lon="7.3193"><ele>1381</ele><time>2017-07-23T10:12:28Z</time></trkpt>
<trkpt lat="46.28118" lon="7.31903"><ele>1383</ele><time>2017-07-23T10:12:40Z</time></trkpt>
<trkpt lat="46.28119" lon="7.31899"><ele>1383.2</ele><time>2017-07-23T10:12:42Z</time></trkpt>
<trkpt lat="46.28126" lon="7.31874"><ele>1385.6</ele><time>2017-07-23T10:12:55Z</time></trkpt>
<trkpt lat="46.28134" lon="7.31858"><ele>1387</ele><time>2017-07-23T10:13:05Z</time></trkpt>
<trkpt lat="46.28137" lon="7.31853"><ele>1387.4</ele><time>2017-07-23T10:13:08Z</time></trkpt>
<trkpt lat="46.28139" lon="7.3185"><ele>1387.6</ele><time>2017-07-23T10:13:10Z</time></trkpt>
<trkpt lat="46.28151" lon="7.31828"><ele>1388.8</ele><time>2017-07-23T10:13:24Z</time></trkpt>
<trkpt lat="46.28154" lon="7.31823"><ele>1389.4</ele><time>2017-07-23T10:13:27Z</time></trkpt>
<trkpt lat="46.28161" lon="7.31813"><ele>1390.8</ele><time>2017-07-23T10:13:34Z</time></trkpt>
<trkpt lat="46.2817" lon="7.3181"><ele>1392.2</ele><time>2017-07-23T10:13:40Z</time></trkpt>
<trkpt lat="46.28178" lon="7.31811"><ele>1394.2</ele><time>2017-07-23T10:13:46Z</time></trkpt>
<trkpt lat="46.28192" lon="7.31826"><ele>1396.4</ele><time>2017-07-23T10:13:57Z</time></trkpt>
<trkpt lat="46.28198" lon="7.31852"><ele>1397.4</ele><time>2017-07-23T10:14:09Z</time></trkpt>
<trkpt lat="46.28201" lon="7.3186"><ele>1398.2</ele><time>2017-07-23T10:14:13Z</time></trkpt>
<trkpt lat="46.28204" lon="7.31868"><ele>1398.8</ele><time>2017-07-23T10:14:17Z</time></trkpt>
<trkpt lat="46.28205" lon="7.31871"><ele>1399</ele><time>2017-07-23T10:14:19Z</time></trkpt>
<trkpt lat="46.2821" lon="7.31874"><ele>1399.6</ele><time>2017-07-23T10:14:22Z</time></trkpt>
<trkpt lat="46.28218" lon="7.3188"><ele>1400.8</ele><time>2017-07-23T10:14:28Z</time></trkpt>
<trkpt lat="46.28227" lon="7.31884"><ele>1401.8</ele><time>2017-07-23T10:14:34Z</time></trkpt>
<trkpt lat="46.28244" lon="7.31895"><ele>1404</ele><time>2017-07-23T10:14:47Z</time></trkpt>
<trkpt lat="46.28263" lon="7.31894"><ele>1407.8</ele><time>2017-07-23T10:14:59Z</time></trkpt>
<trkpt lat="46.28271" lon="7.31894"><ele>1410.6</ele><time>2017-07-23T10:15:04Z</time></trkpt>
<trkpt lat="46.28279" lon="7.3189"><ele>1414.4</ele><time>2017-07-23T10:15:09Z</time></trkpt>
<trkpt lat="46.28286" lon="7.31889"><ele>1418</ele><time>2017-07-23T10:15:14Z</time></trkpt>
<trkpt lat="46.28294" lon="7.31887"><ele>1420.8</ele><time>2017-07-23T10:15:18Z</time></trkpt>
<trkpt lat="46.28311" lon="7.31881"><ele>1430</ele><time>2017-07-23T10:15:30Z</time></trkpt>
<trkpt lat="46.2833" lon="7.31874"><ele>1434.4</ele><time>2017-07-23T10:15:40Z</time></trkpt>
<trkpt lat="46.28341" lon="7.3186"><ele>1436.8</ele><time>2017-07-23T10:15:51Z</time></trkpt>
<trkpt lat="46.28342" lon="7.31858"><ele>1437.2</ele><time>2017-07-23T10:15:53Z</time></trkpt>
<trkpt lat="46.28342" lon="7.31856"><ele>1437.4</ele><time>2017-07-23T10:15:55Z</time></trkpt>
<trkpt lat="46.28341" lon="7.31851"><ele>1431.8</ele><time>2017-07-23T10:16:02Z</time></trkpt>
<trkpt lat="46.28334" lon="7.31834"><ele>1427</ele><time>2017-07-23T10:16:14Z</time></trkpt>
<trkpt lat="46.28328" lon="7.31817"><ele>1426.8</ele><time>2017-07-23T10:16:23Z</time></trkpt>
<trkpt lat="46.2832" lon="7.31796"><ele>1427.8</ele><time>2017-07-23T10:16:34Z</time></trkpt>
<trkpt lat="46.28315" lon="7.31786"><ele>1428</ele><time>2017-07-23T10:16:41Z</time></trkpt>
<trkpt lat="46.2831" lon="7.31783"><ele>1427.8</ele><time>2017-07-23T10:16:45Z</time></trkpt>
<trkpt lat="46.28309" lon="7.31781"><ele>1428</ele><time>2017-07-23T10:16:46Z</time></trkpt>
<trkpt lat="46.28299" lon="7.3176"><ele>1427.2</ele><time>2017-07-23T10:16:58Z</time></trkpt>
<trkpt lat="46.28299" lon="7.31747"><ele>1427.8</ele><time>2017-07-23T10:17:04Z</time></trkpt>
<trkpt lat="46.28299" lon="7.31721"><ele>1429</ele><time>2017-07-23T10:17:16Z</time></trkpt>
<trkpt lat="46.283" lon="7.31707"><ele>1429.8</ele><time>2017-07-23T10:17:22Z</time></trkpt>
<trkpt lat="46.28316" lon="7.3168"><ele>1433.4</ele><time>2017-07-23T10:17:40Z</time></trkpt>
<trkpt lat="46.28327" lon="7.31684"><ele>1434.2</ele><time>2017-07-23T10:17:47Z</time></trkpt>
<trkpt lat="46.28341" lon="7.31696"><ele>1435.6</ele><time>2017-07-23T10:17:57Z</time></trkpt>
<trkpt lat="46.28345" lon="7.31698"><ele>1436.2</ele><time>2017-07-23T10:18:00Z</time></trkpt>
<trkpt lat="46.2835" lon="7.317"><ele>1436.6</ele><time>2017-07-23T10:18:03Z</time></trkpt>
<trkpt lat="46.28354" lon="7.31701"><ele>1437.4</ele><time>2017-07-23T10:18:06Z</time></trkpt>
<trkpt lat="46.28357" lon="7.31702"><ele>1437.8</ele><time>2017-07-23T10:18:08Z</time></trkpt>
<trkpt lat="46.28366" lon="7.31703"><ele>1439</ele><time>2017-07-23T10:18:14Z</time></trkpt>
<trkpt lat="46.28375" lon="7.31708"><ele>1440.8</ele><time>2017-07-23T10:18:21Z</time></trkpt>
<trkpt lat="46.28383" lon="7.31718"><ele>1442</ele><time>2017-07-23T10:18:27Z</time></trkpt>
<trkpt lat="46.28385" lon="7.31722"><ele>1442</ele><time>2017-07-23T10:18:29Z</time></trkpt>
<trkpt lat="46.28401" lon="7.31751"><ele>1444.4</ele><time>2017-07-23T10:18:44Z</time></trkpt>
<trkpt lat="46.28417" lon="7.31766"><ele>1447</ele><time>2017-07-23T10:18:55Z</time></trkpt>
<trkpt lat="46.2843" lon="7.31783"><ele>1449.2</ele><time>2017-07-23T10:19:05Z</time></trkpt>
<trkpt lat="46.28431" lon="7.31785"><ele>1449.2</ele><time>2017-07-23T10:19:06Z</time></trkpt>
<trkpt lat="46.28433" lon="7.31789"><ele>1449.8</ele><time>2017-07-23T10:19:08Z</time></trkpt>
<trkpt lat="46.28436" lon="7.31795"><ele>1450.2</ele><time>2017-07-23T10:19:11Z</time></trkpt>
<trkpt lat="46.28437" lon="7.31797"><ele>1450.2</ele><time>2017-07-23T10:19:12Z</time></trkpt>
<trkpt lat="46.28439" lon="7.318"><ele>1450.8</ele><time>2017-07-23T10:19:14Z</time></trkpt>
<trkpt lat="46.28456" lon="7.31796"><ele>1454.2</ele><time>2017-07-23T10:19:27Z</time></trkpt>
<trkpt lat="46.28457" lon="7.31773"><ele>1455.8</ele><time>2017-07-23T10:19:39Z</time></trkpt>
<trkpt lat="46.28454" lon="7.3176"><ele>1455.8</ele><time>2017-07-23T10:19:46Z</time></trkpt>
<trkpt lat="46.28446" lon="7.31736"><ele>1456.2</ele><time>2017-07-23T10:19:58Z</time></trkpt>
<trkpt lat="46.28441" lon="7.31721"><ele>1456.2</ele><time>2017-07-23T10:20:05Z</time></trkpt>
<trkpt lat="46.28439" lon="7.31704"><ele>1457</ele><time>2017-07-23T10:20:12Z</time></trkpt>
<trkpt lat="46.2844" lon="7.31683"><ele>1458</ele><time>2017-07-23T10:20:21Z</time></trkpt>
<trkpt lat="46.28439" lon="7.31672"><ele>1458.8</ele><time>2017-07-23T10:20:26Z</time></trkpt>
<trkpt lat="46.28439" lon="7.3167"><ele>1459</ele><time>2017-07-23T10:20:27Z</time></trkpt>
<trkpt lat="46.28439" lon="7.31655"><ele>1460</ele><time>2017-07-23T10:20:33Z</time></trkpt>
<trkpt lat="46.28427" lon="7.31634"><ele>1463.2</ele><time>2017-07-23T10:20:44Z</time></trkpt>
<trkpt lat="46.28416" lon="7.31612"><ele>1465</ele><time>2017-07-23T10:20:55Z</time></trkpt>
<trkpt lat="46.2841" lon="7.31586"><ele>1466.2</ele><time>2017-07-23T10:21:07Z</time></trkpt>
<trkpt lat="46.2841" lon="7.31581"><ele>1466.6</ele><time>2017-07-23T10:21:09Z</time></trkpt>
<trkpt lat="46.2841" lon="7.31569"><ele>1466.8</ele><time>2017-07-23T10:21:14Z</time></trkpt>
<trkpt lat="46.2841" lon="7.31536"><ele>1467.4</ele><time>2017-07-23T10:21:28Z</time></trkpt>
<trkpt lat="46.28413" lon="7.31508"><ele>1469.2</ele><time>2017-07-23T10:21:40Z</time></trkpt>
<trkpt lat="46.28416" lon="7.31494"><ele>1471</ele><time>2017-07-23T10:21:47Z</time></trkpt>
<trkpt lat="46.28425" lon="7.3147"><ele>1473</ele><time>2017-07-23T10:22:00Z</time></trkpt>
<trkpt lat="46.28425" lon="7.31469"><ele>1473.2</ele><time>2017-07-23T10:22:02Z</time></trkpt>
<trkpt lat="46.28425" lon="7.31471"><ele>1473.4</ele><time>2017-07-23T10:22:18Z</time></trkpt>
<trkpt lat="46.28425" lon="7.31471"><ele>1473.4</ele><time>2017-07-23T10:22:20Z</time></trkpt>
<trkpt lat="46.28425" lon="7.31471"><ele>1473.2</ele><time>2017-07-23T10:22:29Z</time></trkpt>
<trkpt lat="46.28425" lon="7.31471"><ele>1473</ele><time>2017-07-23T10:22:30Z</time></trkpt>
<trkpt lat="46.28425" lon="7.31471"><ele>1473</ele><time>2017-07-23T10:22:31Z</time></trkpt>
<trkpt lat="46.28425" lon="7.31471"><ele>1472.8</ele><time>2017-07-23T10:22:32Z</time></trkpt>
<trkpt lat="46.28425" lon="7.31471"><ele>1472.8</ele><time>2017-07-23T10:22:33Z</time></trkpt>
<trkpt lat="46.28425" lon="7.31471"><ele>1472.8</ele><time>2017-07-23T10:22:35Z</time></trkpt>
<trkpt lat="46.28425" lon="7.31471"><ele>1472.8</ele><time>2017-07-23T10:22:57Z</time></trkpt>
<trkpt lat="46.2844" lon="7.31463"><ele>1474</ele><time>2017-07-23T10:23:08Z</time></trkpt>
<trkpt lat="46.28455" lon="7.31441"><ele>1476.6</ele><time>2017-07-23T10:23:21Z</time></trkpt>
<trkpt lat="46.28454" lon="7.31413"><ele>1478</ele><time>2017-07-23T10:23:32Z</time></trkpt>
<trkpt lat="46.28454" lon="7.31403"><ele>1478.8</ele><time>2017-07-23T10:23:36Z</time></trkpt>
<trkpt lat="46.28453" lon="7.31401"><ele>1479</ele><time>2017-07-23T10:23:37Z</time></trkpt>
<trkpt lat="46.28453" lon="7.31375"><ele>1480.8</ele><time>2017-07-23T10:23:48Z</time></trkpt>
<trkpt lat="46.28452" lon="7.31348"><ele>1482.4</ele><time>2017-07-23T10:23:59Z</time></trkpt>
<trkpt lat="46.28449" lon="7.31321"><ele>1483.8</ele><time>2017-07-23T10:24:10Z</time></trkpt>
<trkpt lat="46.28446" lon="7.31295"><ele>1485.6</ele><time>2017-07-23T10:24:21Z</time></trkpt>
<trkpt lat="46.28438" lon="7.31274"><ele>1487.2</ele><time>2017-07-23T10:24:31Z</time></trkpt>
<trkpt lat="46.2843" lon="7.3125"><ele>1489</ele><time>2017-07-23T10:24:42Z</time></trkpt>
<trkpt lat="46.28426" lon="7.31224"><ele>1490.4</ele><time>2017-07-23T10:24:53Z</time></trkpt>
<trkpt lat="46.2842" lon="7.31198"><ele>1491.2</ele><time>2017-07-23T10:25:04Z</time></trkpt>
<trkpt lat="46.28413" lon="7.31181"><ele>1492</ele><time>2017-07-23T10:25:13Z</time></trkpt>
<trkpt lat="46.28408" lon="7.31176"><ele>1492.6</ele><time>2017-07-23T10:25:17Z</time></trkpt>
<trkpt lat="46.28402" lon="7.31169"><ele>1493.2</ele><time>2017-07-23T10:25:22Z</time></trkpt>
<trkpt lat="46.28401" lon="7.31167"><ele>1493.4</ele><time>2017-07-23T10:25:23Z</time></trkpt>
<trkpt lat="46.28394" lon="7.31157"><ele>1494</ele><time>2017-07-23T10:25:29Z</time></trkpt>
<trkpt lat="46.28405" lon="7.31149"><ele>1495.4</ele><time>2017-07-23T10:25:39Z</time></trkpt>
<trkpt lat="46.28416" lon="7.31155"><ele>1495.8</ele><time>2017-07-23T10:25:46Z</time></trkpt>
<trkpt lat="46.28419" lon="7.31157"><ele>1496</ele><time>2017-07-23T10:25:48Z</time></trkpt>
<trkpt lat="46.28423" lon="7.31161"><ele>1496.2</ele><time>2017-07-23T10:25:51Z</time></trkpt>
<trkpt lat="46.28437" lon="7.31173"><ele>1497</ele><time>2017-07-23T10:26:01Z</time></trkpt>
<trkpt lat="46.28439" lon="7.31175"><ele>1497</ele><time>2017-07-23T10:26:03Z</time></trkpt>
<trkpt lat="46.28441" lon="7.31178"><ele>1497</ele><time>2017-07-23T10:26:05Z</time></trkpt>
<trkpt lat="46.2845" lon="7.31194"><ele>1497.6</ele><time>2017-07-23T10:26:14Z</time></trkpt>
<trkpt lat="46.28457" lon="7.31218"><ele>1498.4</ele><time>2017-07-23T10:26:25Z</time></trkpt>
<trkpt lat="46.28469" lon="7.31237"><ele>1500.6</ele><time>2017-07-23T10:26:37Z</time></trkpt>
<trkpt lat="46.2849" lon="7.31255"><ele>1503</ele><time>2017-07-23T10:26:52Z</time></trkpt>
<trkpt lat="46.28507" lon="7.31267"><ele>1504.4</ele><time>2017-07-23T10:27:03Z</time></trkpt>
<trkpt lat="46.28523" lon="7.31282"><ele>1506.4</ele><time>2017-07-23T10:27:15Z</time></trkpt>
<trkpt lat="46.28533" lon="7.31303"><ele>1509.4</ele><time>2017-07-23T10:27:26Z</time></trkpt>
<trkpt lat="46.28536" lon="7.31326"><ele>1511.8</ele><time>2017-07-23T10:27:35Z</time></trkpt>
<trkpt lat="46.28536" lon="7.31347"><ele>1514.8</ele><time>2017-07-23T10:27:44Z</time></trkpt>
<trkpt lat="46.28544" lon="7.31374"><ele>1518</ele><time>2017-07-23T10:27:55Z</time></trkpt>
<trkpt lat="46.28549" lon="7.3139"><ele>1519.6</ele><time>2017-07-23T10:28:02Z</time></trkpt>
<trkpt lat="46.28556" lon="7.31414"><ele>1522.6</ele><time>2017-07-23T10:28:14Z</time></trkpt>
<trkpt lat="46.28566" lon="7.31436"><ele>1525</ele><time>2017-07-23T10:28:26Z</time></trkpt>
<trkpt lat="46.28579" lon="7.31456"><ele>1527.4</ele><time>2017-07-23T10:28:38Z</time></trkpt>
<trkpt lat="46.28589" lon="7.31472"><ele>1529.8</ele><time>2017-07-23T10:28:48Z</time></trkpt>
<trkpt lat="46.28599" lon="7.31488"><ele>1531.8</ele><time>2017-07-23T10:28:58Z</time></trkpt>
<trkpt lat="46.28614" lon="7.31512"><ele>1535</ele><time>2017-07-23T10:29:14Z</time></trkpt>
<trkpt lat="46.28624" lon="7.31527"><ele>1537.6</ele><time>2017-07-23T10:29:25Z</time></trkpt>
<trkpt lat="46.28633" lon="7.31534"><ele>1539.6</ele><time>2017-07-23T10:29:32Z</time></trkpt>
<trkpt lat="46.28643" lon="7.31546"><ele>1543</ele><time>2017-07-23T10:29:47Z</time></trkpt>
<trkpt lat="46.28647" lon="7.3155"><ele>1544</ele><time>2017-07-23T10:29:52Z</time></trkpt>
<trkpt lat="46.2865" lon="7.31549"><ele>1544.8</ele><time>2017-07-23T10:29:56Z</time></trkpt>
<trkpt lat="46.28648" lon="7.31528"><ele>1546.6</ele><time>2017-07-23T10:30:10Z</time></trkpt>
<trkpt lat="46.28637" lon="7.31518"><ele>1547.6</ele><time>2017-07-23T10:30:18Z</time></trkpt>
<trkpt lat="46.28633" lon="7.31508"><ele>1548</ele><time>2017-07-23T10:30:23Z</time></trkpt>
<trkpt lat="46.28629" lon="7.31498"><ele>1548.8</ele><time>2017-07-23T10:30:28Z</time></trkpt>
<trkpt lat="46.28624" lon="7.31473"><ele>1550.8</ele><time>2017-07-23T10:30:41Z</time></trkpt>
<trkpt lat="46.28621" lon="7.31446"><ele>1553.4</ele><time>2017-07-23T10:30:55Z</time></trkpt>
<trkpt lat="46.2862" lon="7.31435"><ele>1554.4</ele><time>2017-07-23T10:31:01Z</time></trkpt>
<trkpt lat="46.28616" lon="7.31409"><ele>1556.8</ele><time>2017-07-23T10:31:14Z</time></trkpt>
<trkpt lat="46.28614" lon="7.31399"><ele>1557.8</ele><time>2017-07-23T10:31:19Z</time></trkpt>
<trkpt lat="46.28609" lon="7.31374"><ele>1560.6</ele><time>2017-07-23T10:31:32Z</time></trkpt>
<trkpt lat="46.28608" lon="7.31362"><ele>1562</ele><time>2017-07-23T10:31:38Z</time></trkpt>
<trkpt lat="46.28619" lon="7.31363"><ele>1563.6</ele><time>2017-07-23T10:31:47Z</time></trkpt>
<trkpt lat="46.2863" lon="7.31384"><ele>1565.4</ele><time>2017-07-23T10:32:00Z</time></trkpt>
<trkpt lat="46.28642" lon="7.31405"><ele>1568</ele><time>2017-07-23T10:32:13Z</time></trkpt>
<trkpt lat="46.28654" lon="7.31427"><ele>1570</ele><time>2017-07-23T10:32:26Z</time></trkpt>
<trkpt lat="46.28655" lon="7.31431"><ele>1570</ele><time>2017-07-23T10:32:28Z</time></trkpt>
<trkpt lat="46.2866" lon="7.31436"><ele>1570.4</ele><time>2017-07-23T10:32:32Z</time></trkpt>
<trkpt lat="46.28675" lon="7.31451"><ele>1572</ele><time>2017-07-23T10:32:45Z</time></trkpt>
<trkpt lat="46.28694" lon="7.31458"><ele>1574.2</ele><time>2017-07-23T10:33:01Z</time></trkpt>
<trkpt lat="46.28695" lon="7.31458"><ele>1574.2</ele><time>2017-07-23T10:33:02Z</time></trkpt>
<trkpt lat="46.28718" lon="7.31469"><ele>1576.8</ele><time>2017-07-23T10:33:22Z</time></trkpt>
<trkpt lat="46.28723" lon="7.31471"><ele>1576.8</ele><time>2017-07-23T10:33:27Z</time></trkpt>
<trkpt lat="46.28731" lon="7.31474"><ele>1578.6</ele><time>2017-07-23T10:33:34Z</time></trkpt>
<trkpt lat="46.28749" lon="7.3148"><ele>1580.2</ele><time>2017-07-23T10:33:50Z</time></trkpt>
<trkpt lat="46.28754" lon="7.31483"><ele>1580.8</ele><time>2017-07-23T10:33:55Z</time></trkpt>
<trkpt lat="46.28761" lon="7.31486"><ele>1581.4</ele><time>2017-07-23T10:34:01Z</time></trkpt>
<trkpt lat="46.28774" lon="7.31495"><ele>1583.4</ele><time>2017-07-23T10:34:14Z</time></trkpt>
<trkpt lat="46.28783" lon="7.31495"><ele>1585.2</ele><time>2017-07-23T10:34:22Z</time></trkpt>
<trkpt lat="46.28793" lon="7.31487"><ele>1588</ele><time>2017-07-23T10:34:33Z</time></trkpt>
<trkpt lat="46.28801" lon="7.3148"><ele>1590.4</ele><time>2017-07-23T10:34:44Z</time></trkpt>
<trkpt lat="46.28802" lon="7.3148"><ele>1590.6</ele><time>2017-07-23T10:34:45Z</time></trkpt>
<trkpt lat="46.28806" lon="7.31478"><ele>1591.4</ele><time>2017-07-23T10:34:49Z</time></trkpt>
<trkpt lat="46.28818" lon="7.31472"><ele>1593.2</ele><time>2017-07-23T10:35:00Z</time></trkpt>
<trkpt lat="46.28832" lon="7.31457"><ele>1593.8</ele><time>2017-07-23T10:35:22Z</time></trkpt>
<trkpt lat="46.28835" lon="7.31454"><ele>1593.8</ele><time>2017-07-23T10:35:25Z</time></trkpt>
<trkpt lat="46.28846" lon="7.31453"><ele>1594.4</ele><time>2017-07-23T10:35:34Z</time></trkpt>
<trkpt lat="46.28848" lon="7.31454"><ele>1594.6</ele><time>2017-07-23T10:35:35Z</time></trkpt>
<trkpt lat="46.28854" lon="7.31458"><ele>1594.4</ele><time>2017-07-23T10:35:39Z</time></trkpt>
<trkpt lat="46.28858" lon="7.31462"><ele>1594.4</ele><time>2017-07-23T10:35:43Z</time></trkpt>
<trkpt lat="46.2888" lon="7.31476"><ele>1594.8</ele><time>2017-07-23T10:36:01Z</time></trkpt>
<trkpt lat="46.28897" lon="7.31486"><ele>1597.2</ele><time>2017-07-23T10:36:15Z</time></trkpt>
<trkpt lat="46.28914" lon="7.31487"><ele>1600.2</ele><time>2017-07-23T10:36:29Z</time></trkpt>
<trkpt lat="46.28932" lon="7.31482"><ele>1603.4</ele><time>2017-07-23T10:36:44Z</time></trkpt>
<trkpt lat="46.28943" lon="7.3148"><ele>1606.8</ele><time>2017-07-23T10:36:53Z</time></trkpt>
<trkpt lat="46.28961" lon="7.31476"><ele>1609.8</ele><time>2017-07-23T10:37:07Z</time></trkpt>
<trkpt lat="46.2898" lon="7.31481"><ele>1610.4</ele><time>2017-07-23T10:37:20Z</time></trkpt>
<trkpt lat="46.28998" lon="7.31482"><ele>1613</ele><time>2017-07-23T10:37:33Z</time></trkpt>
<trkpt lat="46.29017" lon="7.31484"><ele>1617.6</ele><time>2017-07-23T10:37:46Z</time></trkpt>
<trkpt lat="46.29025" lon="7.31481"><ele>1618.8</ele><time>2017-07-23T10:37:51Z</time></trkpt>
<trkpt lat="46.29026" lon="7.31477"><ele>1619.4</ele><time>2017-07-23T10:37:53Z</time></trkpt>
<trkpt lat="46.29017" lon="7.31469"><ele>1619.2</ele><time>2017-07-23T10:38:01Z</time></trkpt>
<trkpt lat="46.29005" lon="7.31467"><ele>1619.2</ele><time>2017-07-23T10:38:10Z</time></trkpt>
<trkpt lat="46.28991" lon="7.31463"><ele>1620</ele><time>2017-07-23T10:38:21Z</time></trkpt>
<trkpt lat="46.28974" lon="7.31451"><ele>1621.4</ele><time>2017-07-23T10:38:35Z</time></trkpt>
<trkpt lat="46.28961" lon="7.31443"><ele>1623</ele><time>2017-07-23T10:38:45Z</time></trkpt>
<trkpt lat="46.28953" lon="7.31435"><ele>1624.2</ele><time>2017-07-23T10:38:52Z</time></trkpt>
<trkpt lat="46.28947" lon="7.31428"><ele>1624.8</ele><time>2017-07-23T10:38:58Z</time></trkpt>
<trkpt lat="46.28939" lon="7.31422"><ele>1625</ele><time>2017-07-23T10:39:05Z</time></trkpt>
<trkpt lat="46.28937" lon="7.3142"><ele>1625</ele><time>2017-07-23T10:39:07Z</time></trkpt>
<trkpt lat="46.28933" lon="7.31412"><ele>1625.8</ele><time>2017-07-23T10:39:13Z</time></trkpt>
<trkpt lat="46.28924" lon="7.31392"><ele>1626.4</ele><time>2017-07-23T10:39:23Z</time></trkpt>
<trkpt lat="46.28925" lon="7.31378"><ele>1626.6</ele><time>2017-07-23T10:39:29Z</time></trkpt>
<trkpt lat="46.28929" lon="7.31362"><ele>1626.8</ele><time>2017-07-23T10:39:37Z</time></trkpt>
<trkpt lat="46.28931" lon="7.3135"><ele>1626.4</ele><time>2017-07-23T10:39:43Z</time></trkpt>
<trkpt lat="46.2893" lon="7.31336"><ele>1626.8</ele><time>2017-07-23T10:39:51Z</time></trkpt>
<trkpt lat="46.28931" lon="7.31332"><ele>1627.2</ele><time>2017-07-23T10:39:55Z</time></trkpt>
<trkpt lat="46.28929" lon="7.31325"><ele>1627.4</ele><time>2017-07-23T10:40:00Z</time></trkpt>
<trkpt lat="46.28923" lon="7.31316"><ele>1627.4</ele><time>2017-07-23T10:40:08Z</time></trkpt>
<trkpt lat="46.28907" lon="7.31312"><ele>1629.4</ele><time>2017-07-23T10:40:19Z</time></trkpt>
<trkpt lat="46.28889" lon="7.31307"><ele>1631.6</ele><time>2017-07-23T10:40:32Z</time></trkpt>
<trkpt lat="46.28885" lon="7.31306"><ele>1631.8</ele><time>2017-07-23T10:40:35Z</time></trkpt>
<trkpt lat="46.28867" lon="7.31295"><ele>1635.6</ele><time>2017-07-23T10:40:49Z</time></trkpt>
<trkpt lat="46.28863" lon="7.31294"><ele>1636.4</ele><time>2017-07-23T10:40:52Z</time></trkpt>
<trkpt lat="46.28853" lon="7.31295"><ele>1638.6</ele><time>2017-07-23T10:40:59Z</time></trkpt>
<trkpt lat="46.28843" lon="7.31297"><ele>1641.6</ele><time>2017-07-23T10:41:09Z</time></trkpt>
<trkpt lat="46.28836" lon="7.31291"><ele>1643</ele><time>2017-07-23T10:41:15Z</time></trkpt>
<trkpt lat="46.28828" lon="7.31282"><ele>1644.6</ele><time>2017-07-23T10:41:23Z</time></trkpt>
<trkpt lat="46.28816" lon="7.31261"><ele>1647.4</ele><time>2017-07-23T10:41:36Z</time></trkpt>
<trkpt lat="46.28805" lon="7.3124"><ele>1649.6</ele><time>2017-07-23T10:41:49Z</time></trkpt>
<trkpt lat="46.28797" lon="7.31222"><ele>1651.6</ele><time>2017-07-23T10:42:00Z</time></trkpt>
<trkpt lat="46.28789" lon="7.31208"><ele>1653.4</ele><time>2017-07-23T10:42:09Z</time></trkpt>
<trkpt lat="46.28778" lon="7.31186"><ele>1656.4</ele><time>2017-07-23T10:42:22Z</time></trkpt>
<trkpt lat="46.28778" lon="7.31178"><ele>1656.8</ele><time>2017-07-23T10:42:26Z</time></trkpt>
<trkpt lat="46.28772" lon="7.31153"><ele>1659.8</ele><time>2017-07-23T10:42:39Z</time></trkpt>
<trkpt lat="46.28761" lon="7.31121"><ele>1663</ele><time>2017-07-23T10:42:56Z</time></trkpt>
<trkpt lat="46.28759" lon="7.31115"><ele>1663.4</ele><time>2017-07-23T10:42:59Z</time></trkpt>
<trkpt lat="46.28758" lon="7.3111"><ele>1663.6</ele><time>2017-07-23T10:43:02Z</time></trkpt>
<trkpt lat="46.28755" lon="7.31103"><ele>1664.2</ele><time>2017-07-23T10:43:06Z</time></trkpt>
<trkpt lat="46.28748" lon="7.31085"><ele>1665.2</ele><time>2017-07-23T10:43:16Z</time></trkpt>
<trkpt lat="46.28743" lon="7.31075"><ele>1665.4</ele><time>2017-07-23T10:43:22Z</time></trkpt>
<trkpt lat="46.28734" lon="7.3105"><ele>1666.4</ele><time>2017-07-23T10:43:35Z</time></trkpt>
<trkpt lat="46.28729" lon="7.31024"><ele>1666.2</ele><time>2017-07-23T10:43:47Z</time></trkpt>
<trkpt lat="46.28722" lon="7.31"><ele>1666.4</ele><time>2017-07-23T10:43:59Z</time></trkpt>
<trkpt lat="46.2872" lon="7.30977"><ele>1667.8</ele><time>2017-07-23T10:44:11Z</time></trkpt>
<trkpt lat="46.28716" lon="7.30964"><ele>1668.8</ele><time>2017-07-23T10:44:19Z</time></trkpt>
<trkpt lat="46.28711" lon="7.30939"><ele>1669.4</ele><time>2017-07-23T10:44:32Z</time></trkpt>
<trkpt lat="46.287" lon="7.30906"><ele>1671.4</ele><time>2017-07-23T10:44:49Z</time></trkpt>
<trkpt lat="46.28691" lon="7.30885"><ele>1672.8</ele><time>2017-07-23T10:45:02Z</time></trkpt>
<trkpt lat="46.28676" lon="7.30869"><ele>1677</ele><time>2017-07-23T10:45:16Z</time></trkpt>
<trkpt lat="46.28663" lon="7.30857"><ele>1680.8</ele><time>2017-07-23T10:45:27Z</time></trkpt>
<trkpt lat="46.28661" lon="7.30851"><ele>1681.8</ele><time>2017-07-23T10:45:30Z</time></trkpt>
<trkpt lat="46.2867" lon="7.30845"><ele>1682.6</ele><time>2017-07-23T10:45:37Z</time></trkpt>
<trkpt lat="46.28678" lon="7.30856"><ele>1684.6</ele><time>2017-07-23T10:45:45Z</time></trkpt>
<trkpt lat="46.28682" lon="7.30863"><ele>1686.2</ele><time>2017-07-23T10:45:51Z</time></trkpt>
<trkpt lat="46.2869" lon="7.3087"><ele>1689.4</ele><time>2017-07-23T10:46:00Z</time></trkpt>
<trkpt lat="46.28697" lon="7.30874"><ele>1691.8</ele><time>2017-07-23T10:46:07Z</time></trkpt>
<trkpt lat="46.28707" lon="7.30879"><ele>1693.8</ele><time>2017-07-23T10:46:16Z</time></trkpt>
<trkpt lat="46.28724" lon="7.30891"><ele>1696.6</ele><time>2017-07-23T10:46:30Z</time></trkpt>
<trkpt lat="46.28728" lon="7.30894"><ele>1697.4</ele><time>2017-07-23T10:46:33Z</time></trkpt>
<trkpt lat="46.28734" lon="7.30904"><ele>1699.4</ele><time>2017-07-23T10:46:40Z</time></trkpt>
<trkpt lat="46.28735" lon="7.30905"><ele>1699.6</ele><time>2017-07-23T10:46:41Z</time></trkpt>
<trkpt lat="46.28744" lon="7.30926"><ele>1704</ele><time>2017-07-23T10:46:54Z</time></trkpt>
<trkpt lat="46.28757" lon="7.30945"><ele>1705.4</ele><time>2017-07-23T10:47:06Z</time></trkpt>
<trkpt lat="46.28769" lon="7.30966"><ele>1707.2</ele><time>2017-07-23T10:47:18Z</time></trkpt>
<trkpt lat="46.28782" lon="7.30985"><ele>1710.6</ele><time>2017-07-23T10:47:33Z</time></trkpt>
<trkpt lat="46.288" lon="7.30995"><ele>1714.8</ele><time>2017-07-23T10:47:47Z</time></trkpt>
<trkpt lat="46.28817" lon="7.31004"><ele>1718.2</ele><time>2017-07-23T10:48:00Z</time></trkpt>
<trkpt lat="46.28826" lon="7.31009"><ele>1719.6</ele><time>2017-07-23T10:48:06Z</time></trkpt>
<trkpt lat="46.2885" lon="7.31021"><ele>1722.2</ele><time>2017-07-23T10:48:23Z</time></trkpt>
<trkpt lat="46.28855" lon="7.31025"><ele>1724</ele><time>2017-07-23T10:48:29Z</time></trkpt>
<trkpt lat="46.28861" lon="7.31028"><ele>1724.8</ele><time>2017-07-23T10:48:34Z</time></trkpt>
<trkpt lat="46.28865" lon="7.31029"><ele>1725</ele><time>2017-07-23T10:48:37Z</time></trkpt>
<trkpt lat="46.28883" lon="7.31035"><ele>1727.8</ele><time>2017-07-23T10:48:52Z</time></trkpt>
<trkpt lat="46.28885" lon="7.31036"><ele>1727.4</ele><time>2017-07-23T10:48:53Z</time></trkpt>
<trkpt lat="46.289" lon="7.31045"><ele>1726.4</ele><time>2017-07-23T10:49:06Z</time></trkpt>
<trkpt lat="46.28916" lon="7.31049"><ele>1729.8</ele><time>2017-07-23T10:49:18Z</time></trkpt>
<trkpt lat="46.28925" lon="7.31052"><ele>1730.4</ele><time>2017-07-23T10:49:24Z</time></trkpt>
<trkpt lat="46.28937" lon="7.3105"><ele>1732</ele><time>2017-07-23T10:49:35Z</time></trkpt>
<trkpt lat="46.28943" lon="7.31049"><ele>1731.8</ele><time>2017-07-23T10:49:40Z</time></trkpt>
<trkpt lat="46.28949" lon="7.31043"><ele>1732.2</ele><time>2017-07-23T10:49:47Z</time></trkpt>
<trkpt lat="46.28954" lon="7.3104"><ele>1733.4</ele><time>2017-07-23T10:49:52Z</time></trkpt>
<trkpt lat="46.28961" lon="7.31037"><ele>1734.8</ele><time>2017-07-23T10:49:59Z</time></trkpt>
<trkpt lat="46.28968" lon="7.31034"><ele>1736.6</ele><time>2017-07-23T10:50:06Z</time></trkpt>
<trkpt lat="46.2898" lon="7.31029"><ele>1739.2</ele><time>2017-07-23T10:50:19Z</time></trkpt>
<trkpt lat="46.28987" lon="7.31028"><ele>1740.2</ele><time>2017-07-23T10:50:26Z</time></trkpt>
<trkpt lat="46.28992" lon="7.3103"><ele>1740.6</ele><time>2017-07-23T10:50:30Z</time></trkpt>
<trkpt lat="46.29004" lon="7.31031"><ele>1740.4</ele><time>2017-07-23T10:50:39Z</time></trkpt>
<trkpt lat="46.29007" lon="7.31031"><ele>1740.2</ele><time>2017-07-23T10:50:41Z</time></trkpt>
<trkpt lat="46.29025" lon="7.31029"><ele>1743</ele><time>2017-07-23T10:50:56Z</time></trkpt>
<trkpt lat="46.29039" lon="7.31026"><ele>1745.4</ele><time>2017-07-23T10:51:08Z</time></trkpt>
<trkpt lat="46.29044" lon="7.31026"><ele>1746.6</ele><time>2017-07-23T10:51:12Z</time></trkpt>
<trkpt lat="46.29045" lon="7.31027"><ele>1747</ele><time>2017-07-23T10:51:13Z</time></trkpt>
<trkpt lat="46.29051" lon="7.31031"><ele>1748.2</ele><time>2017-07-23T10:51:18Z</time></trkpt>
<trkpt lat="46.29064" lon="7.31038"><ele>1747.6</ele><time>2017-07-23T10:51:28Z</time></trkpt>
<trkpt lat="46.29069" lon="7.31041"><ele>1747</ele><time>2017-07-23T10:51:31Z</time></trkpt>
<trkpt lat="46.29087" lon="7.31042"><ele>1746.4</ele><time>2017-07-23T10:51:45Z</time></trkpt>
<trkpt lat="46.29102" lon="7.31047"><ele>1746.8</ele><time>2017-07-23T10:51:56Z</time></trkpt>
<trkpt lat="46.29111" lon="7.31047"><ele>1748.4</ele><time>2017-07-23T10:52:03Z</time></trkpt>
<trkpt lat="46.29125" lon="7.31047"><ele>1751.6</ele><time>2017-07-23T10:52:13Z</time></trkpt>
<trkpt lat="46.29143" lon="7.31044"><ele>1755.6</ele><time>2017-07-23T10:52:27Z</time></trkpt>
<trkpt lat="46.29157" lon="7.31048"><ele>1754.2</ele><time>2017-07-23T10:52:36Z</time></trkpt>
<trkpt lat="46.29174" lon="7.31043"><ele>1754.4</ele><time>2017-07-23T10:52:49Z</time></trkpt>
<trkpt lat="46.29177" lon="7.31031"><ele>1754.2</ele><time>2017-07-23T10:52:57Z</time></trkpt>
<trkpt lat="46.29176" lon="7.3102"><ele>1754.6</ele><time>2017-07-23T10:53:03Z</time></trkpt>
<trkpt lat="46.29176" lon="7.31018"><ele>1754.6</ele><time>2017-07-23T10:53:04Z</time></trkpt>
<trkpt lat="46.29189" lon="7.31004"><ele>1755.8</ele><time>2017-07-23T10:53:17Z</time></trkpt>
<trkpt lat="46.29206" lon="7.30995"><ele>1756</ele><time>2017-07-23T10:53:31Z</time></trkpt>
<trkpt lat="46.29218" lon="7.30998"><ele>1758</ele><time>2017-07-23T10:53:40Z</time></trkpt>
<trkpt lat="46.29225" lon="7.31008"><ele>1759.6</ele><time>2017-07-23T10:53:47Z</time></trkpt>
<trkpt lat="46.29234" lon="7.31018"><ele>1761.6</ele><time>2017-07-23T10:53:56Z</time></trkpt>
<trkpt lat="46.29242" lon="7.3102"><ele>1763.4</ele><time>2017-07-23T10:54:03Z</time></trkpt>
<trkpt lat="46.29259" lon="7.31023"><ele>1766</ele><time>2017-07-23T10:54:17Z</time></trkpt>
<trkpt lat="46.29266" lon="7.31023"><ele>1767.6</ele><time>2017-07-23T10:54:23Z</time></trkpt>
<trkpt lat="46.29271" lon="7.31022"><ele>1767</ele><time>2017-07-23T10:54:27Z</time></trkpt>
<trkpt lat="46.29277" lon="7.31021"><ele>1767.6</ele><time>2017-07-23T10:54:32Z</time></trkpt>
<trkpt lat="46.293" lon="7.31019"><ele>1774.2</ele><time>2017-07-23T10:54:50Z</time></trkpt>
<trkpt lat="46.29306" lon="7.31017"><ele>1773.8</ele><time>2017-07-23T10:54:55Z</time></trkpt>
<trkpt lat="46.29311" lon="7.31014"><ele>1773.6</ele><time>2017-07-23T10:55:00Z</time></trkpt>
<trkpt lat="46.29324" lon="7.31013"><ele>1773.8</ele><time>2017-07-23T10:55:10Z</time></trkpt>
<trkpt lat="46.29342" lon="7.31009"><ele>1777</ele><time>2017-07-23T10:55:25Z</time></trkpt>
<trkpt lat="46.29358" lon="7.31017"><ele>1780.2</ele><time>2017-07-23T10:55:38Z</time></trkpt>
<trkpt lat="46.29371" lon="7.31011"><ele>1781.4</ele><time>2017-07-23T10:55:49Z</time></trkpt>
<trkpt lat="46.29389" lon="7.31012"><ele>1783.8</ele><time>2017-07-23T10:56:03Z</time></trkpt>
<trkpt lat="46.2939" lon="7.31013"><ele>1783.8</ele><time>2017-07-23T10:56:04Z</time></trkpt>
<trkpt lat="46.29403" lon="7.31018"><ele>1785.6</ele><time>2017-07-23T10:56:14Z</time></trkpt>
<trkpt lat="46.29419" lon="7.3103"><ele>1788.4</ele><time>2017-07-23T10:56:30Z</time></trkpt>
<trkpt lat="46.29436" lon="7.31037"><ele>1791.6</ele><time>2017-07-23T10:56:44Z</time></trkpt>
<trkpt lat="46.29442" lon="7.31041"><ele>1792</ele><time>2017-07-23T10:56:48Z</time></trkpt>
<trkpt lat="46.29462" lon="7.3105"><ele>1795</ele><time>2017-07-23T10:57:02Z</time></trkpt>
<trkpt lat="46.29468" lon="7.31052"><ele>1795.8</ele><time>2017-07-23T10:57:06Z</time></trkpt>
<trkpt lat="46.29486" lon="7.31063"><ele>1799.4</ele><time>2017-07-23T10:57:20Z</time></trkpt>
<trkpt lat="46.29503" lon="7.31071"><ele>1799.6</ele><time>2017-07-23T10:57:31Z</time></trkpt>
<trkpt lat="46.29507" lon="7.31064"><ele>1800.4</ele><time>2017-07-23T10:57:36Z</time></trkpt>
<trkpt lat="46.29505" lon="7.31054"><ele>1799.8</ele><time>2017-07-23T10:57:42Z</time></trkpt>
<trkpt lat="46.29505" lon="7.31053"><ele>1799.2</ele><time>2017-07-23T10:57:44Z</time></trkpt>
<trkpt lat="46.29498" lon="7.31052"><ele>1795.6</ele><time>2017-07-23T10:58:19Z</time></trkpt>
<trkpt lat="46.29499" lon="7.31053"><ele>1795.4</ele><time>2017-07-23T10:58:25Z</time></trkpt>
<trkpt lat="46.2951" lon="7.31057"><ele>1796.4</ele><time>2017-07-23T10:59:09Z</time></trkpt>
<trkpt lat="46.29509" lon="7.31056"><ele>1796.2</ele><time>2017-07-23T10:59:13Z</time></trkpt>
<trkpt lat="46.29508" lon="7.31056"><ele>1796.2</ele><time>2017-07-23T10:59:22Z</time></trkpt>
<trkpt lat="46.29509" lon="7.31055"><ele>1796.2</ele><time>2017-07-23T10:59:35Z</time></trkpt>
<trkpt lat="46.29508" lon="7.31057"><ele>1795.4</ele><time>2017-07-23T10:59:48Z</time></trkpt>
<trkpt lat="46.29505" lon="7.31057"><ele>1795.8</ele><time>2017-07-23T11:00:18Z</time></trkpt>
<trkpt lat="46.29508" lon="7.3106"><ele>1795.6</ele><time>2017-07-23T11:00:29Z</time></trkpt>
<trkpt lat="46.2951" lon="7.31066"><ele>1795.4</ele><time>2017-07-23T11:00:37Z</time></trkpt>
<trkpt lat="46.2951" lon="7.31067"><ele>1795.6</ele><time>2017-07-23T11:00:40Z</time></trkpt>
<trkpt lat="46.2951" lon="7.31068"><ele>1795.8</ele><time>2017-07-23T11:00:42Z</time></trkpt>
<trkpt lat="46.29511" lon="7.31068"><ele>1795.8</ele><time>2017-07-23T11:00:43Z</time></trkpt>
<trkpt lat="46.29511" lon="7.31068"><ele>1795.8</ele><time>2017-07-23T11:00:44Z</time></trkpt>
<trkpt lat="46.29511" lon="7.31069"><ele>1795.6</ele><time>2017-07-23T11:00:54Z</time></trkpt>
<trkpt lat="46.29511" lon="7.31068"><ele>1795.2</ele><time>2017-07-23T11:01:01Z</time></trkpt>
<trkpt lat="46.29509" lon="7.31067"><ele>1796</ele><time>2017-07-23T11:01:11Z</time></trkpt>
<trkpt lat="46.2951" lon="7.31067"><ele>1796.6</ele><time>2017-07-23T11:01:16Z</time></trkpt>
<trkpt lat="46.29511" lon="7.31066"><ele>1797</ele><time>2017-07-23T11:01:19Z</time></trkpt>
<trkpt lat="46.29511" lon="7.3107"><ele>1797.2</ele><time>2017-07-23T11:01:35Z</time></trkpt>
<trkpt lat="46.29504" lon="7.31056"><ele>1797.4</ele><time>2017-07-23T11:01:58Z</time></trkpt>
<trkpt lat="46.29504" lon="7.31056"><ele>1797</ele><time>2017-07-23T11:02:05Z</time></trkpt>
<trkpt lat="46.29505" lon="7.31057"><ele>1796</ele><time>2017-07-23T11:02:21Z</time></trkpt>
<trkpt lat="46.29506" lon="7.31054"><ele>1795.4</ele><time>2017-07-23T11:02:45Z</time></trkpt>
<trkpt lat="46.29507" lon="7.31055"><ele>1795.8</ele><time>2017-07-23T11:03:21Z</time></trkpt>
<trkpt lat="46.29505" lon="7.31053"><ele>1795.4</ele><time>2017-07-23T11:03:27Z</time></trkpt>
<trkpt lat="46.29496" lon="7.31042"><ele>1795.6</ele><time>2017-07-23T11:03:37Z</time></trkpt>
<trkpt lat="46.29493" lon="7.31035"><ele>1796</ele><time>2017-07-23T11:03:41Z</time></trkpt>
<trkpt lat="46.29482" lon="7.31013"><ele>1796.2</ele><time>2017-07-23T11:03:53Z</time></trkpt>
<trkpt lat="46.29469" lon="7.30994"><ele>1797.8</ele><time>2017-07-23T11:04:05Z</time></trkpt>
<trkpt lat="46.29462" lon="7.30981"><ele>1798.4</ele><time>2017-07-23T11:04:13Z</time></trkpt>
<trkpt lat="46.29458" lon="7.30975"><ele>1798.8</ele><time>2017-07-23T11:04:17Z</time></trkpt>
<trkpt lat="46.2945" lon="7.30968"><ele>1799</ele><time>2017-07-23T11:04:24Z</time></trkpt>
<trkpt lat="46.29436" lon="7.30956"><ele>1799.6</ele><time>2017-07-23T11:04:34Z</time></trkpt>
<trkpt lat="46.29432" lon="7.30955"><ele>1799.6</ele><time>2017-07-23T11:04:38Z</time></trkpt>
<trkpt lat="46.29418" lon="7.30937"><ele>1800.6</ele><time>2017-07-23T11:04:50Z</time></trkpt>
<trkpt lat="46.29416" lon="7.30933"><ele>1800.6</ele><time>2017-07-23T11:04:52Z</time></trkpt>
<trkpt lat="46.29415" lon="7.30931"><ele>1800.8</ele><time>2017-07-23T11:04:53Z</time></trkpt>
<trkpt lat="46.2941" lon="7.30921"><ele>1801.2</ele><time>2017-07-23T11:04:58Z</time></trkpt>
<trkpt lat="46.29398" lon="7.309"><ele>1802.8</ele><time>2017-07-23T11:05:10Z</time></trkpt>
<trkpt lat="46.29389" lon="7.30882"><ele>1804.2</ele><time>2017-07-23T11:05:20Z</time></trkpt>
<trkpt lat="46.29377" lon="7.30863"><ele>1805.4</ele><time>2017-07-23T11:05:32Z</time></trkpt>
<trkpt lat="46.2936" lon="7.30857"><ele>1806</ele><time>2017-07-23T11:05:43Z</time></trkpt>
<trkpt lat="46.29342" lon="7.30852"><ele>1807.4</ele><time>2017-07-23T11:05:54Z</time></trkpt>
<trkpt lat="46.29336" lon="7.3085"><ele>1808.2</ele><time>2017-07-23T11:05:58Z</time></trkpt>
<trkpt lat="46.29317" lon="7.30852"><ele>1810.8</ele><time>2017-07-23T11:06:09Z</time></trkpt>
<trkpt lat="46.29298" lon="7.30852"><ele>1812.6</ele><time>2017-07-23T11:06:20Z</time></trkpt>
<trkpt lat="46.29279" lon="7.30854"><ele>1814.6</ele><time>2017-07-23T11:06:30Z</time></trkpt>
<trkpt lat="46.29261" lon="7.3086"><ele>1815.8</ele><time>2017-07-23T11:06:40Z</time></trkpt>
<trkpt lat="46.29248" lon="7.30853"><ele>1816.6</ele><time>2017-07-23T11:06:48Z</time></trkpt>
<trkpt lat="46.29241" lon="7.30827"><ele>1817.2</ele><time>2017-07-23T11:06:59Z</time></trkpt>
<trkpt lat="46.29238" lon="7.30818"><ele>1817.8</ele><time>2017-07-23T11:07:03Z</time></trkpt>
<trkpt lat="46.29232" lon="7.30805"><ele>1818.8</ele><time>2017-07-23T11:07:09Z</time></trkpt>
<trkpt lat="46.2922" lon="7.30783"><ele>1818.8</ele><time>2017-07-23T11:07:20Z</time></trkpt>
<trkpt lat="46.292" lon="7.30781"><ele>1820</ele><time>2017-07-23T11:07:32Z</time></trkpt>
<trkpt lat="46.29182" lon="7.30785"><ele>1821.8</ele><time>2017-07-23T11:07:43Z</time></trkpt>
<trkpt lat="46.29172" lon="7.30781"><ele>1822.8</ele><time>2017-07-23T11:07:49Z</time></trkpt>
<trkpt lat="46.29156" lon="7.30768"><ele>1824.4</ele><time>2017-07-23T11:08:00Z</time></trkpt>
<trkpt lat="46.2914" lon="7.30752"><ele>1828</ele><time>2017-07-23T11:08:11Z</time></trkpt>
<trkpt lat="46.29135" lon="7.30746"><ele>1829.6</ele><time>2017-07-23T11:08:15Z</time></trkpt>
<trkpt lat="46.29132" lon="7.3074"><ele>1831</ele><time>2017-07-23T11:08:19Z</time></trkpt>
<trkpt lat="46.29131" lon="7.30705"><ele>1836.4</ele><time>2017-07-23T11:08:36Z</time></trkpt>
<trkpt lat="46.29129" lon="7.30687"><ele>1837.8</ele><time>2017-07-23T11:08:45Z</time></trkpt>
<trkpt lat="46.29119" lon="7.30665"><ele>1839.6</ele><time>2017-07-23T11:08:58Z</time></trkpt>
<trkpt lat="46.29109" lon="7.30641"><ele>1840.2</ele><time>2017-07-23T11:09:10Z</time></trkpt>
<trkpt lat="46.29107" lon="7.30614"><ele>1842.2</ele><time>2017-07-23T11:09:23Z</time></trkpt>
<trkpt lat="46.29101" lon="7.30589"><ele>1844.2</ele><time>2017-07-23T11:09:36Z</time></trkpt>
<trkpt lat="46.29084" lon="7.30567"><ele>1847.8</ele><time>2017-07-23T11:09:56Z</time></trkpt>
<trkpt lat="46.2908" lon="7.30565"><ele>1848.4</ele><time>2017-07-23T11:10:00Z</time></trkpt>
<trkpt lat="46.29072" lon="7.30562"><ele>1849.2</ele><time>2017-07-23T11:10:06Z</time></trkpt>
<trkpt lat="46.29054" lon="7.30562"><ele>1850</ele><time>2017-07-23T11:10:19Z</time></trkpt>
<trkpt lat="46.29035" lon="7.30562"><ele>1851.2</ele><time>2017-07-23T11:10:31Z</time></trkpt>
<trkpt lat="46.29016" lon="7.30564"><ele>1852.8</ele><time>2017-07-23T11:10:43Z</time></trkpt>
<trkpt lat="46.28996" lon="7.30558"><ele>1855.4</ele><time>2017-07-23T11:10:57Z</time></trkpt>
<trkpt lat="46.28992" lon="7.30551"><ele>1856</ele><time>2017-07-23T11:11:02Z</time></trkpt>
<trkpt lat="46.28983" lon="7.30528"><ele>1858.4</ele><time>2017-07-23T11:11:15Z</time></trkpt>
<trkpt lat="46.28975" lon="7.30504"><ele>1860.8</ele><time>2017-07-23T11:11:28Z</time></trkpt>
<trkpt lat="46.28966" lon="7.3048"><ele>1863.4</ele><time>2017-07-23T11:11:41Z</time></trkpt>
<trkpt lat="46.28957" lon="7.3046"><ele>1865.6</ele><time>2017-07-23T11:11:52Z</time></trkpt>
<trkpt lat="46.28951" lon="7.30444"><ele>1867.2</ele><time>2017-07-23T11:12:01Z</time></trkpt>
<trkpt lat="46.2895" lon="7.3044"><ele>1867.8</ele><time>2017-07-23T11:12:04Z</time></trkpt>
<trkpt lat="46.2895" lon="7.30434"><ele>1867.8</ele><time>2017-07-23T11:12:37Z</time></trkpt>
<trkpt lat="46.2895" lon="7.30434"><ele>1867.8</ele><time>2017-07-23T11:12:50Z</time></trkpt>
<trkpt lat="46.2895" lon="7.30434"><ele>1868</ele><time>2017-07-23T11:12:53Z</time></trkpt>
<trkpt lat="46.2895" lon="7.30434"><ele>1867.8</ele><time>2017-07-23T11:12:55Z</time></trkpt>
<trkpt lat="46.28951" lon="7.30433"><ele>1868</ele><time>2017-07-23T11:13:07Z</time></trkpt>
<trkpt lat="46.28952" lon="7.30422"><ele>1869</ele><time>2017-07-23T11:13:15Z</time></trkpt>
<trkpt lat="46.28952" lon="7.30416"><ele>1869.8</ele><time>2017-07-23T11:13:19Z</time></trkpt>
<trkpt lat="46.28958" lon="7.30382"><ele>1872.2</ele><time>2017-07-23T11:13:39Z</time></trkpt>
<trkpt lat="46.2896" lon="7.30372"><ele>1873.2</ele><time>2017-07-23T11:13:45Z</time></trkpt>
<trkpt lat="46.28962" lon="7.30357"><ele>1874.4</ele><time>2017-07-23T11:13:54Z</time></trkpt>
<trkpt lat="46.2895" lon="7.30341"><ele>1876.2</ele><time>2017-07-23T11:14:09Z</time></trkpt>
<trkpt lat="46.28948" lon="7.30342"><ele>1876.4</ele><time>2017-07-23T11:14:11Z</time></trkpt>
<trkpt lat="46.28937" lon="7.3034"><ele>1876.6</ele><time>2017-07-23T11:14:18Z</time></trkpt>
<trkpt lat="46.28926" lon="7.30325"><ele>1878</ele><time>2017-07-23T11:14:28Z</time></trkpt>
<trkpt lat="46.28913" lon="7.30296"><ele>1881.2</ele><time>2017-07-23T11:14:46Z</time></trkpt>
<trkpt lat="46.2891" lon="7.30288"><ele>1882</ele><time>2017-07-23T11:14:51Z</time></trkpt>
<trkpt lat="46.28907" lon="7.30282"><ele>1882.8</ele><time>2017-07-23T11:14:55Z</time></trkpt>
<trkpt lat="46.28895" lon="7.3026"><ele>1885.6</ele><time>2017-07-23T11:15:10Z</time></trkpt>
<trkpt lat="46.28882" lon="7.3024"><ele>1888.6</ele><time>2017-07-23T11:15:25Z</time></trkpt>
<trkpt lat="46.2887" lon="7.30207"><ele>1892.2</ele><time>2017-07-23T11:15:46Z</time></trkpt>
<trkpt lat="46.28871" lon="7.30202"><ele>1892.8</ele><time>2017-07-23T11:15:49Z</time></trkpt>
<trkpt lat="46.28872" lon="7.30193"><ele>1893.8</ele><time>2017-07-23T11:15:54Z</time></trkpt>
<trkpt lat="46.28875" lon="7.30172"><ele>1896.6</ele><time>2017-07-23T11:16:06Z</time></trkpt>
<trkpt lat="46.28876" lon="7.30159"><ele>1898.2</ele><time>2017-07-23T11:16:13Z</time></trkpt>
<trkpt lat="46.2888" lon="7.30133"><ele>1901.4</ele><time>2017-07-23T11:16:28Z</time></trkpt>
<trkpt lat="46.28884" lon="7.30107"><ele>1904.2</ele><time>2017-07-23T11:16:42Z</time></trkpt>
<trkpt lat="46.28891" lon="7.30081"><ele>1907.8</ele><time>2017-07-23T11:16:57Z</time></trkpt>
<trkpt lat="46.28903" lon="7.30058"><ele>1911.6</ele><time>2017-07-23T11:17:12Z</time></trkpt>
<trkpt lat="46.28907" lon="7.30046"><ele>1912.4</ele><time>2017-07-23T11:17:19Z</time></trkpt>
<trkpt lat="46.28907" lon="7.30037"><ele>1913</ele><time>2017-07-23T11:17:24Z</time></trkpt>
<trkpt lat="46.28907" lon="7.3001"><ele>1914.2</ele><time>2017-07-23T11:17:40Z</time></trkpt>
<trkpt lat="46.28896" lon="7.29988"><ele>1914</ele><time>2017-07-23T11:17:57Z</time></trkpt>
<trkpt lat="46.2888" lon="7.29975"><ele>1914.8</ele><time>2017-07-23T11:18:12Z</time></trkpt>
<trkpt lat="46.28867" lon="7.29963"><ele>1917.2</ele><time>2017-07-23T11:18:24Z</time></trkpt>
<trkpt lat="46.28856" lon="7.29945"><ele>1919.6</ele><time>2017-07-23T11:18:37Z</time></trkpt>
<trkpt lat="46.2884" lon="7.29934"><ele>1921.8</ele><time>2017-07-23T11:18:52Z</time></trkpt>
<trkpt lat="46.28823" lon="7.29924"><ele>1923.4</ele><time>2017-07-23T11:19:07Z</time></trkpt>
<trkpt lat="46.28805" lon="7.29929"><ele>1925.2</ele><time>2017-07-23T11:19:20Z</time></trkpt>
<trkpt lat="46.28787" lon="7.29936"><ele>1927.4</ele><time>2017-07-23T11:19:34Z</time></trkpt>
<trkpt lat="46.28777" lon="7.29944"><ele>1929.2</ele><time>2017-07-23T11:19:44Z</time></trkpt>
<trkpt lat="46.28772" lon="7.29948"><ele>1929.8</ele><time>2017-07-23T11:19:48Z</time></trkpt>
<trkpt lat="46.2875" lon="7.29965"><ele>1932.2</ele><time>2017-07-23T11:20:06Z</time></trkpt>
<trkpt lat="46.28734" lon="7.29979"><ele>1933.8</ele><time>2017-07-23T11:20:20Z</time></trkpt>
<trkpt lat="46.28724" lon="7.29987"><ele>1935.2</ele><time>2017-07-23T11:20:29Z</time></trkpt>
<trkpt lat="46.28722" lon="7.29979"><ele>1935.4</ele><time>2017-07-23T11:20:33Z</time></trkpt>
<trkpt lat="46.28723" lon="7.29952"><ele>1938.2</ele><time>2017-07-23T11:20:46Z</time></trkpt>
<trkpt lat="46.28722" lon="7.29925"><ele>1940.8</ele><time>2017-07-23T11:21:01Z</time></trkpt>
<trkpt lat="46.28712" lon="7.29894"><ele>1944</ele><time>2017-07-23T11:21:20Z</time></trkpt>
<trkpt lat="46.28693" lon="7.29896"><ele>1945.4</ele><time>2017-07-23T11:21:34Z</time></trkpt>
<trkpt lat="46.28687" lon="7.29901"><ele>1946.2</ele><time>2017-07-23T11:21:39Z</time></trkpt>
<trkpt lat="46.28682" lon="7.29906"><ele>1947</ele><time>2017-07-23T11:21:44Z</time></trkpt>
<trkpt lat="46.28665" lon="7.2991"><ele>1948.8</ele><time>2017-07-23T11:21:57Z</time></trkpt>
<trkpt lat="46.28647" lon="7.29913"><ele>1950.4</ele><time>2017-07-23T11:22:10Z</time></trkpt>
<trkpt lat="46.28634" lon="7.2991"><ele>1951.8</ele><time>2017-07-23T11:22:21Z</time></trkpt>
<trkpt lat="46.28633" lon="7.29897"><ele>1952.6</ele><time>2017-07-23T11:22:28Z</time></trkpt>
<trkpt lat="46.28627" lon="7.29864"><ele>1954.8</ele><time>2017-07-23T11:22:45Z</time></trkpt>
<trkpt lat="46.2861" lon="7.29858"><ele>1956.6</ele><time>2017-07-23T11:23:00Z</time></trkpt>
<trkpt lat="46.28602" lon="7.29861"><ele>1957.8</ele><time>2017-07-23T11:23:07Z</time></trkpt>
<trkpt lat="46.28599" lon="7.29859"><ele>1958</ele><time>2017-07-23T11:23:11Z</time></trkpt>
<trkpt lat="46.28599" lon="7.29859"><ele>1958</ele><time>2017-07-23T11:23:48Z</time></trkpt>
<trkpt lat="46.28599" lon="7.29859"><ele>1957.6</ele><time>2017-07-23T11:23:54Z</time></trkpt>
<trkpt lat="46.28599" lon="7.29859"><ele>1956.8</ele><time>2017-07-23T11:23:58Z</time></trkpt>
<trkpt lat="46.28596" lon="7.29853"><ele>1957.4</ele><time>2017-07-23T11:24:10Z</time></trkpt>
<trkpt lat="46.28596" lon="7.29847"><ele>1957.6</ele><time>2017-07-23T11:24:14Z</time></trkpt>
<trkpt lat="46.28598" lon="7.29843"><ele>1958</ele><time>2017-07-23T11:24:17Z</time></trkpt>
<trkpt lat="46.28598" lon="7.29842"><ele>1958.4</ele><time>2017-07-23T11:24:18Z</time></trkpt>
<trkpt lat="46.28605" lon="7.29818"><ele>1961.8</ele><time>2017-07-23T11:24:35Z</time></trkpt>
<trkpt lat="46.28603" lon="7.29801"><ele>1963.2</ele><time>2017-07-23T11:24:45Z</time></trkpt>
<trkpt lat="46.28599" lon="7.29794"><ele>1963.2</ele><time>2017-07-23T11:24:50Z</time></trkpt>
<trkpt lat="46.28596" lon="7.29764"><ele>1963.2</ele><time>2017-07-23T11:25:05Z</time></trkpt>
<trkpt lat="46.2859" lon="7.29755"><ele>1962.8</ele><time>2017-07-23T11:25:18Z</time></trkpt>
<trkpt lat="46.28581" lon="7.29745"><ele>1963.8</ele><time>2017-07-23T11:25:31Z</time></trkpt>
<trkpt lat="46.28575" lon="7.29732"><ele>1965.8</ele><time>2017-07-23T11:25:47Z</time></trkpt>
<trkpt lat="46.28575" lon="7.29724"><ele>1967</ele><time>2017-07-23T11:25:55Z</time></trkpt>
<trkpt lat="46.28576" lon="7.29712"><ele>1968.8</ele><time>2017-07-23T11:26:07Z</time></trkpt>
<trkpt lat="46.28575" lon="7.29696"><ele>1970.4</ele><time>2017-07-23T11:26:18Z</time></trkpt>
<trkpt lat="46.28577" lon="7.29696"><ele>1970.6</ele><time>2017-07-23T11:26:33Z</time></trkpt>
<trkpt lat="46.28577" lon="7.29696"><ele>1970.6</ele><time>2017-07-23T11:26:41Z</time></trkpt>
<trkpt lat="46.28574" lon="7.29682"><ele>1970.6</ele><time>2017-07-23T11:27:05Z</time></trkpt>
<trkpt lat="46.28571" lon="7.29672"><ele>1971</ele><time>2017-07-23T11:27:12Z</time></trkpt>
<trkpt lat="46.28568" lon="7.29662"><ele>1971.4</ele><time>2017-07-23T11:27:20Z</time></trkpt>
<trkpt lat="46.28552" lon="7.29639"><ele>1974.4</ele><time>2017-07-23T11:27:43Z</time></trkpt>
<trkpt lat="46.28541" lon="7.2962"><ele>1977.2</ele><time>2017-07-23T11:27:56Z</time></trkpt>
<trkpt lat="46.28531" lon="7.29597"><ele>1979.8</ele><time>2017-07-23T11:28:11Z</time></trkpt>
<trkpt lat="46.28522" lon="7.29574"><ele>1981.2</ele><time>2017-07-23T11:28:26Z</time></trkpt>
<trkpt lat="46.28517" lon="7.29561"><ele>1982</ele><time>2017-07-23T11:28:34Z</time></trkpt>
<trkpt lat="46.28513" lon="7.29547"><ele>1981.8</ele><time>2017-07-23T11:28:41Z</time></trkpt>
<trkpt lat="46.28513" lon="7.29545"><ele>1981.8</ele><time>2017-07-23T11:28:42Z</time></trkpt>
<trkpt lat="46.285" lon="7.29526"><ele>1982.6</ele><time>2017-07-23T11:28:57Z</time></trkpt>
<trkpt lat="46.28485" lon="7.29508"><ele>1984.4</ele><time>2017-07-23T11:29:12Z</time></trkpt>
<trkpt lat="46.28483" lon="7.29505"><ele>1984.8</ele><time>2017-07-23T11:29:15Z</time></trkpt>
<trkpt lat="46.28469" lon="7.29491"><ele>1985</ele><time>2017-07-23T11:29:49Z</time></trkpt>
<trkpt lat="46.28451" lon="7.29483"><ele>1985</ele><time>2017-07-23T11:30:01Z</time></trkpt>
<trkpt lat="46.2844" lon="7.29479"><ele>1985.4</ele><time>2017-07-23T11:30:11Z</time></trkpt>
<trkpt lat="46.2844" lon="7.29479"><ele>1985.4</ele><time>2017-07-23T11:30:22Z</time></trkpt>
<trkpt lat="46.28424" lon="7.29469"><ele>1985</ele><time>2017-07-23T11:30:50Z</time></trkpt>
<trkpt lat="46.28423" lon="7.29468"><ele>1985.4</ele><time>2017-07-23T11:30:53Z</time></trkpt>
<trkpt lat="46.28416" lon="7.29462"><ele>1985.4</ele><time>2017-07-23T11:31:11Z</time></trkpt>
<trkpt lat="46.28413" lon="7.2946"><ele>1985.6</ele><time>2017-07-23T11:31:15Z</time></trkpt>
<trkpt lat="46.28413" lon="7.2946"><ele>1985.4</ele><time>2017-07-23T11:31:18Z</time></trkpt>
<trkpt lat="46.28413" lon="7.2946"><ele>1985.6</ele><time>2017-07-23T11:31:21Z</time></trkpt>
<trkpt lat="46.28413" lon="7.2946"><ele>1985.8</ele><time>2017-07-23T11:31:25Z</time></trkpt>
<trkpt lat="46.28414" lon="7.2946"><ele>1986.4</ele><time>2017-07-23T11:31:33Z</time></trkpt>
<trkpt lat="46.28412" lon="7.29458"><ele>1987</ele><time>2017-07-23T11:31:45Z</time></trkpt>
<trkpt lat="46.28406" lon="7.29442"><ele>1987.8</ele><time>2017-07-23T11:31:54Z</time></trkpt>
<trkpt lat="46.2841" lon="7.29415"><ele>1988</ele><time>2017-07-23T11:32:04Z</time></trkpt>
<trkpt lat="46.28422" lon="7.29381"><ele>1989.2</ele><time>2017-07-23T11:32:17Z</time></trkpt>
<trkpt lat="46.28426" lon="7.2937"><ele>1989.8</ele><time>2017-07-23T11:32:22Z</time></trkpt>
<trkpt lat="46.28431" lon="7.29351"><ele>1989.8</ele><time>2017-07-23T11:32:30Z</time></trkpt>
<trkpt lat="46.28432" lon="7.29325"><ele>1993.2</ele><time>2017-07-23T11:32:41Z</time></trkpt>
<trkpt lat="46.28442" lon="7.293"><ele>1994</ele><time>2017-07-23T11:32:52Z</time></trkpt>
<trkpt lat="46.28444" lon="7.29295"><ele>1994.4</ele><time>2017-07-23T11:32:54Z</time></trkpt>
<trkpt lat="46.28455" lon="7.29271"><ele>1992.8</ele><time>2017-07-23T11:33:03Z</time></trkpt>
<trkpt lat="46.28461" lon="7.29257"><ele>1991.8</ele><time>2017-07-23T11:33:08Z</time></trkpt>
<trkpt lat="46.28464" lon="7.29246"><ele>1990.6</ele><time>2017-07-23T11:33:11Z</time></trkpt>
<trkpt lat="46.28469" lon="7.29218"><ele>1989.4</ele><time>2017-07-23T11:33:17Z</time></trkpt>
<trkpt lat="46.28473" lon="7.29189"><ele>1987.4</ele><time>2017-07-23T11:33:23Z</time></trkpt>
<trkpt lat="46.28476" lon="7.29163"><ele>1987</ele><time>2017-07-23T11:33:28Z</time></trkpt>
<trkpt lat="46.28482" lon="7.29137"><ele>1987.4</ele><time>2017-07-23T11:33:37Z</time></trkpt>
<trkpt lat="46.28488" lon="7.29111"><ele>1987.8</ele><time>2017-07-23T11:33:44Z</time></trkpt>
<trkpt lat="46.28495" lon="7.29085"><ele>1988.8</ele><time>2017-07-23T11:33:52Z</time></trkpt>
<trkpt lat="46.28499" lon="7.2906"><ele>1988</ele><time>2017-07-23T11:33:58Z</time></trkpt>
<trkpt lat="46.28503" lon="7.2903"><ele>1986.6</ele><time>2017-07-23T11:34:06Z</time></trkpt>
<trkpt lat="46.28498" lon="7.29"><ele>1985.4</ele><time>2017-07-23T11:34:14Z</time></trkpt>
<trkpt lat="46.28496" lon="7.28987"><ele>1985.6</ele><time>2017-07-23T11:34:19Z</time></trkpt>
<trkpt lat="46.28489" lon="7.28976"><ele>1986</ele><time>2017-07-23T11:34:27Z</time></trkpt>
<trkpt lat="46.28488" lon="7.28976"><ele>1986</ele><time>2017-07-23T11:34:28Z</time></trkpt>
<trkpt lat="46.28473" lon="7.2896"><ele>1985</ele><time>2017-07-23T11:34:40Z</time></trkpt>
<trkpt lat="46.28454" lon="7.28949"><ele>1984.2</ele><time>2017-07-23T11:34:49Z</time></trkpt>
<trkpt lat="46.28442" lon="7.28943"><ele>1982.6</ele><time>2017-07-23T11:34:54Z</time></trkpt>
<trkpt lat="46.28437" lon="7.28937"><ele>1981.4</ele><time>2017-07-23T11:34:57Z</time></trkpt>
<trkpt lat="46.2843" lon="7.28937"><ele>1980.4</ele><time>2017-07-23T11:35:01Z</time></trkpt>
<trkpt lat="46.28428" lon="7.28937"><ele>1979.8</ele><time>2017-07-23T11:35:15Z</time></trkpt>
<trkpt lat="46.28424" lon="7.28934"><ele>1978.6</ele><time>2017-07-23T11:35:28Z</time></trkpt>
<trkpt lat="46.28406" lon="7.28924"><ele>1979</ele><time>2017-07-23T11:35:37Z</time></trkpt>
<trkpt lat="46.28402" lon="7.28923"><ele>1979</ele><time>2017-07-23T11:35:39Z</time></trkpt>
<trkpt lat="46.28384" lon="7.28921"><ele>1979.2</ele><time>2017-07-23T11:35:48Z</time></trkpt>
<trkpt lat="46.28374" lon="7.2892"><ele>1978.8</ele><time>2017-07-23T11:35:52Z</time></trkpt>
<trkpt lat="46.28356" lon="7.28912"><ele>1978.2</ele><time>2017-07-23T11:36:02Z</time></trkpt>
<trkpt lat="46.28339" lon="7.289"><ele>1977.2</ele><time>2017-07-23T11:36:15Z</time></trkpt>
<trkpt lat="46.28335" lon="7.2889"><ele>1978.4</ele><time>2017-07-23T11:36:22Z</time></trkpt>
<trkpt lat="46.28334" lon="7.28888"><ele>1979.2</ele><time>2017-07-23T11:36:27Z</time></trkpt>
<trkpt lat="46.28335" lon="7.28878"><ele>1981.8</ele><time>2017-07-23T11:36:40Z</time></trkpt>
<trkpt lat="46.28333" lon="7.28868"><ele>1983.2</ele><time>2017-07-23T11:36:49Z</time></trkpt>
<trkpt lat="46.28332" lon="7.28837"><ele>1985.4</ele><time>2017-07-23T11:37:17Z</time></trkpt>
<trkpt lat="46.28324" lon="7.28811"><ele>1981.8</ele><time>2017-07-23T11:37:25Z</time></trkpt>
<trkpt lat="46.28307" lon="7.28806"><ele>1978.2</ele><time>2017-07-23T11:37:37Z</time></trkpt>
<trkpt lat="46.28293" lon="7.28821"><ele>1971.6</ele><time>2017-07-23T11:37:45Z</time></trkpt>
<trkpt lat="46.28284" lon="7.28826"><ele>1968.8</ele><time>2017-07-23T11:37:49Z</time></trkpt>
<trkpt lat="46.28278" lon="7.28827"><ele>1966.6</ele><time>2017-07-23T11:37:52Z</time></trkpt>
<trkpt lat="46.28272" lon="7.28823"><ele>1965.4</ele><time>2017-07-23T11:37:57Z</time></trkpt>
<trkpt lat="46.2826" lon="7.2882"><ele>1966.2</ele><time>2017-07-23T11:38:05Z</time></trkpt>
<trkpt lat="46.28256" lon="7.2882"><ele>1966.4</ele><time>2017-07-23T11:38:08Z</time></trkpt>
<trkpt lat="46.2824" lon="7.28819"><ele>1966.6</ele><time>2017-07-23T11:38:15Z</time></trkpt>
<trkpt lat="46.28233" lon="7.28824"><ele>1965.6</ele><time>2017-07-23T11:38:18Z</time></trkpt>
<trkpt lat="46.2823" lon="7.28825"><ele>1965.4</ele><time>2017-07-23T11:38:19Z</time></trkpt>
<trkpt lat="46.28222" lon="7.28828"><ele>1964</ele><time>2017-07-23T11:38:22Z</time></trkpt>
<trkpt lat="46.28219" lon="7.2883"><ele>1963.4</ele><time>2017-07-23T11:38:23Z</time></trkpt>
<trkpt lat="46.28214" lon="7.28836"><ele>1963</ele><time>2017-07-23T11:38:25Z</time></trkpt>
<trkpt lat="46.28196" lon="7.28847"><ele>1962</ele><time>2017-07-23T11:38:31Z</time></trkpt>
<trkpt lat="46.28176" lon="7.28854"><ele>1960.4</ele><time>2017-07-23T11:38:36Z</time></trkpt>
<trkpt lat="46.28158" lon="7.28862"><ele>1959</ele><time>2017-07-23T11:38:40Z</time></trkpt>
<trkpt lat="46.28145" lon="7.28873"><ele>1958</ele><time>2017-07-23T11:38:45Z</time></trkpt>
<trkpt lat="46.28126" lon="7.28884"><ele>1956.6</ele><time>2017-07-23T11:38:50Z</time></trkpt>
<trkpt lat="46.28123" lon="7.28886"><ele>1956.2</ele><time>2017-07-23T11:38:51Z</time></trkpt>
<trkpt lat="46.28103" lon="7.28901"><ele>1954.4</ele><time>2017-07-23T11:38:56Z</time></trkpt>
<trkpt lat="46.28099" lon="7.28903"><ele>1954.2</ele><time>2017-07-23T11:38:57Z</time></trkpt>
<trkpt lat="46.28088" lon="7.28911"><ele>1952.6</ele><time>2017-07-23T11:39:00Z</time></trkpt>
<trkpt lat="46.28083" lon="7.28914"><ele>1952</ele><time>2017-07-23T11:39:01Z</time></trkpt>
<trkpt lat="46.28071" lon="7.28924"><ele>1950.4</ele><time>2017-07-23T11:39:04Z</time></trkpt>
<trkpt lat="46.28062" lon="7.28929"><ele>1949.6</ele><time>2017-07-23T11:39:07Z</time></trkpt>
<trkpt lat="46.2806" lon="7.28932"><ele>1949.4</ele><time>2017-07-23T11:39:10Z</time></trkpt>
<trkpt lat="46.28059" lon="7.28934"><ele>1950.6</ele><time>2017-07-23T11:39:15Z</time></trkpt>
<trkpt lat="46.28042" lon="7.28941"><ele>1950</ele><time>2017-07-23T11:39:35Z</time></trkpt>
<trkpt lat="46.28032" lon="7.28945"><ele>1950.4</ele><time>2017-07-23T11:39:41Z</time></trkpt>
<trkpt lat="46.28024" lon="7.28947"><ele>1950.6</ele><time>2017-07-23T11:39:45Z</time></trkpt>
<trkpt lat="46.28007" lon="7.28962"><ele>1951.2</ele><time>2017-07-23T11:39:55Z</time></trkpt>
<trkpt lat="46.27998" lon="7.28969"><ele>1950.6</ele><time>2017-07-23T11:39:59Z</time></trkpt>
<trkpt lat="46.27982" lon="7.28978"><ele>1949</ele><time>2017-07-23T11:40:06Z</time></trkpt>
<trkpt lat="46.27965" lon="7.28989"><ele>1947.2</ele><time>2017-07-23T11:40:11Z</time></trkpt>
<trkpt lat="46.27946" lon="7.28994"><ele>1946</ele><time>2017-07-23T11:40:16Z</time></trkpt>
<trkpt lat="46.27941" lon="7.28996"><ele>1945.8</ele><time>2017-07-23T11:40:18Z</time></trkpt>
<trkpt lat="46.2793" lon="7.28999"><ele>1947.4</ele><time>2017-07-23T11:40:22Z</time></trkpt>
<trkpt lat="46.27915" lon="7.28998"><ele>1948</ele><time>2017-07-23T11:40:30Z</time></trkpt>
<trkpt lat="46.27896" lon="7.28999"><ele>1949</ele><time>2017-07-23T11:40:41Z</time></trkpt>
<trkpt lat="46.27887" lon="7.29"><ele>1949.6</ele><time>2017-07-23T11:40:46Z</time></trkpt>
<trkpt lat="46.27873" lon="7.28998"><ele>1951</ele><time>2017-07-23T11:40:56Z</time></trkpt>
<trkpt lat="46.2787" lon="7.28997"><ele>1951.4</ele><time>2017-07-23T11:40:59Z</time></trkpt>
<trkpt lat="46.27868" lon="7.28996"><ele>1951.6</ele><time>2017-07-23T11:41:01Z</time></trkpt>
<trkpt lat="46.27854" lon="7.28994"><ele>1953</ele><time>2017-07-23T11:41:14Z</time></trkpt>
<trkpt lat="46.27844" lon="7.28994"><ele>1954.4</ele><time>2017-07-23T11:41:22Z</time></trkpt>
<trkpt lat="46.27834" lon="7.28984"><ele>1955.6</ele><time>2017-07-23T11:41:34Z</time></trkpt>
<trkpt lat="46.27832" lon="7.28972"><ele>1956.8</ele><time>2017-07-23T11:41:43Z</time></trkpt>
<trkpt lat="46.27834" lon="7.28954"><ele>1958.4</ele><time>2017-07-23T11:41:56Z</time></trkpt>
<trkpt lat="46.27839" lon="7.28936"><ele>1959.4</ele><time>2017-07-23T11:42:08Z</time></trkpt>
<trkpt lat="46.27841" lon="7.2893"><ele>1960</ele><time>2017-07-23T11:42:14Z</time></trkpt>
<trkpt lat="46.27845" lon="7.28918"><ele>1961</ele><time>2017-07-23T11:42:31Z</time></trkpt>
<trkpt lat="46.27849" lon="7.28895"><ele>1963.4</ele><time>2017-07-23T11:43:08Z</time></trkpt>
<trkpt lat="46.27845" lon="7.28869"><ele>1964.4</ele><time>2017-07-23T11:43:24Z</time></trkpt>
<trkpt lat="46.27835" lon="7.28838"><ele>1962.8</ele><time>2017-07-23T11:43:31Z</time></trkpt>
<trkpt lat="46.27823" lon="7.28811"><ele>1960</ele><time>2017-07-23T11:43:36Z</time></trkpt>
<trkpt lat="46.27818" lon="7.288"><ele>1959.2</ele><time>2017-07-23T11:43:38Z</time></trkpt>
<trkpt lat="46.2781" lon="7.28786"><ele>1958</ele><time>2017-07-23T11:43:41Z</time></trkpt>
<trkpt lat="46.278" lon="7.28764"><ele>1956.4</ele><time>2017-07-23T11:43:45Z</time></trkpt>
<trkpt lat="46.27794" lon="7.28747"><ele>1954.8</ele><time>2017-07-23T11:43:48Z</time></trkpt>
<trkpt lat="46.27788" lon="7.28729"><ele>1953.2</ele><time>2017-07-23T11:43:51Z</time></trkpt>
<trkpt lat="46.27773" lon="7.28719"><ele>1952.6</ele><time>2017-07-23T11:43:55Z</time></trkpt>
<trkpt lat="46.27769" lon="7.28717"><ele>1952.4</ele><time>2017-07-23T11:43:56Z</time></trkpt>
<trkpt lat="46.27759" lon="7.28705"><ele>1951.8</ele><time>2017-07-23T11:43:59Z</time></trkpt>
<trkpt lat="46.27749" lon="7.28683"><ele>1950.6</ele><time>2017-07-23T11:44:03Z</time></trkpt>
<trkpt lat="46.27737" lon="7.28672"><ele>1947.8</ele><time>2017-07-23T11:44:06Z</time></trkpt>
<trkpt lat="46.27716" lon="7.28661"><ele>1945.4</ele><time>2017-07-23T11:44:10Z</time></trkpt>
<trkpt lat="46.27694" lon="7.2865"><ele>1942.8</ele><time>2017-07-23T11:44:14Z</time></trkpt>
<trkpt lat="46.27673" lon="7.28641"><ele>1940.4</ele><time>2017-07-23T11:44:18Z</time></trkpt>
<trkpt lat="46.27654" lon="7.28632"><ele>1938.2</ele><time>2017-07-23T11:44:22Z</time></trkpt>
<trkpt lat="46.27636" lon="7.28618"><ele>1936.2</ele><time>2017-07-23T11:44:26Z</time></trkpt>
<trkpt lat="46.27618" lon="7.28603"><ele>1933.6</ele><time>2017-07-23T11:44:30Z</time></trkpt>
<trkpt lat="46.27598" lon="7.28587"><ele>1930.6</ele><time>2017-07-23T11:44:34Z</time></trkpt>
<trkpt lat="46.27589" lon="7.2858"><ele>1929.2</ele><time>2017-07-23T11:44:36Z</time></trkpt>
<trkpt lat="46.27572" lon="7.28575"><ele>1927</ele><time>2017-07-23T11:44:39Z</time></trkpt>
<trkpt lat="46.27562" lon="7.28576"><ele>1926.2</ele><time>2017-07-23T11:44:41Z</time></trkpt>
<trkpt lat="46.27552" lon="7.28576"><ele>1925.2</ele><time>2017-07-23T11:44:43Z</time></trkpt>
<trkpt lat="46.27547" lon="7.28576"><ele>1924.6</ele><time>2017-07-23T11:44:44Z</time></trkpt>
<trkpt lat="46.27543" lon="7.28576"><ele>1924.4</ele><time>2017-07-23T11:44:45Z</time></trkpt>
<trkpt lat="46.27524" lon="7.28576"><ele>1922.4</ele><time>2017-07-23T11:44:49Z</time></trkpt>
<trkpt lat="46.27509" lon="7.28575"><ele>1918.6</ele><time>2017-07-23T11:44:52Z</time></trkpt>
<trkpt lat="46.27491" lon="7.28578"><ele>1916.8</ele><time>2017-07-23T11:44:55Z</time></trkpt>
<trkpt lat="46.27471" lon="7.28582"><ele>1914.2</ele><time>2017-07-23T11:44:58Z</time></trkpt>
<trkpt lat="46.27465" lon="7.28582"><ele>1913.8</ele><time>2017-07-23T11:44:59Z</time></trkpt>
<trkpt lat="46.27445" lon="7.28575"><ele>1913.4</ele><time>2017-07-23T11:45:03Z</time></trkpt>
<trkpt lat="46.27432" lon="7.2857"><ele>1912.8</ele><time>2017-07-23T11:45:06Z</time></trkpt>
<trkpt lat="46.27411" lon="7.28567"><ele>1915.8</ele><time>2017-07-23T11:45:10Z</time></trkpt>
<trkpt lat="46.27401" lon="7.28557"><ele>1915.8</ele><time>2017-07-23T11:45:13Z</time></trkpt>
<trkpt lat="46.27397" lon="7.28555"><ele>1915.8</ele><time>2017-07-23T11:45:14Z</time></trkpt>
<trkpt lat="46.27381" lon="7.2856"><ele>1917.2</ele><time>2017-07-23T11:45:18Z</time></trkpt>
<trkpt lat="46.27378" lon="7.28561"><ele>1917.4</ele><time>2017-07-23T11:45:19Z</time></trkpt>
<trkpt lat="46.27367" lon="7.28566"><ele>1917.2</ele><time>2017-07-23T11:45:23Z</time></trkpt>
<trkpt lat="46.27356" lon="7.28567"><ele>1916.8</ele><time>2017-07-23T11:45:26Z</time></trkpt>
<trkpt lat="46.27336" lon="7.28558"><ele>1916.6</ele><time>2017-07-23T11:45:31Z</time></trkpt>
<trkpt lat="46.27327" lon="7.28552"><ele>1917.4</ele><time>2017-07-23T11:45:34Z</time></trkpt>
<trkpt lat="46.27314" lon="7.28531"><ele>1918.6</ele><time>2017-07-23T11:45:42Z</time></trkpt>
<trkpt lat="46.27313" lon="7.28529"><ele>1918.6</ele><time>2017-07-23T11:45:43Z</time></trkpt>
<trkpt lat="46.27305" lon="7.28525"><ele>1919.6</ele><time>2017-07-23T11:45:47Z</time></trkpt>
<trkpt lat="46.2729" lon="7.28523"><ele>1921.2</ele><time>2017-07-23T11:45:55Z</time></trkpt>
<trkpt lat="46.27272" lon="7.2851"><ele>1923.4</ele><time>2017-07-23T11:46:06Z</time></trkpt>
<trkpt lat="46.2726" lon="7.28493"><ele>1924.8</ele><time>2017-07-23T11:46:15Z</time></trkpt>
<trkpt lat="46.27242" lon="7.28471"><ele>1926.4</ele><time>2017-07-23T11:46:27Z</time></trkpt>
<trkpt lat="46.27228" lon="7.28452"><ele>1927.8</ele><time>2017-07-23T11:46:38Z</time></trkpt>
<trkpt lat="46.27216" lon="7.28431"><ele>1929.8</ele><time>2017-07-23T11:46:49Z</time></trkpt>
<trkpt lat="46.27203" lon="7.28411"><ele>1931.6</ele><time>2017-07-23T11:47:00Z</time></trkpt>
<trkpt lat="46.27188" lon="7.28396"><ele>1933.2</ele><time>2017-07-23T11:47:11Z</time></trkpt>
<trkpt lat="46.27172" lon="7.28379"><ele>1934.6</ele><time>2017-07-23T11:47:22Z</time></trkpt>
<trkpt lat="46.27157" lon="7.28359"><ele>1936.4</ele><time>2017-07-23T11:47:33Z</time></trkpt>
<trkpt lat="46.27144" lon="7.2834"><ele>1937.6</ele><time>2017-07-23T11:47:43Z</time></trkpt>
<trkpt lat="46.2713" lon="7.28322"><ele>1939.2</ele><time>2017-07-23T11:47:53Z</time></trkpt>
<trkpt lat="46.27119" lon="7.283"><ele>1941.6</ele><time>2017-07-23T11:48:03Z</time></trkpt>
<trkpt lat="46.27108" lon="7.28277"><ele>1943.4</ele><time>2017-07-23T11:48:13Z</time></trkpt>
<trkpt lat="46.27095" lon="7.28244"><ele>1945.8</ele><time>2017-07-23T11:48:26Z</time></trkpt>
<trkpt lat="46.27084" lon="7.28222"><ele>1946.2</ele><time>2017-07-23T11:48:36Z</time></trkpt>
<trkpt lat="46.27071" lon="7.28202"><ele>1947</ele><time>2017-07-23T11:48:46Z</time></trkpt>
<trkpt lat="46.27063" lon="7.28178"><ele>1948.4</ele><time>2017-07-23T11:48:55Z</time></trkpt>
<trkpt lat="46.27052" lon="7.28158"><ele>1950.2</ele><time>2017-07-23T11:49:05Z</time></trkpt>
<trkpt lat="46.27043" lon="7.28134"><ele>1952.2</ele><time>2017-07-23T11:49:16Z</time></trkpt>
<trkpt lat="46.27034" lon="7.28115"><ele>1952.8</ele><time>2017-07-23T11:49:26Z</time></trkpt>
<trkpt lat="46.27019" lon="7.28087"><ele>1956.2</ele><time>2017-07-23T11:49:42Z</time></trkpt>
<trkpt lat="46.27011" lon="7.28063"><ele>1958</ele><time>2017-07-23T11:49:54Z</time></trkpt>
<trkpt lat="46.26999" lon="7.28041"><ele>1959.8</ele><time>2017-07-23T11:50:07Z</time></trkpt>
<trkpt lat="46.2699" lon="7.28019"><ele>1960</ele><time>2017-07-23T11:50:18Z</time></trkpt>
<trkpt lat="46.26989" lon="7.28017"><ele>1959.8</ele><time>2017-07-23T11:50:19Z</time></trkpt>
<trkpt lat="46.26979" lon="7.28017"><ele>1960.4</ele><time>2017-07-23T11:50:31Z</time></trkpt>
<trkpt lat="46.26979" lon="7.28017"><ele>1960.2</ele><time>2017-07-23T11:50:35Z</time></trkpt>
<trkpt lat="46.26981" lon="7.28009"><ele>1959</ele><time>2017-07-23T11:50:54Z</time></trkpt>
<trkpt lat="46.26985" lon="7.27984"><ele>1959.2</ele><time>2017-07-23T11:51:03Z</time></trkpt>
<trkpt lat="46.26984" lon="7.27978"><ele>1959.4</ele><time>2017-07-23T11:51:05Z</time></trkpt>
<trkpt lat="46.26982" lon="7.2797"><ele>1960</ele><time>2017-07-23T11:51:09Z</time></trkpt>
<trkpt lat="46.26973" lon="7.27952"><ele>1962.4</ele><time>2017-07-23T11:51:20Z</time></trkpt>
<trkpt lat="46.26981" lon="7.27938"><ele>1962.8</ele><time>2017-07-23T11:51:30Z</time></trkpt>
<trkpt lat="46.26989" lon="7.27931"><ele>1962.2</ele><time>2017-07-23T11:51:35Z</time></trkpt>
<trkpt lat="46.26992" lon="7.27898"><ele>1963.6</ele><time>2017-07-23T11:51:47Z</time></trkpt>
<trkpt lat="46.26992" lon="7.27881"><ele>1963.8</ele><time>2017-07-23T11:51:53Z</time></trkpt>
<trkpt lat="46.26984" lon="7.27856"><ele>1964.8</ele><time>2017-07-23T11:52:03Z</time></trkpt>
<trkpt lat="46.26982" lon="7.27835"><ele>1965.2</ele><time>2017-07-23T11:52:11Z</time></trkpt>
<trkpt lat="46.26992" lon="7.27812"><ele>1965.2</ele><time>2017-07-23T11:52:19Z</time></trkpt>
<trkpt lat="46.26992" lon="7.27787"><ele>1966.8</ele><time>2017-07-23T11:52:29Z</time></trkpt>
<trkpt lat="46.2699" lon="7.27779"><ele>1967.2</ele><time>2017-07-23T11:52:32Z</time></trkpt>
<trkpt lat="46.26985" lon="7.27765"><ele>1967.6</ele><time>2017-07-23T11:52:37Z</time></trkpt>
<trkpt lat="46.26971" lon="7.27739"><ele>1968.4</ele><time>2017-07-23T11:52:47Z</time></trkpt>
<trkpt lat="46.26958" lon="7.27718"><ele>1969.2</ele><time>2017-07-23T11:52:55Z</time></trkpt>
<trkpt lat="46.26949" lon="7.27708"><ele>1969.8</ele><time>2017-07-23T11:53:00Z</time></trkpt>
<trkpt lat="46.26929" lon="7.2771"><ele>1971</ele><time>2017-07-23T11:53:08Z</time></trkpt>
<trkpt lat="46.26911" lon="7.27705"><ele>1971.6</ele><time>2017-07-23T11:53:16Z</time></trkpt>
<trkpt lat="46.26902" lon="7.27683"><ele>1972.2</ele><time>2017-07-23T11:53:23Z</time></trkpt>
<trkpt lat="46.26893" lon="7.27659"><ele>1973.2</ele><time>2017-07-23T11:53:31Z</time></trkpt>
<trkpt lat="46.26884" lon="7.27638"><ele>1974.4</ele><time>2017-07-23T11:53:38Z</time></trkpt>
<trkpt lat="46.26882" lon="7.27627"><ele>1974.6</ele><time>2017-07-23T11:53:41Z</time></trkpt>
<trkpt lat="46.26874" lon="7.27601"><ele>1975.8</ele><time>2017-07-23T11:53:48Z</time></trkpt>
<trkpt lat="46.26861" lon="7.27578"><ele>1976.8</ele><time>2017-07-23T11:53:55Z</time></trkpt>
<trkpt lat="46.26836" lon="7.2756"><ele>1978.6</ele><time>2017-07-23T11:54:06Z</time></trkpt>
<trkpt lat="46.26817" lon="7.27556"><ele>1979.4</ele><time>2017-07-23T11:54:13Z</time></trkpt>
<trkpt lat="46.26799" lon="7.2755"><ele>1980.4</ele><time>2017-07-23T11:54:21Z</time></trkpt>
<trkpt lat="46.26783" lon="7.27535"><ele>1981.2</ele><time>2017-07-23T11:54:31Z</time></trkpt>
<trkpt lat="46.26765" lon="7.27525"><ele>1982.4</ele><time>2017-07-23T11:54:40Z</time></trkpt>
<trkpt lat="46.26747" lon="7.27515"><ele>1983.2</ele><time>2017-07-23T11:54:49Z</time></trkpt>
<trkpt lat="46.26736" lon="7.27512"><ele>1983.6</ele><time>2017-07-23T11:54:54Z</time></trkpt>
<trkpt lat="46.26717" lon="7.27511"><ele>1984.6</ele><time>2017-07-23T11:55:03Z</time></trkpt>
<trkpt lat="46.26698" lon="7.27495"><ele>1986.2</ele><time>2017-07-23T11:55:15Z</time></trkpt>
<trkpt lat="46.2668" lon="7.27483"><ele>1986.6</ele><time>2017-07-23T11:55:25Z</time></trkpt>
<trkpt lat="46.26663" lon="7.2747"><ele>1985.6</ele><time>2017-07-23T11:55:31Z</time></trkpt>
<trkpt lat="46.26646" lon="7.27461"><ele>1985</ele><time>2017-07-23T11:55:39Z</time></trkpt>
<trkpt lat="46.26642" lon="7.2746"><ele>1985.2</ele><time>2017-07-23T11:55:42Z</time></trkpt>
<trkpt lat="46.26633" lon="7.27454"><ele>1985.2</ele><time>2017-07-23T11:55:49Z</time></trkpt>
<trkpt lat="46.26628" lon="7.27449"><ele>1985.4</ele><time>2017-07-23T11:55:52Z</time></trkpt>
<trkpt lat="46.26623" lon="7.27445"><ele>1985.2</ele><time>2017-07-23T11:55:56Z</time></trkpt>
<trkpt lat="46.26624" lon="7.27429"><ele>1986</ele><time>2017-07-23T11:56:27Z</time></trkpt>
<trkpt lat="46.26625" lon="7.27426"><ele>1986.4</ele><time>2017-07-23T11:56:30Z</time></trkpt>
<trkpt lat="46.26623" lon="7.27434"><ele>1986</ele><time>2017-07-23T11:56:51Z</time></trkpt>
<trkpt lat="46.26625" lon="7.27438"><ele>1985.4</ele><time>2017-07-23T11:56:56Z</time></trkpt>
<trkpt lat="46.26624" lon="7.27436"><ele>1985</ele><time>2017-07-23T11:57:02Z</time></trkpt>
<trkpt lat="46.26627" lon="7.27426"><ele>1984.4</ele><time>2017-07-23T11:57:10Z</time></trkpt>
<trkpt lat="46.26628" lon="7.27417"><ele>1984</ele><time>2017-07-23T11:57:16Z</time></trkpt>
<trkpt lat="46.26631" lon="7.27414"><ele>1983.6</ele><time>2017-07-23T11:57:20Z</time></trkpt>
<trkpt lat="46.26632" lon="7.27413"><ele>1983.4</ele><time>2017-07-23T11:57:22Z</time></trkpt>
<trkpt lat="46.26636" lon="7.27406"><ele>1983.6</ele><time>2017-07-23T11:57:31Z</time></trkpt>
<trkpt lat="46.26639" lon="7.27403"><ele>1983.4</ele><time>2017-07-23T11:57:37Z</time></trkpt>
<trkpt lat="46.2664" lon="7.274"><ele>1983.8</ele><time>2017-07-23T11:57:45Z</time></trkpt>
<trkpt lat="46.26639" lon="7.274"><ele>1984</ele><time>2017-07-23T11:57:46Z</time></trkpt>
<trkpt lat="46.26639" lon="7.27399"><ele>1984</ele><time>2017-07-23T11:57:47Z</time></trkpt>
<trkpt lat="46.26638" lon="7.274"><ele>1984.4</ele><time>2017-07-23T11:57:49Z</time></trkpt>
<trkpt lat="46.26635" lon="7.274"><ele>1984.6</ele><time>2017-07-23T11:57:53Z</time></trkpt>
<trkpt lat="46.26633" lon="7.27398"><ele>1986.6</ele><time>2017-07-23T11:58:01Z</time></trkpt>
<trkpt lat="46.26632" lon="7.27397"><ele>1986.8</ele><time>2017-07-23T11:58:06Z</time></trkpt>
<trkpt lat="46.26634" lon="7.27391"><ele>1987</ele><time>2017-07-23T11:58:23Z</time></trkpt>
<trkpt lat="46.26631" lon="7.27389"><ele>1987.4</ele><time>2017-07-23T11:58:29Z</time></trkpt>
<trkpt lat="46.26628" lon="7.27385"><ele>1988</ele><time>2017-07-23T11:58:35Z</time></trkpt>
<trkpt lat="46.26628" lon="7.27383"><ele>1988.4</ele><time>2017-07-23T11:58:37Z</time></trkpt>
<trkpt lat="46.26628" lon="7.27382"><ele>1988.4</ele><time>2017-07-23T11:58:38Z</time></trkpt>
<trkpt lat="46.26627" lon="7.27382"><ele>1988.6</ele><time>2017-07-23T11:58:39Z</time></trkpt>
<trkpt lat="46.26626" lon="7.2738"><ele>1989.2</ele><time>2017-07-23T11:58:43Z</time></trkpt>
<trkpt lat="46.26625" lon="7.27378"><ele>1990</ele><time>2017-07-23T11:58:48Z</time></trkpt>
<trkpt lat="46.26625" lon="7.27378"><ele>1990</ele><time>2017-07-23T11:58:50Z</time></trkpt>
<trkpt lat="46.26625" lon="7.27377"><ele>1990.4</ele><time>2017-07-23T11:58:52Z</time></trkpt>
<trkpt lat="46.26625" lon="7.27377"><ele>1990.8</ele><time>2017-07-23T11:58:54Z</time></trkpt>
<trkpt lat="46.26617" lon="7.27356"><ele>1995</ele><time>2017-07-23T11:59:24Z</time></trkpt>
<trkpt lat="46.26614" lon="7.27344"><ele>1996.4</ele><time>2017-07-23T11:59:38Z</time></trkpt>
<trkpt lat="46.26614" lon="7.27344"><ele>1996.4</ele><time>2017-07-23T11:59:39Z</time></trkpt>
<trkpt lat="46.26613" lon="7.27332"><ele>1997</ele><time>2017-07-23T11:59:50Z</time></trkpt>
<trkpt lat="46.26612" lon="7.27325"><ele>1997.6</ele><time>2017-07-23T11:59:56Z</time></trkpt>
<trkpt lat="46.26612" lon="7.27322"><ele>1997.8</ele><time>2017-07-23T11:59:58Z</time></trkpt>
<trkpt lat="46.26608" lon="7.27312"><ele>2001</ele><time>2017-07-23T12:00:30Z</time></trkpt>
<trkpt lat="46.26608" lon="7.27312"><ele>2000.8</ele><time>2017-07-23T12:00:31Z</time></trkpt>
<trkpt lat="46.26608" lon="7.27313"><ele>1999.6</ele><time>2017-07-23T12:00:45Z</time></trkpt>
<trkpt lat="46.26609" lon="7.27313"><ele>1999.6</ele><time>2017-07-23T12:00:51Z</time></trkpt>
<trkpt lat="46.26609" lon="7.27311"><ele>2000.4</ele><time>2017-07-23T12:01:27Z</time></trkpt>
<trkpt lat="46.26609" lon="7.27311"><ele>2000.4</ele><time>2017-07-23T12:01:29Z</time></trkpt>
<trkpt lat="46.26609" lon="7.27311"><ele>2000.4</ele><time>2017-07-23T12:01:46Z</time></trkpt>
<trkpt lat="46.26609" lon="7.2731"><ele>1998.6</ele><time>2017-07-23T12:01:58Z</time></trkpt>
<trkpt lat="46.26609" lon="7.27311"><ele>1998.2</ele><time>2017-07-23T12:02:07Z</time></trkpt>
<trkpt lat="46.26609" lon="7.27311"><ele>1998</ele><time>2017-07-23T12:02:10Z</time></trkpt>
<trkpt lat="46.26609" lon="7.27311"><ele>1998.2</ele><time>2017-07-23T12:02:11Z</time></trkpt>
<trkpt lat="46.26609" lon="7.27311"><ele>1998.2</ele><time>2017-07-23T12:02:12Z</time></trkpt>
<trkpt lat="46.26609" lon="7.27311"><ele>1998.4</ele><time>2017-07-23T12:02:19Z</time></trkpt>
<trkpt lat="46.26608" lon="7.27312"><ele>1998.6</ele><time>2017-07-23T12:02:30Z</time></trkpt>
<trkpt lat="46.26609" lon="7.27312"><ele>1998.8</ele><time>2017-07-23T12:02:38Z</time></trkpt>
<trkpt lat="46.26608" lon="7.27312"><ele>1999</ele><time>2017-07-23T12:02:44Z</time></trkpt>
<trkpt lat="46.26608" lon="7.27311"><ele>1999</ele><time>2017-07-23T12:02:50Z</time></trkpt>
<trkpt lat="46.26609" lon="7.27311"><ele>1999</ele><time>2017-07-23T12:02:57Z</time></trkpt>
<trkpt lat="46.26609" lon="7.2731"><ele>1998.6</ele><time>2017-07-23T12:03:10Z</time></trkpt>
<trkpt lat="46.26609" lon="7.27311"><ele>1998.6</ele><time>2017-07-23T12:03:12Z</time></trkpt>
<trkpt lat="46.26609" lon="7.27311"><ele>1998.4</ele><time>2017-07-23T12:03:19Z</time></trkpt>
<trkpt lat="46.26608" lon="7.27312"><ele>1999.8</ele><time>2017-07-23T12:03:32Z</time></trkpt>
<trkpt lat="46.26608" lon="7.27312"><ele>1999.8</ele><time>2017-07-23T12:03:49Z</time></trkpt>
<trkpt lat="46.26608" lon="7.27312"><ele>1999.6</ele><time>2017-07-23T12:03:54Z</time></trkpt>
<trkpt lat="46.26608" lon="7.27312"><ele>1999.2</ele><time>2017-07-23T12:03:58Z</time></trkpt>
<trkpt lat="46.26608" lon="7.27312"><ele>1999</ele><time>2017-07-23T12:04:01Z</time></trkpt>
<trkpt lat="46.26608" lon="7.27312"><ele>1999</ele><time>2017-07-23T12:04:04Z</time></trkpt>
<trkpt lat="46.26608" lon="7.27312"><ele>1999</ele><time>2017-07-23T12:04:14Z</time></trkpt>
<trkpt lat="46.26608" lon="7.27312"><ele>1999</ele><time>2017-07-23T12:04:22Z</time></trkpt>
<trkpt lat="46.26608" lon="7.27312"><ele>1999</ele><time>2017-07-23T12:04:26Z</time></trkpt>
<trkpt lat="46.26608" lon="7.27312"><ele>1999</ele><time>2017-07-23T12:04:27Z</time></trkpt>
<trkpt lat="46.26608" lon="7.27312"><ele>1999</ele><time>2017-07-23T12:04:29Z</time></trkpt>
<trkpt lat="46.26608" lon="7.27313"><ele>1999.2</ele><time>2017-07-23T12:04:33Z</time></trkpt>
<trkpt lat="46.26608" lon="7.27313"><ele>1999.4</ele><time>2017-07-23T12:04:55Z</time></trkpt>
<trkpt lat="46.26607" lon="7.27312"><ele>1999.8</ele><time>2017-07-23T12:05:17Z</time></trkpt>
<trkpt lat="46.26607" lon="7.27312"><ele>1999.8</ele><time>2017-07-23T12:05:27Z</time></trkpt>
<trkpt lat="46.26608" lon="7.27311"><ele>1999.2</ele><time>2017-07-23T12:05:42Z</time></trkpt>
<trkpt lat="46.26608" lon="7.27311"><ele>1999.8</ele><time>2017-07-23T12:06:06Z</time></trkpt>
<trkpt lat="46.26608" lon="7.27312"><ele>1999.6</ele><time>2017-07-23T12:06:07Z</time></trkpt>
<trkpt lat="46.26607" lon="7.27312"><ele>1999.6</ele><time>2017-07-23T12:06:08Z</time></trkpt>
<trkpt lat="46.26607" lon="7.27312"><ele>1999.6</ele><time>2017-07-23T12:06:14Z</time></trkpt>
<trkpt lat="46.26607" lon="7.27312"><ele>1999.2</ele><time>2017-07-23T12:06:32Z</time></trkpt>
<trkpt lat="46.26608" lon="7.27312"><ele>1999.2</ele><time>2017-07-23T12:06:48Z</time></trkpt>
<trkpt lat="46.26609" lon="7.27312"><ele>1998.8</ele><time>2017-07-23T12:07:03Z</time></trkpt>
<trkpt lat="46.26609" lon="7.27312"><ele>1998.6</ele><time>2017-07-23T12:07:08Z</time></trkpt>
<trkpt lat="46.26609" lon="7.27311"><ele>1998.6</ele><time>2017-07-23T12:07:14Z</time></trkpt>
<trkpt lat="46.26609" lon="7.27311"><ele>1998.6</ele><time>2017-07-23T12:07:19Z</time></trkpt>
<trkpt lat="46.2661" lon="7.2731"><ele>1998.6</ele><time>2017-07-23T12:07:41Z</time></trkpt>
<trkpt lat="46.2661" lon="7.2731"><ele>1999</ele><time>2017-07-23T12:07:45Z</time></trkpt>
<trkpt lat="46.2661" lon="7.2731"><ele>1999</ele><time>2017-07-23T12:07:46Z</time></trkpt>
<trkpt lat="46.2661" lon="7.2731"><ele>1999</ele><time>2017-07-23T12:07:47Z</time></trkpt>
<trkpt lat="46.2661" lon="7.2731"><ele>1999</ele><time>2017-07-23T12:07:50Z</time></trkpt>
<trkpt lat="46.2661" lon="7.27311"><ele>1999</ele><time>2017-07-23T12:07:53Z</time></trkpt>
<trkpt lat="46.2661" lon="7.27311"><ele>1999</ele><time>2017-07-23T12:07:59Z</time></trkpt>
<trkpt lat="46.26609" lon="7.27311"><ele>1999</ele><time>2017-07-23T12:08:02Z</time></trkpt>
<trkpt lat="46.2661" lon="7.27311"><ele>1999.4</ele><time>2017-07-23T12:08:09Z</time></trkpt>
<trkpt lat="46.26609" lon="7.27311"><ele>1999.2</ele><time>2017-07-23T12:08:15Z</time></trkpt>
<trkpt lat="46.26609" lon="7.27311"><ele>1999.4</ele><time>2017-07-23T12:08:22Z</time></trkpt>
<trkpt lat="46.26609" lon="7.27311"><ele>1999.4</ele><time>2017-07-23T12:08:24Z</time></trkpt>
<trkpt lat="46.26609" lon="7.27311"><ele>1999.4</ele><time>2017-07-23T12:08:25Z</time></trkpt>
<trkpt lat="46.26609" lon="7.27311"><ele>1999.4</ele><time>2017-07-23T12:08:33Z</time></trkpt>
<trkpt lat="46.26609" lon="7.27311"><ele>1999.4</ele><time>2017-07-23T12:08:34Z</time></trkpt>
<trkpt lat="46.26609" lon="7.27311"><ele>1999.4</ele><time>2017-07-23T12:08:35Z</time></trkpt>
<trkpt lat="46.26609" lon="7.27311"><ele>1999.4</ele><time>2017-07-23T12:08:36Z</time></trkpt>
<trkpt lat="46.2661" lon="7.2731"><ele>1999</ele><time>2017-07-23T12:09:05Z</time></trkpt>
<trkpt lat="46.2661" lon="7.2731"><ele>1999</ele><time>2017-07-23T12:09:08Z</time></trkpt>
<trkpt lat="46.26611" lon="7.27308"><ele>1998.6</ele><time>2017-07-23T12:09:22Z</time></trkpt>
<trkpt lat="46.26611" lon="7.2731"><ele>1999.2</ele><time>2017-07-23T12:09:38Z</time></trkpt>
<trkpt lat="46.26609" lon="7.2731"><ele>1999.8</ele><time>2017-07-23T12:09:53Z</time></trkpt>
<trkpt lat="46.26609" lon="7.27311"><ele>2000.4</ele><time>2017-07-23T12:10:02Z</time></trkpt>
<trkpt lat="46.26608" lon="7.27312"><ele>2001.6</ele><time>2017-07-23T12:10:13Z</time></trkpt>
<trkpt lat="46.26608" lon="7.27312"><ele>2001.6</ele><time>2017-07-23T12:10:17Z</time></trkpt>
<trkpt lat="46.26608" lon="7.27312"><ele>2001.6</ele><time>2017-07-23T12:10:19Z</time></trkpt>
<trkpt lat="46.26606" lon="7.27313"><ele>1999.6</ele><time>2017-07-23T12:10:57Z</time></trkpt>
<trkpt lat="46.26607" lon="7.27313"><ele>1999.6</ele><time>2017-07-23T12:11:07Z</time></trkpt>
<trkpt lat="46.26606" lon="7.27313"><ele>1999.8</ele><time>2017-07-23T12:11:10Z</time></trkpt>
<trkpt lat="46.26606" lon="7.27313"><ele>2000</ele><time>2017-07-23T12:11:20Z</time></trkpt>
<trkpt lat="46.26606" lon="7.27313"><ele>2000.2</ele><time>2017-07-23T12:11:40Z</time></trkpt>
<trkpt lat="46.26606" lon="7.27314"><ele>1999.8</ele><time>2017-07-23T12:12:03Z</time></trkpt>
<trkpt lat="46.26607" lon="7.27314"><ele>1999.8</ele><time>2017-07-23T12:12:06Z</time></trkpt>
<trkpt lat="46.26607" lon="7.27314"><ele>2000</ele><time>2017-07-23T12:12:33Z</time></trkpt>
<trkpt lat="46.26607" lon="7.27313"><ele>2000.4</ele><time>2017-07-23T12:12:53Z</time></trkpt>
<trkpt lat="46.26607" lon="7.27311"><ele>2000</ele><time>2017-07-23T12:13:08Z</time></trkpt>
<trkpt lat="46.26606" lon="7.27312"><ele>2000</ele><time>2017-07-23T12:13:12Z</time></trkpt>
<trkpt lat="46.26607" lon="7.27312"><ele>1999.6</ele><time>2017-07-23T12:13:23Z</time></trkpt>
<trkpt lat="46.26607" lon="7.27312"><ele>1999.6</ele><time>2017-07-23T12:13:25Z</time></trkpt>
<trkpt lat="46.26607" lon="7.27312"><ele>1999.2</ele><time>2017-07-23T12:13:36Z</time></trkpt>
<trkpt lat="46.26607" lon="7.27311"><ele>1999</ele><time>2017-07-23T12:13:50Z</time></trkpt>
<trkpt lat="46.26607" lon="7.27312"><ele>1999</ele><time>2017-07-23T12:13:53Z</time></trkpt>
<trkpt lat="46.26607" lon="7.27312"><ele>1999</ele><time>2017-07-23T12:13:57Z</time></trkpt>
<trkpt lat="46.26607" lon="7.27312"><ele>1998.4</ele><time>2017-07-23T12:14:08Z</time></trkpt>
<trkpt lat="46.26607" lon="7.27312"><ele>1998.4</ele><time>2017-07-23T12:14:09Z</time></trkpt>
<trkpt lat="46.26607" lon="7.27312"><ele>1998.4</ele><time>2017-07-23T12:14:22Z</time></trkpt>
<trkpt lat="46.26607" lon="7.27312"><ele>1998.8</ele><time>2017-07-23T12:14:40Z</time></trkpt>
<trkpt lat="46.26607" lon="7.27312"><ele>1999</ele><time>2017-07-23T12:14:55Z</time></trkpt>
<trkpt lat="46.26608" lon="7.27312"><ele>1998.8</ele><time>2017-07-23T12:15:08Z</time></trkpt>
<trkpt lat="46.26607" lon="7.27312"><ele>1998.8</ele><time>2017-07-23T12:15:15Z</time></trkpt>
<trkpt lat="46.26607" lon="7.27312"><ele>1998.8</ele><time>2017-07-23T12:15:17Z</time></trkpt>
<trkpt lat="46.26607" lon="7.27312"><ele>1998.8</ele><time>2017-07-23T12:15:19Z</time></trkpt>
<trkpt lat="46.26607" lon="7.27312"><ele>1998.8</ele><time>2017-07-23T12:15:27Z</time></trkpt>
<trkpt lat="46.26607" lon="7.27312"><ele>1998.8</ele><time>2017-07-23T12:15:28Z</time></trkpt>
<trkpt lat="46.26608" lon="7.27311"><ele>1998.8</ele><time>2017-07-23T12:15:36Z</time></trkpt>
<trkpt lat="46.2661" lon="7.27311"><ele>1998.6</ele><time>2017-07-23T12:15:41Z</time></trkpt>
<trkpt lat="46.2661" lon="7.2731"><ele>1998.4</ele><time>2017-07-23T12:15:43Z</time></trkpt>
<trkpt lat="46.2661" lon="7.27309"><ele>1998.4</ele><time>2017-07-23T12:15:48Z</time></trkpt>
<trkpt lat="46.2661" lon="7.2731"><ele>1998.2</ele><time>2017-07-23T12:15:53Z</time></trkpt>
<trkpt lat="46.2661" lon="7.2731"><ele>1998.6</ele><time>2017-07-23T12:16:01Z</time></trkpt>
<trkpt lat="46.26609" lon="7.2731"><ele>1998.6</ele><time>2017-07-23T12:16:02Z</time></trkpt>
<trkpt lat="46.26609" lon="7.27311"><ele>1999</ele><time>2017-07-23T12:16:03Z</time></trkpt>
<trkpt lat="46.26609" lon="7.27311"><ele>1998.8</ele><time>2017-07-23T12:16:07Z</time></trkpt>
<trkpt lat="46.26609" lon="7.2731"><ele>1998.6</ele><time>2017-07-23T12:16:23Z</time></trkpt>
<trkpt lat="46.26609" lon="7.2731"><ele>1998.8</ele><time>2017-07-23T12:16:26Z</time></trkpt>
<trkpt lat="46.26608" lon="7.27311"><ele>1998.6</ele><time>2017-07-23T12:16:34Z</time></trkpt>
<trkpt lat="46.26608" lon="7.27311"><ele>1998.6</ele><time>2017-07-23T12:16:40Z</time></trkpt>
<trkpt lat="46.26608" lon="7.27311"><ele>1998.6</ele><time>2017-07-23T12:16:41Z</time></trkpt>
<trkpt lat="46.26608" lon="7.27311"><ele>1998.6</ele><time>2017-07-23T12:16:47Z</time></trkpt>
<trkpt lat="46.26608" lon="7.27311"><ele>1998.6</ele><time>2017-07-23T12:16:56Z</time></trkpt>
<trkpt lat="46.26608" lon="7.27311"><ele>1998.4</ele><time>2017-07-23T12:17:02Z</time></trkpt>
<trkpt lat="46.26608" lon="7.27311"><ele>1998.6</ele><time>2017-07-23T12:17:08Z</time></trkpt>
<trkpt lat="46.26608" lon="7.27311"><ele>1998.6</ele><time>2017-07-23T12:17:13Z</time></trkpt>
<trkpt lat="46.26607" lon="7.27311"><ele>1998.6</ele><time>2017-07-23T12:17:19Z</time></trkpt>
<trkpt lat="46.26607" lon="7.27311"><ele>1998.8</ele><time>2017-07-23T12:17:22Z</time></trkpt>
<trkpt lat="46.26607" lon="7.27311"><ele>1998.8</ele><time>2017-07-23T12:17:26Z</time></trkpt>
<trkpt lat="46.26607" lon="7.27311"><ele>1998.6</ele><time>2017-07-23T12:17:29Z</time></trkpt>
<trkpt lat="46.26607" lon="7.27311"><ele>1998.6</ele><time>2017-07-23T12:17:30Z</time></trkpt>
<trkpt lat="46.26607" lon="7.27311"><ele>1998.6</ele><time>2017-07-23T12:17:34Z</time></trkpt>
<trkpt lat="46.26607" lon="7.27311"><ele>1998.6</ele><time>2017-07-23T12:17:47Z</time></trkpt>
<trkpt lat="46.26607" lon="7.27311"><ele>1998.6</ele><time>2017-07-23T12:17:50Z</time></trkpt>
<trkpt lat="46.26607" lon="7.27311"><ele>1998.6</ele><time>2017-07-23T12:17:51Z</time></trkpt>
<trkpt lat="46.26607" lon="7.27311"><ele>1998.6</ele><time>2017-07-23T12:17:56Z</time></trkpt>
<trkpt lat="46.26607" lon="7.27311"><ele>1998.6</ele><time>2017-07-23T12:17:58Z</time></trkpt>
<trkpt lat="46.26607" lon="7.27311"><ele>1998.8</ele><time>2017-07-23T12:18:05Z</time></trkpt>
<trkpt lat="46.26607" lon="7.27311"><ele>1998.8</ele><time>2017-07-23T12:18:13Z</time></trkpt>
<trkpt lat="46.26607" lon="7.27311"><ele>1999.2</ele><time>2017-07-23T12:18:39Z</time></trkpt>
<trkpt lat="46.26607" lon="7.27311"><ele>1999.2</ele><time>2017-07-23T12:18:41Z</time></trkpt>
<trkpt lat="46.26607" lon="7.27311"><ele>1999.2</ele><time>2017-07-23T12:18:43Z</time></trkpt>
<trkpt lat="46.26607" lon="7.27311"><ele>1999.6</ele><time>2017-07-23T12:18:54Z</time></trkpt>
<trkpt lat="46.26608" lon="7.27311"><ele>1999.6</ele><time>2017-07-23T12:19:00Z</time></trkpt>
<trkpt lat="46.26608" lon="7.27311"><ele>1999.4</ele><time>2017-07-23T12:19:03Z</time></trkpt>
<trkpt lat="46.26608" lon="7.27311"><ele>1999.4</ele><time>2017-07-23T12:19:05Z</time></trkpt>
<trkpt lat="46.26609" lon="7.27311"><ele>1999.4</ele><time>2017-07-23T12:19:07Z</time></trkpt>
<trkpt lat="46.26609" lon="7.27311"><ele>1999.4</ele><time>2017-07-23T12:19:12Z</time></trkpt>
<trkpt lat="46.26609" lon="7.2731"><ele>1999.2</ele><time>2017-07-23T12:19:20Z</time></trkpt>
<trkpt lat="46.2661" lon="7.27309"><ele>1998.8</ele><time>2017-07-23T12:19:34Z</time></trkpt>
<trkpt lat="46.2661" lon="7.27309"><ele>1999</ele><time>2017-07-23T12:19:37Z</time></trkpt>
<trkpt lat="46.26609" lon="7.2731"><ele>1998.8</ele><time>2017-07-23T12:19:41Z</time></trkpt>
<trkpt lat="46.2661" lon="7.2731"><ele>1998.8</ele><time>2017-07-23T12:19:42Z</time></trkpt>
<trkpt lat="46.26609" lon="7.27309"><ele>1999.8</ele><time>2017-07-23T12:19:53Z</time></trkpt>
<trkpt lat="46.26609" lon="7.2731"><ele>2000</ele><time>2017-07-23T12:19:56Z</time></trkpt>
<trkpt lat="46.26609" lon="7.27311"><ele>2000</ele><time>2017-07-23T12:20:03Z</time></trkpt>
<trkpt lat="46.26609" lon="7.2731"><ele>2000</ele><time>2017-07-23T12:20:12Z</time></trkpt>
<trkpt lat="46.26609" lon="7.2731"><ele>2000</ele><time>2017-07-23T12:20:14Z</time></trkpt>
<trkpt lat="46.26609" lon="7.2731"><ele>2000</ele><time>2017-07-23T12:20:15Z</time></trkpt>
<trkpt lat="46.26609" lon="7.2731"><ele>2000</ele><time>2017-07-23T12:20:16Z</time></trkpt>
<trkpt lat="46.26609" lon="7.2731"><ele>2000</ele><time>2017-07-23T12:20:18Z</time></trkpt>
<trkpt lat="46.26609" lon="7.2731"><ele>2000</ele><time>2017-07-23T12:20:23Z</time></trkpt>
<trkpt lat="46.26609" lon="7.2731"><ele>1999.6</ele><time>2017-07-23T12:20:32Z</time></trkpt>
<trkpt lat="46.26609" lon="7.27311"><ele>1999.2</ele><time>2017-07-23T12:20:42Z</time></trkpt>
<trkpt lat="46.26609" lon="7.27311"><ele>1999.4</ele><time>2017-07-23T12:20:44Z</time></trkpt>
<trkpt lat="46.26608" lon="7.27311"><ele>1999.4</ele><time>2017-07-23T12:20:48Z</time></trkpt>
<trkpt lat="46.26607" lon="7.27311"><ele>1999.2</ele><time>2017-07-23T12:20:54Z</time></trkpt>
<trkpt lat="46.26607" lon="7.27311"><ele>1999.2</ele><time>2017-07-23T12:20:56Z</time></trkpt>
<trkpt lat="46.26607" lon="7.27312"><ele>1999.2</ele><time>2017-07-23T12:20:58Z</time></trkpt>
<trkpt lat="46.26607" lon="7.27312"><ele>1999</ele><time>2017-07-23T12:21:02Z</time></trkpt>
<trkpt lat="46.26608" lon="7.27312"><ele>1998.4</ele><time>2017-07-23T12:21:21Z</time></trkpt>
<trkpt lat="46.26608" lon="7.27313"><ele>1998</ele><time>2017-07-23T12:21:27Z</time></trkpt>
<trkpt lat="46.26608" lon="7.27312"><ele>1997.2</ele><time>2017-07-23T12:21:48Z</time></trkpt>
<trkpt lat="46.26607" lon="7.27312"><ele>1997.8</ele><time>2017-07-23T12:22:08Z</time></trkpt>
<trkpt lat="46.26607" lon="7.27312"><ele>1998</ele><time>2017-07-23T12:22:11Z</time></trkpt>
<trkpt lat="46.26607" lon="7.27311"><ele>1998.2</ele><time>2017-07-23T12:22:21Z</time></trkpt>
<trkpt lat="46.26608" lon="7.2731"><ele>1998.2</ele><time>2017-07-23T12:22:32Z</time></trkpt>
<trkpt lat="46.26607" lon="7.27311"><ele>1998</ele><time>2017-07-23T12:22:44Z</time></trkpt>
<trkpt lat="46.26607" lon="7.27312"><ele>1997.8</ele><time>2017-07-23T12:22:47Z</time></trkpt>
<trkpt lat="46.26607" lon="7.27312"><ele>1995.4</ele><time>2017-07-23T12:22:56Z</time></trkpt>
<trkpt lat="46.26607" lon="7.27311"><ele>1995.6</ele><time>2017-07-23T12:23:00Z</time></trkpt>
<trkpt lat="46.26607" lon="7.27311"><ele>1995.8</ele><time>2017-07-23T12:23:03Z</time></trkpt>
<trkpt lat="46.26607" lon="7.27312"><ele>1995.8</ele><time>2017-07-23T12:23:05Z</time></trkpt>
<trkpt lat="46.26607" lon="7.27312"><ele>1995.8</ele><time>2017-07-23T12:23:08Z</time></trkpt>
<trkpt lat="46.26607" lon="7.27312"><ele>1995.8</ele><time>2017-07-23T12:23:09Z</time></trkpt>
<trkpt lat="46.26607" lon="7.27312"><ele>1995.8</ele><time>2017-07-23T12:23:11Z</time></trkpt>
<trkpt lat="46.26607" lon="7.27312"><ele>1996.2</ele><time>2017-07-23T12:23:26Z</time></trkpt>
<trkpt lat="46.26608" lon="7.27313"><ele>1996.6</ele><time>2017-07-23T12:23:34Z</time></trkpt>
<trkpt lat="46.26608" lon="7.27313"><ele>1996.6</ele><time>2017-07-23T12:23:38Z</time></trkpt>
<trkpt lat="46.26608" lon="7.27313"><ele>1997</ele><time>2017-07-23T12:23:48Z</time></trkpt>
<trkpt lat="46.26608" lon="7.27314"><ele>1997.6</ele><time>2017-07-23T12:24:05Z</time></trkpt>
<trkpt lat="46.26607" lon="7.27313"><ele>1997.4</ele><time>2017-07-23T12:24:11Z</time></trkpt>
<trkpt lat="46.26607" lon="7.27313"><ele>1997.4</ele><time>2017-07-23T12:24:13Z</time></trkpt>
<trkpt lat="46.26607" lon="7.27312"><ele>1997.4</ele><time>2017-07-23T12:24:27Z</time></trkpt>
<trkpt lat="46.26607" lon="7.27311"><ele>1998</ele><time>2017-07-23T12:24:43Z</time></trkpt>
<trkpt lat="46.26606" lon="7.27312"><ele>1999.6</ele><time>2017-07-23T12:25:00Z</time></trkpt>
<trkpt lat="46.26613" lon="7.27293"><ele>2000</ele><time>2017-07-23T12:25:44Z</time></trkpt>
<trkpt lat="46.26613" lon="7.27289"><ele>2000.4</ele><time>2017-07-23T12:25:50Z</time></trkpt>
<trkpt lat="46.26613" lon="7.27285"><ele>2000.6</ele><time>2017-07-23T12:25:54Z</time></trkpt>
<trkpt lat="46.26613" lon="7.27279"><ele>2002</ele><time>2017-07-23T12:26:02Z</time></trkpt>
<trkpt lat="46.26613" lon="7.27275"><ele>2002.8</ele><time>2017-07-23T12:26:07Z</time></trkpt>
<trkpt lat="46.26612" lon="7.27271"><ele>2003.2</ele><time>2017-07-23T12:26:11Z</time></trkpt>
<trkpt lat="46.26611" lon="7.27266"><ele>2004</ele><time>2017-07-23T12:26:17Z</time></trkpt>
<trkpt lat="46.26611" lon="7.2726"><ele>2005.4</ele><time>2017-07-23T12:26:33Z</time></trkpt>
<trkpt lat="46.26611" lon="7.2726"><ele>2005.4</ele><time>2017-07-23T12:26:34Z</time></trkpt>
<trkpt lat="46.26611" lon="7.2726"><ele>2005.6</ele><time>2017-07-23T12:26:43Z</time></trkpt>
<trkpt lat="46.26611" lon="7.2726"><ele>2005.8</ele><time>2017-07-23T12:26:49Z</time></trkpt>
<trkpt lat="46.26611" lon="7.2726"><ele>2005.8</ele><time>2017-07-23T12:26:54Z</time></trkpt>
<trkpt lat="46.26611" lon="7.2726"><ele>2005.8</ele><time>2017-07-23T12:26:56Z</time></trkpt>
<trkpt lat="46.26611" lon="7.27259"><ele>2005.6</ele><time>2017-07-23T12:27:08Z</time></trkpt>
<trkpt lat="46.2661" lon="7.27259"><ele>2005.6</ele><time>2017-07-23T12:27:15Z</time></trkpt>
<trkpt lat="46.2661" lon="7.2726"><ele>2005.6</ele><time>2017-07-23T12:27:19Z</time></trkpt>
<trkpt lat="46.26611" lon="7.27259"><ele>2005.6</ele><time>2017-07-23T12:27:26Z</time></trkpt>
<trkpt lat="46.26611" lon="7.27259"><ele>2005.2</ele><time>2017-07-23T12:27:37Z</time></trkpt>
<trkpt lat="46.2661" lon="7.27261"><ele>2004.8</ele><time>2017-07-23T12:27:43Z</time></trkpt>
<trkpt lat="46.26609" lon="7.27261"><ele>2004.8</ele><time>2017-07-23T12:27:50Z</time></trkpt>
<trkpt lat="46.26609" lon="7.27261"><ele>2004.8</ele><time>2017-07-23T12:27:54Z</time></trkpt>
<trkpt lat="46.26606" lon="7.27252"><ele>2005.4</ele><time>2017-07-23T12:28:04Z</time></trkpt>
<trkpt lat="46.26605" lon="7.27249"><ele>2005.6</ele><time>2017-07-23T12:28:06Z</time></trkpt>
<trkpt lat="46.26603" lon="7.27247"><ele>2005.8</ele><time>2017-07-23T12:28:09Z</time></trkpt>
<trkpt lat="46.2659" lon="7.27236"><ele>2007.4</ele><time>2017-07-23T12:28:28Z</time></trkpt>
<trkpt lat="46.26579" lon="7.27217"><ele>2009.6</ele><time>2017-07-23T12:28:45Z</time></trkpt>
<trkpt lat="46.26577" lon="7.27214"><ele>2009.8</ele><time>2017-07-23T12:28:48Z</time></trkpt>
<trkpt lat="46.26575" lon="7.27211"><ele>2010.2</ele><time>2017-07-23T12:28:51Z</time></trkpt>
<trkpt lat="46.26573" lon="7.27206"><ele>2010.8</ele><time>2017-07-23T12:28:55Z</time></trkpt>
<trkpt lat="46.26558" lon="7.27194"><ele>2010</ele><time>2017-07-23T12:29:07Z</time></trkpt>
<trkpt lat="46.26554" lon="7.27193"><ele>2010.6</ele><time>2017-07-23T12:29:10Z</time></trkpt>
<trkpt lat="46.26541" lon="7.27187"><ele>2010</ele><time>2017-07-23T12:29:22Z</time></trkpt>
<trkpt lat="46.26537" lon="7.27181"><ele>2010</ele><time>2017-07-23T12:29:28Z</time></trkpt>
<trkpt lat="46.26537" lon="7.2718"><ele>2009.8</ele><time>2017-07-23T12:29:35Z</time></trkpt>
<trkpt lat="46.26531" lon="7.27174"><ele>2009</ele><time>2017-07-23T12:29:38Z</time></trkpt>
<trkpt lat="46.2652" lon="7.27165"><ele>2008.4</ele><time>2017-07-23T12:29:44Z</time></trkpt>
<trkpt lat="46.2652" lon="7.27166"><ele>2008.4</ele><time>2017-07-23T12:29:47Z</time></trkpt>
<trkpt lat="46.2652" lon="7.27166"><ele>2008.4</ele><time>2017-07-23T12:29:49Z</time></trkpt>
<trkpt lat="46.26512" lon="7.27162"><ele>2008.8</ele><time>2017-07-23T12:30:00Z</time></trkpt>
<trkpt lat="46.26509" lon="7.27155"><ele>2010.6</ele><time>2017-07-23T12:30:07Z</time></trkpt>
<trkpt lat="46.26509" lon="7.27155"><ele>2010.6</ele><time>2017-07-23T12:30:08Z</time></trkpt>
<trkpt lat="46.26509" lon="7.27155"><ele>2010.6</ele><time>2017-07-23T12:30:09Z</time></trkpt>
<trkpt lat="46.26508" lon="7.27153"><ele>2010.6</ele><time>2017-07-23T12:30:20Z</time></trkpt>
<trkpt lat="46.26506" lon="7.27149"><ele>2010.6</ele><time>2017-07-23T12:30:24Z</time></trkpt>
<trkpt lat="46.26504" lon="7.27144"><ele>2010.8</ele><time>2017-07-23T12:30:28Z</time></trkpt>
<trkpt lat="46.26504" lon="7.27144"><ele>2010.6</ele><time>2017-07-23T12:30:30Z</time></trkpt>
<trkpt lat="46.26494" lon="7.27122"><ele>2010.8</ele><time>2017-07-23T12:30:46Z</time></trkpt>
<trkpt lat="46.26494" lon="7.2712"><ele>2011</ele><time>2017-07-23T12:30:47Z</time></trkpt>
<trkpt lat="46.26486" lon="7.27097"><ele>2012.8</ele><time>2017-07-23T12:31:01Z</time></trkpt>
<trkpt lat="46.26485" lon="7.27096"><ele>2012.8</ele><time>2017-07-23T12:31:02Z</time></trkpt>
<trkpt lat="46.26483" lon="7.27094"><ele>2013.4</ele><time>2017-07-23T12:31:10Z</time></trkpt>
<trkpt lat="46.26472" lon="7.27082"><ele>2015.8</ele><time>2017-07-23T12:31:31Z</time></trkpt>
<trkpt lat="46.2647" lon="7.27082"><ele>2016.2</ele><time>2017-07-23T12:31:34Z</time></trkpt>
<trkpt lat="46.26469" lon="7.27081"><ele>2016.2</ele><time>2017-07-23T12:31:36Z</time></trkpt>
<trkpt lat="46.26467" lon="7.27079"><ele>2017</ele><time>2017-07-23T12:31:40Z</time></trkpt>
<trkpt lat="46.26467" lon="7.27079"><ele>2017.2</ele><time>2017-07-23T12:31:41Z</time></trkpt>
<trkpt lat="46.26467" lon="7.27078"><ele>2017.6</ele><time>2017-07-23T12:31:43Z</time></trkpt>
<trkpt lat="46.26467" lon="7.27073"><ele>2018.2</ele><time>2017-07-23T12:31:54Z</time></trkpt>
<trkpt lat="46.26467" lon="7.27073"><ele>2018.2</ele><time>2017-07-23T12:31:58Z</time></trkpt>
<trkpt lat="46.26456" lon="7.27065"><ele>2021.6</ele><time>2017-07-23T12:32:28Z</time></trkpt>
<trkpt lat="46.26451" lon="7.2706"><ele>2023.4</ele><time>2017-07-23T12:32:36Z</time></trkpt>
<trkpt lat="46.26445" lon="7.27055"><ele>2024.2</ele><time>2017-07-23T12:32:46Z</time></trkpt>
<trkpt lat="46.26444" lon="7.27055"><ele>2024.4</ele><time>2017-07-23T12:32:47Z</time></trkpt>
<trkpt lat="46.26443" lon="7.27054"><ele>2024.6</ele><time>2017-07-23T12:32:49Z</time></trkpt>
<trkpt lat="46.26442" lon="7.27052"><ele>2024.8</ele><time>2017-07-23T12:32:52Z</time></trkpt>
<trkpt lat="46.2644" lon="7.27049"><ele>2025.6</ele><time>2017-07-23T12:32:57Z</time></trkpt>
<trkpt lat="46.26439" lon="7.27048"><ele>2025.8</ele><time>2017-07-23T12:32:59Z</time></trkpt>
<trkpt lat="46.26437" lon="7.27047"><ele>2026.2</ele><time>2017-07-23T12:33:02Z</time></trkpt>
<trkpt lat="46.26433" lon="7.27043"><ele>2026.6</ele><time>2017-07-23T12:33:10Z</time></trkpt>
<trkpt lat="46.26422" lon="7.27033"><ele>2028.8</ele><time>2017-07-23T12:33:35Z</time></trkpt>
<trkpt lat="46.26417" lon="7.27024"><ele>2028</ele><time>2017-07-23T12:33:53Z</time></trkpt>
<trkpt lat="46.26403" lon="7.27016"><ele>2028.8</ele><time>2017-07-23T12:34:15Z</time></trkpt>
<trkpt lat="46.26395" lon="7.27011"><ele>2029.6</ele><time>2017-07-23T12:34:25Z</time></trkpt>
<trkpt lat="46.26391" lon="7.2701"><ele>2030.2</ele><time>2017-07-23T12:34:33Z</time></trkpt>
<trkpt lat="46.26389" lon="7.27007"><ele>2030.6</ele><time>2017-07-23T12:34:43Z</time></trkpt>
<trkpt lat="46.26388" lon="7.27002"><ele>2031.2</ele><time>2017-07-23T12:34:54Z</time></trkpt>
<trkpt lat="46.26384" lon="7.26995"><ele>2031.8</ele><time>2017-07-23T12:35:06Z</time></trkpt>
<trkpt lat="46.26381" lon="7.26992"><ele>2032</ele><time>2017-07-23T12:35:11Z</time></trkpt>
<trkpt lat="46.2638" lon="7.26991"><ele>2032</ele><time>2017-07-23T12:35:12Z</time></trkpt>
<trkpt lat="46.26379" lon="7.2699"><ele>2032.2</ele><time>2017-07-23T12:35:13Z</time></trkpt>
<trkpt lat="46.26375" lon="7.26988"><ele>2032.6</ele><time>2017-07-23T12:35:17Z</time></trkpt>
<trkpt lat="46.26364" lon="7.26983"><ele>2032.8</ele><time>2017-07-23T12:35:29Z</time></trkpt>
<trkpt lat="46.2636" lon="7.26983"><ele>2033.2</ele><time>2017-07-23T12:35:41Z</time></trkpt>
<trkpt lat="46.26359" lon="7.26983"><ele>2033.2</ele><time>2017-07-23T12:35:45Z</time></trkpt>
<trkpt lat="46.26355" lon="7.26983"><ele>2032.4</ele><time>2017-07-23T12:35:50Z</time></trkpt>
<trkpt lat="46.26347" lon="7.26977"><ele>2031.8</ele><time>2017-07-23T12:35:58Z</time></trkpt>
<trkpt lat="46.26347" lon="7.26975"><ele>2032</ele><time>2017-07-23T12:36:02Z</time></trkpt>
<trkpt lat="46.26339" lon="7.26969"><ele>2033.2</ele><time>2017-07-23T12:36:34Z</time></trkpt>
<trkpt lat="46.26337" lon="7.26965"><ele>2033.4</ele><time>2017-07-23T12:36:40Z</time></trkpt>
<trkpt lat="46.26336" lon="7.26961"><ele>2034</ele><time>2017-07-23T12:36:49Z</time></trkpt>
<trkpt lat="46.26333" lon="7.26958"><ele>2034.8</ele><time>2017-07-23T12:36:57Z</time></trkpt>
<trkpt lat="46.26327" lon="7.26951"><ele>2036.6</ele><time>2017-07-23T12:37:10Z</time></trkpt>
<trkpt lat="46.26327" lon="7.26951"><ele>2036.8</ele><time>2017-07-23T12:37:31Z</time></trkpt>
<trkpt lat="46.26326" lon="7.26951"><ele>2036.8</ele><time>2017-07-23T12:37:44Z</time></trkpt>
<trkpt lat="46.26326" lon="7.26951"><ele>2036.8</ele><time>2017-07-23T12:37:45Z</time></trkpt>
<trkpt lat="46.26326" lon="7.26951"><ele>2036.8</ele><time>2017-07-23T12:37:46Z</time></trkpt>
<trkpt lat="46.26326" lon="7.2695"><ele>2036.8</ele><time>2017-07-23T12:37:52Z</time></trkpt>
<trkpt lat="46.26325" lon="7.2695"><ele>2036.8</ele><time>2017-07-23T12:37:56Z</time></trkpt>
<trkpt lat="46.26325" lon="7.26948"><ele>2036.4</ele><time>2017-07-23T12:38:12Z</time></trkpt>
<trkpt lat="46.26327" lon="7.26951"><ele>2036.8</ele><time>2017-07-23T12:38:39Z</time></trkpt>
<trkpt lat="46.26326" lon="7.26951"><ele>2037.2</ele><time>2017-07-23T12:38:48Z</time></trkpt>
<trkpt lat="46.26326" lon="7.26951"><ele>2037.2</ele><time>2017-07-23T12:38:49Z</time></trkpt>
<trkpt lat="46.26326" lon="7.26951"><ele>2037.2</ele><time>2017-07-23T12:38:52Z</time></trkpt>
<trkpt lat="46.26326" lon="7.2695"><ele>2037</ele><time>2017-07-23T12:38:57Z</time></trkpt>
<trkpt lat="46.26326" lon="7.2695"><ele>2036.2</ele><time>2017-07-23T12:39:22Z</time></trkpt>
<trkpt lat="46.26327" lon="7.26951"><ele>2036.2</ele><time>2017-07-23T12:39:43Z</time></trkpt>
<trkpt lat="46.26327" lon="7.26951"><ele>2036.4</ele><time>2017-07-23T12:39:44Z</time></trkpt>
<trkpt lat="46.26326" lon="7.2695"><ele>2036.4</ele><time>2017-07-23T12:39:50Z</time></trkpt>
<trkpt lat="46.26326" lon="7.26949"><ele>2036.4</ele><time>2017-07-23T12:39:52Z</time></trkpt>
<trkpt lat="46.26329" lon="7.26948"><ele>2036.2</ele><time>2017-07-23T12:40:01Z</time></trkpt>
<trkpt lat="46.26329" lon="7.2695"><ele>2036.6</ele><time>2017-07-23T12:40:11Z</time></trkpt>
<trkpt lat="46.26329" lon="7.2695"><ele>2036.2</ele><time>2017-07-23T12:40:16Z</time></trkpt>
<trkpt lat="46.26328" lon="7.2695"><ele>2036.6</ele><time>2017-07-23T12:40:24Z</time></trkpt>
<trkpt lat="46.26325" lon="7.26948"><ele>2036.6</ele><time>2017-07-23T12:40:29Z</time></trkpt>
<trkpt lat="46.26324" lon="7.26947"><ele>2036.8</ele><time>2017-07-23T12:40:30Z</time></trkpt>
<trkpt lat="46.26323" lon="7.26942"><ele>2038</ele><time>2017-07-23T12:40:37Z</time></trkpt>
<trkpt lat="46.26317" lon="7.26936"><ele>2039.8</ele><time>2017-07-23T12:40:49Z</time></trkpt>
<trkpt lat="46.26316" lon="7.26935"><ele>2040.6</ele><time>2017-07-23T12:40:56Z</time></trkpt>
<trkpt lat="46.26314" lon="7.26932"><ele>2041</ele><time>2017-07-23T12:41:01Z</time></trkpt>
<trkpt lat="46.26313" lon="7.26931"><ele>2041.4</ele><time>2017-07-23T12:41:05Z</time></trkpt>
<trkpt lat="46.26311" lon="7.26929"><ele>2041.6</ele><time>2017-07-23T12:41:10Z</time></trkpt>
<trkpt lat="46.26308" lon="7.26927"><ele>2041.8</ele><time>2017-07-23T12:41:14Z</time></trkpt>
<trkpt lat="46.26306" lon="7.26926"><ele>2041.8</ele><time>2017-07-23T12:41:17Z</time></trkpt>
<trkpt lat="46.26305" lon="7.26925"><ele>2042</ele><time>2017-07-23T12:41:19Z</time></trkpt>
<trkpt lat="46.26304" lon="7.26924"><ele>2042</ele><time>2017-07-23T12:41:24Z</time></trkpt>
<trkpt lat="46.26303" lon="7.26924"><ele>2042</ele><time>2017-07-23T12:41:28Z</time></trkpt>
<trkpt lat="46.26298" lon="7.26923"><ele>2041.8</ele><time>2017-07-23T12:41:35Z</time></trkpt>
<trkpt lat="46.26297" lon="7.26921"><ele>2041.6</ele><time>2017-07-23T12:41:38Z</time></trkpt>
<trkpt lat="46.26295" lon="7.26922"><ele>2041.4</ele><time>2017-07-23T12:41:41Z</time></trkpt>
<trkpt lat="46.26293" lon="7.26921"><ele>2041</ele><time>2017-07-23T12:41:45Z</time></trkpt>
<trkpt lat="46.26291" lon="7.26926"><ele>2039.2</ele><time>2017-07-23T12:41:54Z</time></trkpt>
<trkpt lat="46.26288" lon="7.26924"><ele>2039</ele><time>2017-07-23T12:41:57Z</time></trkpt>
<trkpt lat="46.26278" lon="7.26917"><ele>2037.6</ele><time>2017-07-23T12:42:11Z</time></trkpt>
<trkpt lat="46.26277" lon="7.26916"><ele>2037.8</ele><time>2017-07-23T12:42:14Z</time></trkpt>
<trkpt lat="46.26274" lon="7.26913"><ele>2038</ele><time>2017-07-23T12:42:20Z</time></trkpt>
<trkpt lat="46.26274" lon="7.26912"><ele>2038</ele><time>2017-07-23T12:42:22Z</time></trkpt>
<trkpt lat="46.26273" lon="7.26911"><ele>2037.8</ele><time>2017-07-23T12:42:25Z</time></trkpt>
<trkpt lat="46.26267" lon="7.26903"><ele>2037.8</ele><time>2017-07-23T12:42:41Z</time></trkpt>
<trkpt lat="46.26265" lon="7.269"><ele>2038.8</ele><time>2017-07-23T12:42:47Z</time></trkpt>
<trkpt lat="46.26263" lon="7.26897"><ele>2039.4</ele><time>2017-07-23T12:42:53Z</time></trkpt>
<trkpt lat="46.26261" lon="7.26892"><ele>2041.8</ele><time>2017-07-23T12:43:06Z</time></trkpt>
<trkpt lat="46.26262" lon="7.26891"><ele>2042</ele><time>2017-07-23T12:43:07Z</time></trkpt>
<trkpt lat="46.26262" lon="7.26891"><ele>2042</ele><time>2017-07-23T12:43:08Z</time></trkpt>
<trkpt lat="46.26262" lon="7.2689"><ele>2042.4</ele><time>2017-07-23T12:43:11Z</time></trkpt>
<trkpt lat="46.26263" lon="7.26891"><ele>2042.6</ele><time>2017-07-23T12:43:16Z</time></trkpt>
<trkpt lat="46.26263" lon="7.26891"><ele>2042.8</ele><time>2017-07-23T12:43:30Z</time></trkpt>
<trkpt lat="46.26263" lon="7.26891"><ele>2042.8</ele><time>2017-07-23T12:43:33Z</time></trkpt>
<trkpt lat="46.26263" lon="7.26889"><ele>2042.8</ele><time>2017-07-23T12:43:43Z</time></trkpt>
<trkpt lat="46.26263" lon="7.26884"><ele>2043.2</ele><time>2017-07-23T12:43:52Z</time></trkpt>
<trkpt lat="46.26259" lon="7.26869"><ele>2045</ele><time>2017-07-23T12:44:22Z</time></trkpt>
<trkpt lat="46.26257" lon="7.26866"><ele>2045.2</ele><time>2017-07-23T12:44:28Z</time></trkpt>
<trkpt lat="46.26256" lon="7.26864"><ele>2045.8</ele><time>2017-07-23T12:44:37Z</time></trkpt>
<trkpt lat="46.26255" lon="7.26864"><ele>2046</ele><time>2017-07-23T12:44:39Z</time></trkpt>
<trkpt lat="46.26254" lon="7.26863"><ele>2047</ele><time>2017-07-23T12:44:52Z</time></trkpt>
<trkpt lat="46.26248" lon="7.26857"><ele>2048.4</ele><time>2017-07-23T12:45:05Z</time></trkpt>
<trkpt lat="46.26243" lon="7.26849"><ele>2049.6</ele><time>2017-07-23T12:45:17Z</time></trkpt>
<trkpt lat="46.2624" lon="7.26847"><ele>2050.2</ele><time>2017-07-23T12:45:21Z</time></trkpt>
<trkpt lat="46.26236" lon="7.26846"><ele>2050.6</ele><time>2017-07-23T12:45:26Z</time></trkpt>
<trkpt lat="46.26228" lon="7.26837"><ele>2050.2</ele><time>2017-07-23T12:45:37Z</time></trkpt>
<trkpt lat="46.26215" lon="7.26824"><ele>2049.2</ele><time>2017-07-23T12:45:59Z</time></trkpt>
<trkpt lat="46.26213" lon="7.26823"><ele>2049</ele><time>2017-07-23T12:46:01Z</time></trkpt>
<trkpt lat="46.26206" lon="7.26814"><ele>2049</ele><time>2017-07-23T12:46:12Z</time></trkpt>
<trkpt lat="46.26203" lon="7.26814"><ele>2049.2</ele><time>2017-07-23T12:46:21Z</time></trkpt>
<trkpt lat="46.26201" lon="7.26814"><ele>2048.4</ele><time>2017-07-23T12:46:30Z</time></trkpt>
<trkpt lat="46.26201" lon="7.26814"><ele>2048.2</ele><time>2017-07-23T12:46:31Z</time></trkpt>
<trkpt lat="46.262" lon="7.26813"><ele>2048.2</ele><time>2017-07-23T12:46:33Z</time></trkpt>
<trkpt lat="46.26199" lon="7.26813"><ele>2048.2</ele><time>2017-07-23T12:46:35Z</time></trkpt>
<trkpt lat="46.26199" lon="7.26812"><ele>2047.8</ele><time>2017-07-23T12:46:37Z</time></trkpt>
<trkpt lat="46.26198" lon="7.26811"><ele>2047.8</ele><time>2017-07-23T12:46:38Z</time></trkpt>
<trkpt lat="46.26196" lon="7.26803"><ele>2047.8</ele><time>2017-07-23T12:46:45Z</time></trkpt>
<trkpt lat="46.26195" lon="7.26797"><ele>2048.2</ele><time>2017-07-23T12:46:52Z</time></trkpt>
<trkpt lat="46.26183" lon="7.26775"><ele>2050.6</ele><time>2017-07-23T12:47:22Z</time></trkpt>
<trkpt lat="46.26179" lon="7.2677"><ele>2051</ele><time>2017-07-23T12:47:34Z</time></trkpt>
<trkpt lat="46.26164" lon="7.26763"><ele>2052</ele><time>2017-07-23T12:48:00Z</time></trkpt>
<trkpt lat="46.26161" lon="7.2676"><ele>2052.4</ele><time>2017-07-23T12:48:04Z</time></trkpt>
<trkpt lat="46.2616" lon="7.26759"><ele>2052.4</ele><time>2017-07-23T12:48:09Z</time></trkpt>
<trkpt lat="46.26159" lon="7.26759"><ele>2052</ele><time>2017-07-23T12:48:11Z</time></trkpt>
<trkpt lat="46.26156" lon="7.26758"><ele>2051.6</ele><time>2017-07-23T12:48:15Z</time></trkpt>
<trkpt lat="46.26156" lon="7.2674"><ele>2051.8</ele><time>2017-07-23T12:48:43Z</time></trkpt>
<trkpt lat="46.26156" lon="7.26736"><ele>2052.6</ele><time>2017-07-23T12:48:50Z</time></trkpt>
<trkpt lat="46.26156" lon="7.26728"><ele>2053</ele><time>2017-07-23T12:49:09Z</time></trkpt>
<trkpt lat="46.26155" lon="7.26723"><ele>2054</ele><time>2017-07-23T12:49:24Z</time></trkpt>
<trkpt lat="46.26155" lon="7.26719"><ele>2055.2</ele><time>2017-07-23T12:49:39Z</time></trkpt>
<trkpt lat="46.26155" lon="7.2671"><ele>2057.4</ele><time>2017-07-23T12:50:03Z</time></trkpt>
<trkpt lat="46.26155" lon="7.26709"><ele>2057.6</ele><time>2017-07-23T12:50:07Z</time></trkpt>
<trkpt lat="46.26154" lon="7.26697"><ele>2060.2</ele><time>2017-07-23T12:50:28Z</time></trkpt>
<trkpt lat="46.2615" lon="7.26694"><ele>2061.6</ele><time>2017-07-23T12:50:35Z</time></trkpt>
<trkpt lat="46.26146" lon="7.2669"><ele>2063.4</ele><time>2017-07-23T12:50:45Z</time></trkpt>
<trkpt lat="46.26143" lon="7.26685"><ele>2065.4</ele><time>2017-07-23T12:50:56Z</time></trkpt>
<trkpt lat="46.2614" lon="7.26681"><ele>2066.6</ele><time>2017-07-23T12:51:07Z</time></trkpt>
<trkpt lat="46.26139" lon="7.26679"><ele>2067</ele><time>2017-07-23T12:51:10Z</time></trkpt>
<trkpt lat="46.26135" lon="7.26674"><ele>2069.6</ele><time>2017-07-23T12:51:26Z</time></trkpt>
<trkpt lat="46.26128" lon="7.2666"><ele>2076.2</ele><time>2017-07-23T12:52:14Z</time></trkpt>
<trkpt lat="46.26125" lon="7.26656"><ele>2077.8</ele><time>2017-07-23T12:52:25Z</time></trkpt>
<trkpt lat="46.26123" lon="7.26652"><ele>2078.2</ele><time>2017-07-23T12:52:37Z</time></trkpt>
<trkpt lat="46.26123" lon="7.2665"><ele>2078.2</ele><time>2017-07-23T12:52:45Z</time></trkpt>
<trkpt lat="46.26119" lon="7.26653"><ele>2078.8</ele><time>2017-07-23T12:52:53Z</time></trkpt>
<trkpt lat="46.26116" lon="7.26653"><ele>2079.4</ele><time>2017-07-23T12:53:06Z</time></trkpt>
<trkpt lat="46.26116" lon="7.26653"><ele>2079.4</ele><time>2017-07-23T12:53:17Z</time></trkpt>
<trkpt lat="46.26116" lon="7.26654"><ele>2079.8</ele><time>2017-07-23T12:53:26Z</time></trkpt>
<trkpt lat="46.26116" lon="7.26654"><ele>2080</ele><time>2017-07-23T12:53:31Z</time></trkpt>
<trkpt lat="46.26116" lon="7.26653"><ele>2080</ele><time>2017-07-23T12:53:40Z</time></trkpt>
<trkpt lat="46.26116" lon="7.26654"><ele>2080.4</ele><time>2017-07-23T12:53:49Z</time></trkpt>
<trkpt lat="46.26116" lon="7.26654"><ele>2080.6</ele><time>2017-07-23T12:53:59Z</time></trkpt>
<trkpt lat="46.26116" lon="7.26654"><ele>2080.6</ele><time>2017-07-23T12:54:00Z</time></trkpt>
<trkpt lat="46.26116" lon="7.26655"><ele>2080.8</ele><time>2017-07-23T12:54:03Z</time></trkpt>
<trkpt lat="46.26115" lon="7.26655"><ele>2080.8</ele><time>2017-07-23T12:54:04Z</time></trkpt>
<trkpt lat="46.26115" lon="7.26655"><ele>2080.8</ele><time>2017-07-23T12:54:05Z</time></trkpt>
<trkpt lat="46.26111" lon="7.26654"><ele>2081</ele><time>2017-07-23T12:54:09Z</time></trkpt>
<trkpt lat="46.26105" lon="7.26652"><ele>2081.4</ele><time>2017-07-23T12:54:13Z</time></trkpt>
<trkpt lat="46.26104" lon="7.2665"><ele>2081.8</ele><time>2017-07-23T12:54:20Z</time></trkpt>
<trkpt lat="46.26098" lon="7.26648"><ele>2082.4</ele><time>2017-07-23T12:54:29Z</time></trkpt>
<trkpt lat="46.26092" lon="7.26644"><ele>2083</ele><time>2017-07-23T12:54:37Z</time></trkpt>
<trkpt lat="46.26089" lon="7.26643"><ele>2083.6</ele><time>2017-07-23T12:54:41Z</time></trkpt>
<trkpt lat="46.26088" lon="7.26643"><ele>2083.6</ele><time>2017-07-23T12:54:43Z</time></trkpt>
<trkpt lat="46.26085" lon="7.26636"><ele>2085.4</ele><time>2017-07-23T12:55:04Z</time></trkpt>
<trkpt lat="46.26084" lon="7.26632"><ele>2086</ele><time>2017-07-23T12:55:15Z</time></trkpt>
<trkpt lat="46.26072" lon="7.26615"><ele>2089.4</ele><time>2017-07-23T12:55:57Z</time></trkpt>
<trkpt lat="46.26068" lon="7.26611"><ele>2091.6</ele><time>2017-07-23T12:56:10Z</time></trkpt>
<trkpt lat="46.26067" lon="7.2661"><ele>2092</ele><time>2017-07-23T12:56:12Z</time></trkpt>
<trkpt lat="46.26063" lon="7.26605"><ele>2094.8</ele><time>2017-07-23T12:56:28Z</time></trkpt>
<trkpt lat="46.26062" lon="7.26604"><ele>2095.2</ele><time>2017-07-23T12:56:31Z</time></trkpt>
<trkpt lat="46.26062" lon="7.26602"><ele>2095.8</ele><time>2017-07-23T12:56:37Z</time></trkpt>
<trkpt lat="46.26063" lon="7.26589"><ele>2098</ele><time>2017-07-23T12:57:02Z</time></trkpt>
<trkpt lat="46.26063" lon="7.26585"><ele>2099.6</ele><time>2017-07-23T12:57:15Z</time></trkpt>
<trkpt lat="46.26062" lon="7.26581"><ele>2101.2</ele><time>2017-07-23T12:57:37Z</time></trkpt>
<trkpt lat="46.26061" lon="7.26577"><ele>2103.6</ele><time>2017-07-23T12:58:14Z</time></trkpt>
<trkpt lat="46.26061" lon="7.26576"><ele>2103.6</ele><time>2017-07-23T12:58:21Z</time></trkpt>
<trkpt lat="46.26061" lon="7.26576"><ele>2103.6</ele><time>2017-07-23T12:58:25Z</time></trkpt>
<trkpt lat="46.26061" lon="7.26574"><ele>2104</ele><time>2017-07-23T12:58:32Z</time></trkpt>
<trkpt lat="46.26061" lon="7.26574"><ele>2104</ele><time>2017-07-23T12:58:34Z</time></trkpt>
<trkpt lat="46.26059" lon="7.26571"><ele>2104.8</ele><time>2017-07-23T12:58:43Z</time></trkpt>
<trkpt lat="46.26058" lon="7.26569"><ele>2105.4</ele><time>2017-07-23T12:58:50Z</time></trkpt>
<trkpt lat="46.2606" lon="7.26564"><ele>2106.8</ele><time>2017-07-23T12:59:06Z</time></trkpt>
<trkpt lat="46.2606" lon="7.26564"><ele>2106.8</ele><time>2017-07-23T12:59:08Z</time></trkpt>
<trkpt lat="46.26062" lon="7.26562"><ele>2107.2</ele><time>2017-07-23T12:59:13Z</time></trkpt>
<trkpt lat="46.26062" lon="7.26564"><ele>2107.8</ele><time>2017-07-23T12:59:18Z</time></trkpt>
<trkpt lat="46.26062" lon="7.26564"><ele>2108.2</ele><time>2017-07-23T12:59:25Z</time></trkpt>
<trkpt lat="46.2606" lon="7.26557"><ele>2112.4</ele><time>2017-07-23T12:59:49Z</time></trkpt>
<trkpt lat="46.26059" lon="7.26551"><ele>2113.2</ele><time>2017-07-23T13:00:00Z</time></trkpt>
<trkpt lat="46.26059" lon="7.26551"><ele>2113.4</ele><time>2017-07-23T13:00:02Z</time></trkpt>
<trkpt lat="46.26059" lon="7.2655"><ele>2113.6</ele><time>2017-07-23T13:00:04Z</time></trkpt>
<trkpt lat="46.26054" lon="7.26547"><ele>2115.8</ele><time>2017-07-23T13:00:14Z</time></trkpt>
<trkpt lat="46.26053" lon="7.26546"><ele>2116.2</ele><time>2017-07-23T13:00:16Z</time></trkpt>
<trkpt lat="46.2605" lon="7.26543"><ele>2117.2</ele><time>2017-07-23T13:00:24Z</time></trkpt>
<trkpt lat="46.26049" lon="7.26543"><ele>2117.6</ele><time>2017-07-23T13:00:28Z</time></trkpt>
<trkpt lat="46.26048" lon="7.26539"><ele>2120</ele><time>2017-07-23T13:00:41Z</time></trkpt>
<trkpt lat="46.26044" lon="7.26534"><ele>2122.4</ele><time>2017-07-23T13:00:57Z</time></trkpt>
<trkpt lat="46.26042" lon="7.26526"><ele>2124</ele><time>2017-07-23T13:01:41Z</time></trkpt>
<trkpt lat="46.26042" lon="7.26526"><ele>2124.2</ele><time>2017-07-23T13:01:43Z</time></trkpt>
<trkpt lat="46.26042" lon="7.26526"><ele>2124.8</ele><time>2017-07-23T13:01:52Z</time></trkpt>
<trkpt lat="46.26042" lon="7.26526"><ele>2125.4</ele><time>2017-07-23T13:01:56Z</time></trkpt>
<trkpt lat="46.26047" lon="7.26524"><ele>2126.6</ele><time>2017-07-23T13:01:59Z</time></trkpt>
<trkpt lat="46.26047" lon="7.26523"><ele>2127</ele><time>2017-07-23T13:02:01Z</time></trkpt>
<trkpt lat="46.26049" lon="7.26522"><ele>2127.6</ele><time>2017-07-23T13:02:05Z</time></trkpt>
<trkpt lat="46.26049" lon="7.26521"><ele>2128</ele><time>2017-07-23T13:02:07Z</time></trkpt>
<trkpt lat="46.26054" lon="7.26513"><ele>2131.2</ele><time>2017-07-23T13:02:26Z</time></trkpt>
<trkpt lat="46.26055" lon="7.26512"><ele>2131.4</ele><time>2017-07-23T13:02:28Z</time></trkpt>
<trkpt lat="46.2606" lon="7.26508"><ele>2134.4</ele><time>2017-07-23T13:02:47Z</time></trkpt>
<trkpt lat="46.26063" lon="7.26506"><ele>2135.4</ele><time>2017-07-23T13:02:58Z</time></trkpt>
<trkpt lat="46.26061" lon="7.26507"><ele>2135.2</ele><time>2017-07-23T13:03:14Z</time></trkpt>
<trkpt lat="46.26063" lon="7.26503"><ele>2135.2</ele><time>2017-07-23T13:03:21Z</time></trkpt>
<trkpt lat="46.26063" lon="7.26502"><ele>2135.2</ele><time>2017-07-23T13:03:23Z</time></trkpt>
<trkpt lat="46.26066" lon="7.26501"><ele>2135.4</ele><time>2017-07-23T13:03:29Z</time></trkpt>
<trkpt lat="46.26068" lon="7.265"><ele>2135.6</ele><time>2017-07-23T13:03:32Z</time></trkpt>
<trkpt lat="46.2607" lon="7.265"><ele>2135.8</ele><time>2017-07-23T13:03:35Z</time></trkpt>
<trkpt lat="46.26071" lon="7.26499"><ele>2136.2</ele><time>2017-07-23T13:03:39Z</time></trkpt>
<trkpt lat="46.26082" lon="7.26501"><ele>2140.2</ele><time>2017-07-23T13:04:31Z</time></trkpt>
<trkpt lat="46.26083" lon="7.26502"><ele>2140.6</ele><time>2017-07-23T13:04:34Z</time></trkpt>
<trkpt lat="46.26085" lon="7.26503"><ele>2141.4</ele><time>2017-07-23T13:04:39Z</time></trkpt>
<trkpt lat="46.26093" lon="7.26504"><ele>2145</ele><time>2017-07-23T13:05:11Z</time></trkpt>
<trkpt lat="46.26107" lon="7.26509"><ele>2149.4</ele><time>2017-07-23T13:06:03Z</time></trkpt>
<trkpt lat="46.26108" lon="7.26509"><ele>2149.6</ele><time>2017-07-23T13:06:05Z</time></trkpt>
<trkpt lat="46.26111" lon="7.2651"><ele>2150</ele><time>2017-07-23T13:06:12Z</time></trkpt>
<trkpt lat="46.26116" lon="7.26511"><ele>2151.4</ele><time>2017-07-23T13:06:22Z</time></trkpt>
<trkpt lat="46.26122" lon="7.26512"><ele>2152.8</ele><time>2017-07-23T13:06:39Z</time></trkpt>
<trkpt lat="46.26126" lon="7.26512"><ele>2154</ele><time>2017-07-23T13:06:52Z</time></trkpt>
<trkpt lat="46.26127" lon="7.26512"><ele>2154</ele><time>2017-07-23T13:07:03Z</time></trkpt>
<trkpt lat="46.26133" lon="7.26513"><ele>2155</ele><time>2017-07-23T13:07:13Z</time></trkpt>
<trkpt lat="46.26138" lon="7.26514"><ele>2155.8</ele><time>2017-07-23T13:07:26Z</time></trkpt>
<trkpt lat="46.2614" lon="7.26514"><ele>2155.8</ele><time>2017-07-23T13:07:32Z</time></trkpt>
<trkpt lat="46.26142" lon="7.26513"><ele>2156.4</ele><time>2017-07-23T13:07:41Z</time></trkpt>
<trkpt lat="46.26143" lon="7.26514"><ele>2156.8</ele><time>2017-07-23T13:07:44Z</time></trkpt>
<trkpt lat="46.2615" lon="7.26515"><ele>2158.4</ele><time>2017-07-23T13:07:59Z</time></trkpt>
<trkpt lat="46.26154" lon="7.26514"><ele>2159.4</ele><time>2017-07-23T13:08:05Z</time></trkpt>
<trkpt lat="46.26159" lon="7.26513"><ele>2161</ele><time>2017-07-23T13:08:16Z</time></trkpt>
<trkpt lat="46.26161" lon="7.26513"><ele>2161.2</ele><time>2017-07-23T13:08:18Z</time></trkpt>
<trkpt lat="46.26167" lon="7.26512"><ele>2162</ele><time>2017-07-23T13:08:29Z</time></trkpt>
<trkpt lat="46.26168" lon="7.2651"><ele>2162.4</ele><time>2017-07-23T13:08:33Z</time></trkpt>
<trkpt lat="46.26171" lon="7.26508"><ele>2163</ele><time>2017-07-23T13:08:37Z</time></trkpt>
<trkpt lat="46.26176" lon="7.26507"><ele>2163.8</ele><time>2017-07-23T13:08:43Z</time></trkpt>
<trkpt lat="46.26185" lon="7.26504"><ele>2165.2</ele><time>2017-07-23T13:08:55Z</time></trkpt>
<trkpt lat="46.26187" lon="7.26503"><ele>2165.6</ele><time>2017-07-23T13:09:02Z</time></trkpt>
<trkpt lat="46.26187" lon="7.26502"><ele>2165.4</ele><time>2017-07-23T13:09:08Z</time></trkpt>
<trkpt lat="46.26187" lon="7.26503"><ele>2165.4</ele><time>2017-07-23T13:09:20Z</time></trkpt>
<trkpt lat="46.26187" lon="7.26503"><ele>2165.2</ele><time>2017-07-23T13:09:24Z</time></trkpt>
<trkpt lat="46.26187" lon="7.26503"><ele>2164.8</ele><time>2017-07-23T13:09:37Z</time></trkpt>
<trkpt lat="46.26187" lon="7.26503"><ele>2164.8</ele><time>2017-07-23T13:09:42Z</time></trkpt>
<trkpt lat="46.26186" lon="7.26503"><ele>2164.6</ele><time>2017-07-23T13:09:51Z</time></trkpt>
<trkpt lat="46.26187" lon="7.26502"><ele>2164.4</ele><time>2017-07-23T13:09:58Z</time></trkpt>
<trkpt lat="46.26205" lon="7.26495"><ele>2164.6</ele><time>2017-07-23T13:10:08Z</time></trkpt>
<trkpt lat="46.26212" lon="7.26491"><ele>2165.4</ele><time>2017-07-23T13:10:13Z</time></trkpt>
<trkpt lat="46.26224" lon="7.26487"><ele>2167</ele><time>2017-07-23T13:10:22Z</time></trkpt>
<trkpt lat="46.26225" lon="7.26486"><ele>2167.2</ele><time>2017-07-23T13:10:23Z</time></trkpt>
<trkpt lat="46.26226" lon="7.26486"><ele>2167.4</ele><time>2017-07-23T13:10:24Z</time></trkpt>
<trkpt lat="46.26233" lon="7.26485"><ele>2168.2</ele><time>2017-07-23T13:10:30Z</time></trkpt>
<trkpt lat="46.26243" lon="7.26482"><ele>2167.6</ele><time>2017-07-23T13:10:38Z</time></trkpt>
<trkpt lat="46.26252" lon="7.26479"><ele>2166.4</ele><time>2017-07-23T13:10:45Z</time></trkpt>
<trkpt lat="46.2627" lon="7.26485"><ele>2162.4</ele><time>2017-07-23T13:10:56Z</time></trkpt>
<trkpt lat="46.26283" lon="7.26492"><ele>2159.8</ele><time>2017-07-23T13:11:05Z</time></trkpt>
<trkpt lat="46.26283" lon="7.26492"><ele>2160</ele><time>2017-07-23T13:11:12Z</time></trkpt>
<trkpt lat="46.26282" lon="7.26492"><ele>2160.2</ele><time>2017-07-23T13:11:14Z</time></trkpt>
<trkpt lat="46.26283" lon="7.26492"><ele>2160.6</ele><time>2017-07-23T13:11:28Z</time></trkpt>
<trkpt lat="46.26283" lon="7.26492"><ele>2160.8</ele><time>2017-07-23T13:11:36Z</time></trkpt>
<trkpt lat="46.26283" lon="7.26493"><ele>2160.6</ele><time>2017-07-23T13:11:40Z</time></trkpt>
<trkpt lat="46.26299" lon="7.26498"><ele>2159.6</ele><time>2017-07-23T13:11:57Z</time></trkpt>
<trkpt lat="46.2631" lon="7.26499"><ele>2158.4</ele><time>2017-07-23T13:12:02Z</time></trkpt>
<trkpt lat="46.26326" lon="7.26502"><ele>2155.4</ele><time>2017-07-23T13:12:11Z</time></trkpt>
<trkpt lat="46.26328" lon="7.26502"><ele>2154.8</ele><time>2017-07-23T13:12:12Z</time></trkpt>
<trkpt lat="46.26337" lon="7.26509"><ele>2152.2</ele><time>2017-07-23T13:12:18Z</time></trkpt>
<trkpt lat="46.26338" lon="7.26509"><ele>2152.2</ele><time>2017-07-23T13:12:21Z</time></trkpt>
<trkpt lat="46.26339" lon="7.2651"><ele>2151.6</ele><time>2017-07-23T13:12:34Z</time></trkpt>
<trkpt lat="46.26339" lon="7.2651"><ele>2151.4</ele><time>2017-07-23T13:12:37Z</time></trkpt>
<trkpt lat="46.26337" lon="7.26514"><ele>2150</ele><time>2017-07-23T13:12:58Z</time></trkpt>
<trkpt lat="46.26343" lon="7.26514"><ele>2150</ele><time>2017-07-23T13:13:14Z</time></trkpt>
<trkpt lat="46.26349" lon="7.26515"><ele>2149.8</ele><time>2017-07-23T13:13:21Z</time></trkpt>
<trkpt lat="46.26358" lon="7.26514"><ele>2148.8</ele><time>2017-07-23T13:13:27Z</time></trkpt>
<trkpt lat="46.26362" lon="7.26516"><ele>2148</ele><time>2017-07-23T13:13:33Z</time></trkpt>
<trkpt lat="46.26366" lon="7.26515"><ele>2147.6</ele><time>2017-07-23T13:13:39Z</time></trkpt>
<trkpt lat="46.26369" lon="7.26513"><ele>2146.6</ele><time>2017-07-23T13:13:44Z</time></trkpt>
<trkpt lat="46.2637" lon="7.26512"><ele>2146.2</ele><time>2017-07-23T13:13:46Z</time></trkpt>
<trkpt lat="46.26375" lon="7.2651"><ele>2143.4</ele><time>2017-07-23T13:13:52Z</time></trkpt>
<trkpt lat="46.26379" lon="7.26509"><ele>2141.8</ele><time>2017-07-23T13:13:57Z</time></trkpt>
<trkpt lat="46.26392" lon="7.26506"><ele>2138.2</ele><time>2017-07-23T13:14:08Z</time></trkpt>
<trkpt lat="46.26397" lon="7.26505"><ele>2137.2</ele><time>2017-07-23T13:14:13Z</time></trkpt>
<trkpt lat="46.26401" lon="7.26505"><ele>2136.8</ele><time>2017-07-23T13:14:16Z</time></trkpt>
<trkpt lat="46.26405" lon="7.26503"><ele>2135.8</ele><time>2017-07-23T13:14:20Z</time></trkpt>
<trkpt lat="46.26407" lon="7.26502"><ele>2135.4</ele><time>2017-07-23T13:14:22Z</time></trkpt>
<trkpt lat="46.26409" lon="7.26502"><ele>2135.4</ele><time>2017-07-23T13:14:24Z</time></trkpt>
<trkpt lat="46.26415" lon="7.265"><ele>2133.6</ele><time>2017-07-23T13:14:34Z</time></trkpt>
<trkpt lat="46.26423" lon="7.26493"><ele>2132</ele><time>2017-07-23T13:14:44Z</time></trkpt>
<trkpt lat="46.26424" lon="7.26493"><ele>2131.6</ele><time>2017-07-23T13:14:48Z</time></trkpt>
<trkpt lat="46.26437" lon="7.26481"><ele>2130</ele><time>2017-07-23T13:14:56Z</time></trkpt>
<trkpt lat="46.26454" lon="7.26468"><ele>2126</ele><time>2017-07-23T13:15:04Z</time></trkpt>
<trkpt lat="46.26471" lon="7.26457"><ele>2121</ele><time>2017-07-23T13:15:14Z</time></trkpt>
<trkpt lat="46.26472" lon="7.26456"><ele>2120.4</ele><time>2017-07-23T13:15:15Z</time></trkpt>
<trkpt lat="46.26476" lon="7.26454"><ele>2119</ele><time>2017-07-23T13:15:18Z</time></trkpt>
<trkpt lat="46.26494" lon="7.26442"><ele>2114.8</ele><time>2017-07-23T13:15:28Z</time></trkpt>
<trkpt lat="46.26495" lon="7.26441"><ele>2114.4</ele><time>2017-07-23T13:15:30Z</time></trkpt>
<trkpt lat="46.26505" lon="7.26426"><ele>2113.2</ele><time>2017-07-23T13:15:48Z</time></trkpt>
<trkpt lat="46.26506" lon="7.26425"><ele>2113.2</ele><time>2017-07-23T13:15:49Z</time></trkpt>
<trkpt lat="46.26508" lon="7.26419"><ele>2112.6</ele><time>2017-07-23T13:15:52Z</time></trkpt>
<trkpt lat="46.26516" lon="7.26412"><ele>2111.2</ele><time>2017-07-23T13:15:59Z</time></trkpt>
<trkpt lat="46.2652" lon="7.26405"><ele>2109.6</ele><time>2017-07-23T13:16:04Z</time></trkpt>
<trkpt lat="46.26521" lon="7.264"><ele>2108</ele><time>2017-07-23T13:16:07Z</time></trkpt>
<trkpt lat="46.2652" lon="7.26399"><ele>2107.6</ele><time>2017-07-23T13:16:08Z</time></trkpt>
<trkpt lat="46.26515" lon="7.264"><ele>2105.8</ele><time>2017-07-23T13:16:12Z</time></trkpt>
<trkpt lat="46.26509" lon="7.26402"><ele>2104.4</ele><time>2017-07-23T13:16:17Z</time></trkpt>
<trkpt lat="46.26508" lon="7.26403"><ele>2104.2</ele><time>2017-07-23T13:16:18Z</time></trkpt>
<trkpt lat="46.26486" lon="7.26401"><ele>2101.6</ele><time>2017-07-23T13:16:30Z</time></trkpt>
<trkpt lat="46.26465" lon="7.26404"><ele>2099.8</ele><time>2017-07-23T13:16:35Z</time></trkpt>
<trkpt lat="46.26447" lon="7.26413"><ele>2097.2</ele><time>2017-07-23T13:16:43Z</time></trkpt>
<trkpt lat="46.26428" lon="7.26417"><ele>2095</ele><time>2017-07-23T13:16:52Z</time></trkpt>
<trkpt lat="46.26417" lon="7.26418"><ele>2094.6</ele><time>2017-07-23T13:16:56Z</time></trkpt>
<trkpt lat="46.26397" lon="7.26417"><ele>2093.4</ele><time>2017-07-23T13:17:03Z</time></trkpt>
<trkpt lat="46.26378" lon="7.26419"><ele>2091.2</ele><time>2017-07-23T13:17:12Z</time></trkpt>
<trkpt lat="46.26357" lon="7.26416"><ele>2091.8</ele><time>2017-07-23T13:17:20Z</time></trkpt>
<trkpt lat="46.26328" lon="7.26401"><ele>2092.6</ele><time>2017-07-23T13:17:30Z</time></trkpt>
<trkpt lat="46.26311" lon="7.26385"><ele>2094.8</ele><time>2017-07-23T13:17:36Z</time></trkpt>
<trkpt lat="46.26294" lon="7.26369"><ele>2095.4</ele><time>2017-07-23T13:17:41Z</time></trkpt>
<trkpt lat="46.26279" lon="7.26352"><ele>2096</ele><time>2017-07-23T13:17:46Z</time></trkpt>
<trkpt lat="46.26266" lon="7.26338"><ele>2096.2</ele><time>2017-07-23T13:17:51Z</time></trkpt>
<trkpt lat="46.26248" lon="7.26329"><ele>2096</ele><time>2017-07-23T13:17:57Z</time></trkpt>
<trkpt lat="46.26232" lon="7.26328"><ele>2095</ele><time>2017-07-23T13:18:01Z</time></trkpt>
<trkpt lat="46.26228" lon="7.26327"><ele>2094.8</ele><time>2017-07-23T13:18:02Z</time></trkpt>
<trkpt lat="46.26224" lon="7.26326"><ele>2094.4</ele><time>2017-07-23T13:18:03Z</time></trkpt>
<trkpt lat="46.26215" lon="7.26323"><ele>2093.6</ele><time>2017-07-23T13:18:05Z</time></trkpt>
<trkpt lat="46.26205" lon="7.2632"><ele>2093</ele><time>2017-07-23T13:18:07Z</time></trkpt>
<trkpt lat="46.26187" lon="7.26307"><ele>2092.4</ele><time>2017-07-23T13:18:11Z</time></trkpt>
<trkpt lat="46.26166" lon="7.26296"><ele>2091.4</ele><time>2017-07-23T13:18:16Z</time></trkpt>
<trkpt lat="46.26148" lon="7.26297"><ele>2090.2</ele><time>2017-07-23T13:18:20Z</time></trkpt>
<trkpt lat="46.26129" lon="7.263"><ele>2089.2</ele><time>2017-07-23T13:18:24Z</time></trkpt>
<trkpt lat="46.26107" lon="7.26306"><ele>2088</ele><time>2017-07-23T13:18:29Z</time></trkpt>
<trkpt lat="46.26098" lon="7.26307"><ele>2087.6</ele><time>2017-07-23T13:18:31Z</time></trkpt>
<trkpt lat="46.26094" lon="7.26307"><ele>2087.4</ele><time>2017-07-23T13:18:32Z</time></trkpt>
<trkpt lat="46.26084" lon="7.26304"><ele>2086.8</ele><time>2017-07-23T13:18:34Z</time></trkpt>
<trkpt lat="46.26065" lon="7.26296"><ele>2084.4</ele><time>2017-07-23T13:18:38Z</time></trkpt>
<trkpt lat="46.26045" lon="7.26286"><ele>2081</ele><time>2017-07-23T13:18:42Z</time></trkpt>
<trkpt lat="46.26034" lon="7.26282"><ele>2079.2</ele><time>2017-07-23T13:18:44Z</time></trkpt>
<trkpt lat="46.26024" lon="7.26277"><ele>2078</ele><time>2017-07-23T13:18:46Z</time></trkpt>
<trkpt lat="46.26008" lon="7.26265"><ele>2075.8</ele><time>2017-07-23T13:18:49Z</time></trkpt>
<trkpt lat="46.25991" lon="7.26255"><ele>2074.2</ele><time>2017-07-23T13:18:52Z</time></trkpt>
<trkpt lat="46.25979" lon="7.26248"><ele>2074.2</ele><time>2017-07-23T13:18:54Z</time></trkpt>
<trkpt lat="46.25959" lon="7.26232"><ele>2072.4</ele><time>2017-07-23T13:18:58Z</time></trkpt>
<trkpt lat="46.25944" lon="7.26223"><ele>2071.2</ele><time>2017-07-23T13:19:01Z</time></trkpt>
<trkpt lat="46.25936" lon="7.26219"><ele>2070</ele><time>2017-07-23T13:19:03Z</time></trkpt>
<trkpt lat="46.25921" lon="7.26226"><ele>2067.4</ele><time>2017-07-23T13:19:08Z</time></trkpt>
<trkpt lat="46.25907" lon="7.26235"><ele>2065.2</ele><time>2017-07-23T13:19:16Z</time></trkpt>
<trkpt lat="46.2589" lon="7.26244"><ele>2064</ele><time>2017-07-23T13:19:31Z</time></trkpt>
<trkpt lat="46.2587" lon="7.26252"><ele>2062</ele><time>2017-07-23T13:19:36Z</time></trkpt>
<trkpt lat="46.25857" lon="7.26258"><ele>2060.2</ele><time>2017-07-23T13:19:39Z</time></trkpt>
<trkpt lat="46.25836" lon="7.26264"><ele>2055.8</ele><time>2017-07-23T13:19:44Z</time></trkpt>
<trkpt lat="46.25816" lon="7.26271"><ele>2049.8</ele><time>2017-07-23T13:19:49Z</time></trkpt>
<trkpt lat="46.25812" lon="7.26272"><ele>2048.8</ele><time>2017-07-23T13:19:50Z</time></trkpt>
<trkpt lat="46.25805" lon="7.26277"><ele>2046.2</ele><time>2017-07-23T13:19:52Z</time></trkpt>
<trkpt lat="46.25799" lon="7.26281"><ele>2043.6</ele><time>2017-07-23T13:19:54Z</time></trkpt>
<trkpt lat="46.25791" lon="7.26283"><ele>2041.2</ele><time>2017-07-23T13:19:56Z</time></trkpt>
<trkpt lat="46.25773" lon="7.2629"><ele>2036.4</ele><time>2017-07-23T13:20:01Z</time></trkpt>
<trkpt lat="46.25754" lon="7.263"><ele>2030.6</ele><time>2017-07-23T13:20:06Z</time></trkpt>
<trkpt lat="46.25742" lon="7.26303"><ele>2027.8</ele><time>2017-07-23T13:20:09Z</time></trkpt>
<trkpt lat="46.25722" lon="7.26308"><ele>2022.8</ele><time>2017-07-23T13:20:14Z</time></trkpt>
<trkpt lat="46.25701" lon="7.26311"><ele>2017.4</ele><time>2017-07-23T13:20:19Z</time></trkpt>
<trkpt lat="46.25696" lon="7.26311"><ele>2016.8</ele><time>2017-07-23T13:20:20Z</time></trkpt>
<trkpt lat="46.25685" lon="7.26315"><ele>2014</ele><time>2017-07-23T13:20:23Z</time></trkpt>
<trkpt lat="46.25663" lon="7.26321"><ele>2008.8</ele><time>2017-07-23T13:20:28Z</time></trkpt>
<trkpt lat="46.25652" lon="7.26324"><ele>2006.4</ele><time>2017-07-23T13:20:31Z</time></trkpt>
<trkpt lat="46.25649" lon="7.26326"><ele>2005.8</ele><time>2017-07-23T13:20:32Z</time></trkpt>
<trkpt lat="46.25647" lon="7.26329"><ele>2004.8</ele><time>2017-07-23T13:20:33Z</time></trkpt>
<trkpt lat="46.25632" lon="7.26355"><ele>2000.4</ele><time>2017-07-23T13:20:40Z</time></trkpt>
<trkpt lat="46.25621" lon="7.26362"><ele>1998.4</ele><time>2017-07-23T13:20:43Z</time></trkpt>
<trkpt lat="46.25614" lon="7.26366"><ele>1996</ele><time>2017-07-23T13:20:45Z</time></trkpt>
<trkpt lat="46.2561" lon="7.26368"><ele>1994.8</ele><time>2017-07-23T13:20:46Z</time></trkpt>
<trkpt lat="46.25591" lon="7.26365"><ele>1991.2</ele><time>2017-07-23T13:20:51Z</time></trkpt>
<trkpt lat="46.25576" lon="7.26348"><ele>1985.6</ele><time>2017-07-23T13:20:58Z</time></trkpt>
<trkpt lat="46.25576" lon="7.26347"><ele>1983</ele><time>2017-07-23T13:21:01Z</time></trkpt>
<trkpt lat="46.25576" lon="7.26352"><ele>1980.6</ele><time>2017-07-23T13:21:06Z</time></trkpt>
<trkpt lat="46.25575" lon="7.26354"><ele>1979</ele><time>2017-07-23T13:21:12Z</time></trkpt>
<trkpt lat="46.2558" lon="7.26363"><ele>1979</ele><time>2017-07-23T13:21:25Z</time></trkpt>
<trkpt lat="46.25581" lon="7.26364"><ele>1979</ele><time>2017-07-23T13:21:26Z</time></trkpt>
<trkpt lat="46.25582" lon="7.26364"><ele>1979</ele><time>2017-07-23T13:21:27Z</time></trkpt>
<trkpt lat="46.25583" lon="7.26365"><ele>1979</ele><time>2017-07-23T13:21:28Z</time></trkpt>
<trkpt lat="46.25592" lon="7.26369"><ele>1978.6</ele><time>2017-07-23T13:21:33Z</time></trkpt>
<trkpt lat="46.25594" lon="7.2637"><ele>1978.6</ele><time>2017-07-23T13:21:34Z</time></trkpt>
<trkpt lat="46.25597" lon="7.2637"><ele>1978.2</ele><time>2017-07-23T13:21:35Z</time></trkpt>
<trkpt lat="46.256" lon="7.2637"><ele>1978</ele><time>2017-07-23T13:21:36Z</time></trkpt>
<trkpt lat="46.25617" lon="7.26372"><ele>1979.2</ele><time>2017-07-23T13:21:46Z</time></trkpt>
<trkpt lat="46.25616" lon="7.26374"><ele>1981.4</ele><time>2017-07-23T13:21:49Z</time></trkpt>
<trkpt lat="46.25619" lon="7.26377"><ele>1982.2</ele><time>2017-07-23T13:21:53Z</time></trkpt>
<trkpt lat="46.25622" lon="7.26379"><ele>1982.6</ele><time>2017-07-23T13:21:57Z</time></trkpt>
<trkpt lat="46.2562" lon="7.26379"><ele>1982</ele><time>2017-07-23T13:21:58Z</time></trkpt>
<trkpt lat="46.25619" lon="7.26378"><ele>1981.2</ele><time>2017-07-23T13:22:00Z</time></trkpt>
<trkpt lat="46.25619" lon="7.26378"><ele>1980.8</ele><time>2017-07-23T13:22:02Z</time></trkpt>
<trkpt lat="46.25615" lon="7.26376"><ele>1985.2</ele><time>2017-07-23T13:22:20Z</time></trkpt>
<trkpt lat="46.25604" lon="7.2638"><ele>1987</ele><time>2017-07-23T13:22:36Z</time></trkpt>
<trkpt lat="46.25599" lon="7.26377"><ele>1987</ele><time>2017-07-23T13:22:38Z</time></trkpt>
<trkpt lat="46.25591" lon="7.26358"><ele>1986.8</ele><time>2017-07-23T13:22:43Z</time></trkpt>
<trkpt lat="46.25573" lon="7.26349"><ele>1987.4</ele><time>2017-07-23T13:22:49Z</time></trkpt>
<trkpt lat="46.25567" lon="7.26339"><ele>1987.8</ele><time>2017-07-23T13:22:58Z</time></trkpt>
<trkpt lat="46.25565" lon="7.2634"><ele>1986.8</ele><time>2017-07-23T13:23:19Z</time></trkpt>
<trkpt lat="46.25566" lon="7.26343"><ele>1986.6</ele><time>2017-07-23T13:23:24Z</time></trkpt>
<trkpt lat="46.2557" lon="7.26345"><ele>1985.2</ele><time>2017-07-23T13:23:47Z</time></trkpt>
<trkpt lat="46.25566" lon="7.26343"><ele>1985</ele><time>2017-07-23T13:23:54Z</time></trkpt>
<trkpt lat="46.25548" lon="7.26333"><ele>1984.2</ele><time>2017-07-23T13:24:02Z</time></trkpt>
<trkpt lat="46.25526" lon="7.26329"><ele>1982.8</ele><time>2017-07-23T13:24:08Z</time></trkpt>
<trkpt lat="46.25508" lon="7.26325"><ele>1981.2</ele><time>2017-07-23T13:24:12Z</time></trkpt>
<trkpt lat="46.25488" lon="7.26319"><ele>1979.4</ele><time>2017-07-23T13:24:16Z</time></trkpt>
<trkpt lat="46.25465" lon="7.26314"><ele>1977.8</ele><time>2017-07-23T13:24:20Z</time></trkpt>
<trkpt lat="46.25453" lon="7.2631"><ele>1977</ele><time>2017-07-23T13:24:22Z</time></trkpt>
<trkpt lat="46.25437" lon="7.26303"><ele>1975.8</ele><time>2017-07-23T13:24:25Z</time></trkpt>
<trkpt lat="46.25422" lon="7.26294"><ele>1974.2</ele><time>2017-07-23T13:24:28Z</time></trkpt>
<trkpt lat="46.25405" lon="7.26284"><ele>1972.4</ele><time>2017-07-23T13:24:31Z</time></trkpt>
<trkpt lat="46.25386" lon="7.26276"><ele>1967.6</ele><time>2017-07-23T13:24:35Z</time></trkpt>
<trkpt lat="46.25382" lon="7.26274"><ele>1966.2</ele><time>2017-07-23T13:24:36Z</time></trkpt>
<trkpt lat="46.25371" lon="7.26268"><ele>1963</ele><time>2017-07-23T13:24:38Z</time></trkpt>
<trkpt lat="46.25358" lon="7.26262"><ele>1958.8</ele><time>2017-07-23T13:24:41Z</time></trkpt>
<trkpt lat="46.2535" lon="7.26258"><ele>1955.8</ele><time>2017-07-23T13:24:44Z</time></trkpt>
<trkpt lat="46.25344" lon="7.2626"><ele>1950.8</ele><time>2017-07-23T13:24:49Z</time></trkpt>
<trkpt lat="46.25342" lon="7.26265"><ele>1948</ele><time>2017-07-23T13:24:52Z</time></trkpt>
<trkpt lat="46.25341" lon="7.26276"><ele>1945</ele><time>2017-07-23T13:24:56Z</time></trkpt>
<trkpt lat="46.2534" lon="7.26291"><ele>1942.6</ele><time>2017-07-23T13:25:00Z</time></trkpt>
<trkpt lat="46.25336" lon="7.26307"><ele>1939.4</ele><time>2017-07-23T13:25:04Z</time></trkpt>
<trkpt lat="46.25333" lon="7.26331"><ele>1932.2</ele><time>2017-07-23T13:25:13Z</time></trkpt>
<trkpt lat="46.2534" lon="7.26357"><ele>1928.4</ele><time>2017-07-23T13:25:26Z</time></trkpt>
<trkpt lat="46.2535" lon="7.26381"><ele>1923.6</ele><time>2017-07-23T13:25:32Z</time></trkpt>
<trkpt lat="46.25356" lon="7.26394"><ele>1921.8</ele><time>2017-07-23T13:25:34Z</time></trkpt>
<trkpt lat="46.25362" lon="7.26424"><ele>1917.4</ele><time>2017-07-23T13:25:40Z</time></trkpt>
<trkpt lat="46.25374" lon="7.26444"><ele>1912.2</ele><time>2017-07-23T13:25:46Z</time></trkpt>
<trkpt lat="46.2538" lon="7.26453"><ele>1910.6</ele><time>2017-07-23T13:25:49Z</time></trkpt>
<trkpt lat="46.25381" lon="7.26456"><ele>1909.6</ele><time>2017-07-23T13:25:50Z</time></trkpt>
<trkpt lat="46.25379" lon="7.2646"><ele>1906.4</ele><time>2017-07-23T13:25:53Z</time></trkpt>
<trkpt lat="46.25377" lon="7.2646"><ele>1905.2</ele><time>2017-07-23T13:25:54Z</time></trkpt>
<trkpt lat="46.25376" lon="7.26458"><ele>1903.8</ele><time>2017-07-23T13:25:55Z</time></trkpt>
<trkpt lat="46.25374" lon="7.26456"><ele>1902.6</ele><time>2017-07-23T13:25:56Z</time></trkpt>
<trkpt lat="46.25357" lon="7.26441"><ele>1897.2</ele><time>2017-07-23T13:26:02Z</time></trkpt>
<trkpt lat="46.25348" lon="7.26431"><ele>1894.4</ele><time>2017-07-23T13:26:06Z</time></trkpt>
<trkpt lat="46.25329" lon="7.26419"><ele>1889.2</ele><time>2017-07-23T13:26:10Z</time></trkpt>
<trkpt lat="46.2531" lon="7.26408"><ele>1887.4</ele><time>2017-07-23T13:26:14Z</time></trkpt>
<trkpt lat="46.25294" lon="7.26397"><ele>1886.2</ele><time>2017-07-23T13:26:18Z</time></trkpt>
<trkpt lat="46.25289" lon="7.2639"><ele>1885.8</ele><time>2017-07-23T13:26:20Z</time></trkpt>
<trkpt lat="46.2529" lon="7.26408"><ele>1882.2</ele><time>2017-07-23T13:26:27Z</time></trkpt>
<trkpt lat="46.25304" lon="7.26428"><ele>1881</ele><time>2017-07-23T13:26:33Z</time></trkpt>
<trkpt lat="46.2531" lon="7.26443"><ele>1879.8</ele><time>2017-07-23T13:26:37Z</time></trkpt>
<trkpt lat="46.25295" lon="7.26448"><ele>1877.2</ele><time>2017-07-23T13:26:44Z</time></trkpt>
<trkpt lat="46.25277" lon="7.26437"><ele>1876.4</ele><time>2017-07-23T13:26:48Z</time></trkpt>
<trkpt lat="46.25268" lon="7.26432"><ele>1876.2</ele><time>2017-07-23T13:26:50Z</time></trkpt>
<trkpt lat="46.25254" lon="7.26421"><ele>1874.6</ele><time>2017-07-23T13:26:53Z</time></trkpt>
<trkpt lat="46.25249" lon="7.26418"><ele>1874</ele><time>2017-07-23T13:26:54Z</time></trkpt>
<trkpt lat="46.25228" lon="7.26406"><ele>1869.4</ele><time>2017-07-23T13:26:58Z</time></trkpt>
<trkpt lat="46.25223" lon="7.26404"><ele>1868.2</ele><time>2017-07-23T13:26:59Z</time></trkpt>
<trkpt lat="46.25211" lon="7.26399"><ele>1865.4</ele><time>2017-07-23T13:27:02Z</time></trkpt>
<trkpt lat="46.25202" lon="7.26392"><ele>1862.8</ele><time>2017-07-23T13:27:05Z</time></trkpt>
<trkpt lat="46.25187" lon="7.26383"><ele>1859</ele><time>2017-07-23T13:27:10Z</time></trkpt>
<trkpt lat="46.25177" lon="7.26381"><ele>1856.6</ele><time>2017-07-23T13:27:13Z</time></trkpt>
<trkpt lat="46.25155" lon="7.26375"><ele>1852</ele><time>2017-07-23T13:27:18Z</time></trkpt>
<trkpt lat="46.25136" lon="7.26369"><ele>1847.2</ele><time>2017-07-23T13:27:22Z</time></trkpt>
<trkpt lat="46.25129" lon="7.26366"><ele>1844.8</ele><time>2017-07-23T13:27:24Z</time></trkpt>
<trkpt lat="46.25122" lon="7.26362"><ele>1843.2</ele><time>2017-07-23T13:27:26Z</time></trkpt>
<trkpt lat="46.25118" lon="7.26369"><ele>1841</ele><time>2017-07-23T13:27:30Z</time></trkpt>
<trkpt lat="46.25119" lon="7.26371"><ele>1840.2</ele><time>2017-07-23T13:27:31Z</time></trkpt>
<trkpt lat="46.25135" lon="7.2639"><ele>1834.6</ele><time>2017-07-23T13:27:37Z</time></trkpt>
<trkpt lat="46.25152" lon="7.26408"><ele>1829</ele><time>2017-07-23T13:27:43Z</time></trkpt>
<trkpt lat="46.25157" lon="7.26415"><ele>1826.6</ele><time>2017-07-23T13:27:45Z</time></trkpt>
<trkpt lat="46.25171" lon="7.26433"><ele>1821</ele><time>2017-07-23T13:27:50Z</time></trkpt>
<trkpt lat="46.25184" lon="7.26452"><ele>1816.2</ele><time>2017-07-23T13:27:54Z</time></trkpt>
<trkpt lat="46.25197" lon="7.26474"><ele>1812.8</ele><time>2017-07-23T13:27:58Z</time></trkpt>
<trkpt lat="46.25209" lon="7.26501"><ele>1809.2</ele><time>2017-07-23T13:28:03Z</time></trkpt>
<trkpt lat="46.25219" lon="7.26528"><ele>1804.8</ele><time>2017-07-23T13:28:08Z</time></trkpt>
<trkpt lat="46.25224" lon="7.26538"><ele>1803.4</ele><time>2017-07-23T13:28:10Z</time></trkpt>
<trkpt lat="46.25224" lon="7.26556"><ele>1800.2</ele><time>2017-07-23T13:28:14Z</time></trkpt>
<trkpt lat="46.25223" lon="7.26563"><ele>1799.2</ele><time>2017-07-23T13:28:16Z</time></trkpt>
<trkpt lat="46.25223" lon="7.2657"><ele>1798.2</ele><time>2017-07-23T13:28:18Z</time></trkpt>
<trkpt lat="46.25227" lon="7.26588"><ele>1795</ele><time>2017-07-23T13:28:26Z</time></trkpt>
<trkpt lat="46.25233" lon="7.26599"><ele>1792.6</ele><time>2017-07-23T13:28:30Z</time></trkpt>
<trkpt lat="46.25247" lon="7.26619"><ele>1787.8</ele><time>2017-07-23T13:28:36Z</time></trkpt>
<trkpt lat="46.25256" lon="7.26644"><ele>1782</ele><time>2017-07-23T13:28:43Z</time></trkpt>
<trkpt lat="46.25269" lon="7.26662"><ele>1778.2</ele><time>2017-07-23T13:28:47Z</time></trkpt>
<trkpt lat="46.25285" lon="7.26679"><ele>1774.6</ele><time>2017-07-23T13:28:51Z</time></trkpt>
<trkpt lat="46.25299" lon="7.26701"><ele>1771.8</ele><time>2017-07-23T13:28:56Z</time></trkpt>
<trkpt lat="46.25316" lon="7.26714"><ele>1768.8</ele><time>2017-07-23T13:29:00Z</time></trkpt>
<trkpt lat="46.25323" lon="7.26716"><ele>1768</ele><time>2017-07-23T13:29:02Z</time></trkpt>
<trkpt lat="46.25333" lon="7.26723"><ele>1767.4</ele><time>2017-07-23T13:29:07Z</time></trkpt>
<trkpt lat="46.25315" lon="7.26729"><ele>1765</ele><time>2017-07-23T13:29:14Z</time></trkpt>
<trkpt lat="46.25295" lon="7.26721"><ele>1761.4</ele><time>2017-07-23T13:29:20Z</time></trkpt>
<trkpt lat="46.25276" lon="7.26709"><ele>1759</ele><time>2017-07-23T13:29:25Z</time></trkpt>
<trkpt lat="46.25258" lon="7.26701"><ele>1756.8</ele><time>2017-07-23T13:29:29Z</time></trkpt>
<trkpt lat="46.2524" lon="7.26696"><ele>1753.6</ele><time>2017-07-23T13:29:34Z</time></trkpt>
<trkpt lat="46.25236" lon="7.26695"><ele>1753</ele><time>2017-07-23T13:29:35Z</time></trkpt>
<trkpt lat="46.2522" lon="7.26678"><ele>1751</ele><time>2017-07-23T13:29:40Z</time></trkpt>
<trkpt lat="46.25205" lon="7.26653"><ele>1750.4</ele><time>2017-07-23T13:29:45Z</time></trkpt>
<trkpt lat="46.25187" lon="7.26634"><ele>1749.6</ele><time>2017-07-23T13:29:49Z</time></trkpt>
<trkpt lat="46.25171" lon="7.26624"><ele>1748.4</ele><time>2017-07-23T13:29:53Z</time></trkpt>
<trkpt lat="46.25163" lon="7.26627"><ele>1744.6</ele><time>2017-07-23T13:29:58Z</time></trkpt>
<trkpt lat="46.25164" lon="7.26633"><ele>1743.6</ele><time>2017-07-23T13:30:00Z</time></trkpt>
<trkpt lat="46.25165" lon="7.26635"><ele>1743</ele><time>2017-07-23T13:30:01Z</time></trkpt>
<trkpt lat="46.25167" lon="7.26637"><ele>1742.4</ele><time>2017-07-23T13:30:02Z</time></trkpt>
<trkpt lat="46.25182" lon="7.26653"><ele>1738.2</ele><time>2017-07-23T13:30:08Z</time></trkpt>
<trkpt lat="46.25191" lon="7.26682"><ele>1733.8</ele><time>2017-07-23T13:30:14Z</time></trkpt>
<trkpt lat="46.25201" lon="7.26706"><ele>1729.2</ele><time>2017-07-23T13:30:20Z</time></trkpt>
<trkpt lat="46.25205" lon="7.2671"><ele>1727.8</ele><time>2017-07-23T13:30:22Z</time></trkpt>
<trkpt lat="46.25219" lon="7.26727"><ele>1724.8</ele><time>2017-07-23T13:30:29Z</time></trkpt>
<trkpt lat="46.25229" lon="7.26753"><ele>1720.6</ele><time>2017-07-23T13:30:35Z</time></trkpt>
<trkpt lat="46.25242" lon="7.26775"><ele>1716.6</ele><time>2017-07-23T13:30:40Z</time></trkpt>
<trkpt lat="46.25258" lon="7.26792"><ele>1712.4</ele><time>2017-07-23T13:30:44Z</time></trkpt>
<trkpt lat="46.2527" lon="7.2681"><ele>1709.6</ele><time>2017-07-23T13:30:47Z</time></trkpt>
<trkpt lat="46.25283" lon="7.26837"><ele>1706.4</ele><time>2017-07-23T13:30:51Z</time></trkpt>
<trkpt lat="46.25285" lon="7.26845"><ele>1705.8</ele><time>2017-07-23T13:30:52Z</time></trkpt>
<trkpt lat="46.25291" lon="7.26868"><ele>1702.6</ele><time>2017-07-23T13:30:56Z</time></trkpt>
<trkpt lat="46.25294" lon="7.26874"><ele>1701.8</ele><time>2017-07-23T13:30:57Z</time></trkpt>
<trkpt lat="46.25308" lon="7.26894"><ele>1700.4</ele><time>2017-07-23T13:31:01Z</time></trkpt>
<trkpt lat="46.25315" lon="7.26901"><ele>1699</ele><time>2017-07-23T13:31:03Z</time></trkpt>
<trkpt lat="46.25327" lon="7.26909"><ele>1696.8</ele><time>2017-07-23T13:31:06Z</time></trkpt>
<trkpt lat="46.25334" lon="7.26915"><ele>1695.4</ele><time>2017-07-23T13:31:08Z</time></trkpt>
<trkpt lat="46.25341" lon="7.26939"><ele>1693.2</ele><time>2017-07-23T13:31:12Z</time></trkpt>
<trkpt lat="46.25343" lon="7.2695"><ele>1692.2</ele><time>2017-07-23T13:31:14Z</time></trkpt>
<trkpt lat="46.2536" lon="7.26972"><ele>1688.6</ele><time>2017-07-23T13:31:19Z</time></trkpt>
<trkpt lat="46.25375" lon="7.26989"><ele>1685.8</ele><time>2017-07-23T13:31:23Z</time></trkpt>
<trkpt lat="46.25384" lon="7.27001"><ele>1683.6</ele><time>2017-07-23T13:31:26Z</time></trkpt>
<trkpt lat="46.2539" lon="7.27011"><ele>1682</ele><time>2017-07-23T13:31:28Z</time></trkpt>
<trkpt lat="46.25396" lon="7.27034"><ele>1679.2</ele><time>2017-07-23T13:31:32Z</time></trkpt>
<trkpt lat="46.25401" lon="7.27052"><ele>1677.6</ele><time>2017-07-23T13:31:36Z</time></trkpt>
<trkpt lat="46.25403" lon="7.27056"><ele>1676.8</ele><time>2017-07-23T13:31:37Z</time></trkpt>
<trkpt lat="46.25411" lon="7.2707"><ele>1675</ele><time>2017-07-23T13:31:40Z</time></trkpt>
<trkpt lat="46.25415" lon="7.27081"><ele>1673.8</ele><time>2017-07-23T13:31:42Z</time></trkpt>
<trkpt lat="46.25429" lon="7.27103"><ele>1670.4</ele><time>2017-07-23T13:31:47Z</time></trkpt>
<trkpt lat="46.25441" lon="7.27126"><ele>1667.2</ele><time>2017-07-23T13:31:52Z</time></trkpt>
<trkpt lat="46.25453" lon="7.27144"><ele>1664</ele><time>2017-07-23T13:31:56Z</time></trkpt>
<trkpt lat="46.25464" lon="7.2716"><ele>1661.8</ele><time>2017-07-23T13:31:59Z</time></trkpt>
<trkpt lat="46.25472" lon="7.2717"><ele>1659.6</ele><time>2017-07-23T13:32:01Z</time></trkpt>
<trkpt lat="46.25482" lon="7.27185"><ele>1657</ele><time>2017-07-23T13:32:04Z</time></trkpt>
<trkpt lat="46.25491" lon="7.27206"><ele>1653.4</ele><time>2017-07-23T13:32:08Z</time></trkpt>
<trkpt lat="46.25505" lon="7.27224"><ele>1649</ele><time>2017-07-23T13:32:12Z</time></trkpt>
<trkpt lat="46.25517" lon="7.2725"><ele>1644.6</ele><time>2017-07-23T13:32:17Z</time></trkpt>
<trkpt lat="46.25529" lon="7.27264"><ele>1641.2</ele><time>2017-07-23T13:32:21Z</time></trkpt>
<trkpt lat="46.25533" lon="7.27268"><ele>1640.4</ele><time>2017-07-23T13:32:22Z</time></trkpt>
<trkpt lat="46.25548" lon="7.27289"><ele>1636.8</ele><time>2017-07-23T13:32:26Z</time></trkpt>
<trkpt lat="46.25555" lon="7.27298"><ele>1634.8</ele><time>2017-07-23T13:32:28Z</time></trkpt>
<trkpt lat="46.25561" lon="7.27307"><ele>1632.8</ele><time>2017-07-23T13:32:30Z</time></trkpt>
<trkpt lat="46.2558" lon="7.27322"><ele>1628.4</ele><time>2017-07-23T13:32:35Z</time></trkpt>
<trkpt lat="46.25585" lon="7.27324"><ele>1627.8</ele><time>2017-07-23T13:32:36Z</time></trkpt>
<trkpt lat="46.25593" lon="7.27328"><ele>1626</ele><time>2017-07-23T13:32:38Z</time></trkpt>
<trkpt lat="46.25605" lon="7.27336"><ele>1623.6</ele><time>2017-07-23T13:32:41Z</time></trkpt>
<trkpt lat="46.25609" lon="7.27338"><ele>1623</ele><time>2017-07-23T13:32:42Z</time></trkpt>
<trkpt lat="46.25612" lon="7.27342"><ele>1622.4</ele><time>2017-07-23T13:32:43Z</time></trkpt>
<trkpt lat="46.25626" lon="7.2736"><ele>1618.8</ele><time>2017-07-23T13:32:47Z</time></trkpt>
<trkpt lat="46.25636" lon="7.27372"><ele>1616.4</ele><time>2017-07-23T13:32:50Z</time></trkpt>
<trkpt lat="46.25651" lon="7.27383"><ele>1612.6</ele><time>2017-07-23T13:32:54Z</time></trkpt>
<trkpt lat="46.25659" lon="7.27387"><ele>1610.6</ele><time>2017-07-23T13:32:56Z</time></trkpt>
<trkpt lat="46.25672" lon="7.27405"><ele>1605.4</ele><time>2017-07-23T13:33:00Z</time></trkpt>
<trkpt lat="46.25679" lon="7.27419"><ele>1603</ele><time>2017-07-23T13:33:03Z</time></trkpt>
<trkpt lat="46.25681" lon="7.27434"><ele>1600</ele><time>2017-07-23T13:33:09Z</time></trkpt>
<trkpt lat="46.25676" lon="7.27433"><ele>1599.2</ele><time>2017-07-23T13:33:11Z</time></trkpt>
<trkpt lat="46.25673" lon="7.27432"><ele>1599</ele><time>2017-07-23T13:33:12Z</time></trkpt>
<trkpt lat="46.25654" lon="7.27424"><ele>1598.2</ele><time>2017-07-23T13:33:17Z</time></trkpt>
<trkpt lat="46.25634" lon="7.27426"><ele>1597.4</ele><time>2017-07-23T13:33:22Z</time></trkpt>
<trkpt lat="46.25612" lon="7.27426"><ele>1594</ele><time>2017-07-23T13:33:26Z</time></trkpt>
<trkpt lat="46.25593" lon="7.27424"><ele>1590.6</ele><time>2017-07-23T13:33:30Z</time></trkpt>
<trkpt lat="46.25588" lon="7.27423"><ele>1589.6</ele><time>2017-07-23T13:33:31Z</time></trkpt>
<trkpt lat="46.25571" lon="7.27417"><ele>1586.6</ele><time>2017-07-23T13:33:35Z</time></trkpt>
<trkpt lat="46.25567" lon="7.27415"><ele>1586</ele><time>2017-07-23T13:33:36Z</time></trkpt>
<trkpt lat="46.25555" lon="7.27409"><ele>1583.2</ele><time>2017-07-23T13:33:39Z</time></trkpt>
<trkpt lat="46.25538" lon="7.27405"><ele>1579.4</ele><time>2017-07-23T13:33:43Z</time></trkpt>
<trkpt lat="46.25521" lon="7.27404"><ele>1575.6</ele><time>2017-07-23T13:33:47Z</time></trkpt>
<trkpt lat="46.25516" lon="7.27404"><ele>1574.8</ele><time>2017-07-23T13:33:48Z</time></trkpt>
<trkpt lat="46.25513" lon="7.27403"><ele>1574</ele><time>2017-07-23T13:33:49Z</time></trkpt>
<trkpt lat="46.25505" lon="7.27403"><ele>1572.2</ele><time>2017-07-23T13:33:51Z</time></trkpt>
<trkpt lat="46.25497" lon="7.27402"><ele>1569.6</ele><time>2017-07-23T13:33:53Z</time></trkpt>
<trkpt lat="46.25487" lon="7.27403"><ele>1567.2</ele><time>2017-07-23T13:33:55Z</time></trkpt>
<trkpt lat="46.25469" lon="7.2741"><ele>1564.6</ele><time>2017-07-23T13:34:00Z</time></trkpt>
<trkpt lat="46.25464" lon="7.27412"><ele>1563.6</ele><time>2017-07-23T13:34:02Z</time></trkpt>
<trkpt lat="46.25447" lon="7.27406"><ele>1561</ele><time>2017-07-23T13:34:07Z</time></trkpt>
<trkpt lat="46.25428" lon="7.27404"><ele>1558.4</ele><time>2017-07-23T13:34:11Z</time></trkpt>
<trkpt lat="46.25411" lon="7.27402"><ele>1554.8</ele><time>2017-07-23T13:34:15Z</time></trkpt>
<trkpt lat="46.25393" lon="7.27393"><ele>1549.4</ele><time>2017-07-23T13:34:19Z</time></trkpt>
<trkpt lat="46.25375" lon="7.27378"><ele>1543.2</ele><time>2017-07-23T13:34:23Z</time></trkpt>
<trkpt lat="46.25368" lon="7.27371"><ele>1541.6</ele><time>2017-07-23T13:34:25Z</time></trkpt>
<trkpt lat="46.25353" lon="7.27371"><ele>1539.6</ele><time>2017-07-23T13:34:29Z</time></trkpt>
<trkpt lat="46.25335" lon="7.27375"><ele>1535.4</ele><time>2017-07-23T13:34:36Z</time></trkpt>
<trkpt lat="46.25324" lon="7.27363"><ele>1533</ele><time>2017-07-23T13:34:40Z</time></trkpt>
<trkpt lat="46.25318" lon="7.27355"><ele>1531.2</ele><time>2017-07-23T13:34:42Z</time></trkpt>
<trkpt lat="46.253" lon="7.27349"><ele>1527.8</ele><time>2017-07-23T13:34:46Z</time></trkpt>
<trkpt lat="46.25284" lon="7.27368"><ele>1521.8</ele><time>2017-07-23T13:34:51Z</time></trkpt>
<trkpt lat="46.25284" lon="7.27396"><ele>1517.4</ele><time>2017-07-23T13:34:56Z</time></trkpt>
<trkpt lat="46.25284" lon="7.27406"><ele>1517</ele><time>2017-07-23T13:34:58Z</time></trkpt>
<trkpt lat="46.25276" lon="7.27425"><ele>1514</ele><time>2017-07-23T13:35:02Z</time></trkpt>
<trkpt lat="46.2527" lon="7.27436"><ele>1511.8</ele><time>2017-07-23T13:35:05Z</time></trkpt>
<trkpt lat="46.25253" lon="7.2743"><ele>1507.4</ele><time>2017-07-23T13:35:10Z</time></trkpt>
<trkpt lat="46.25238" lon="7.27443"><ele>1503.2</ele><time>2017-07-23T13:35:15Z</time></trkpt>
<trkpt lat="46.25232" lon="7.27469"><ele>1500.8</ele><time>2017-07-23T13:35:20Z</time></trkpt>
<trkpt lat="46.25229" lon="7.27486"><ele>1498</ele><time>2017-07-23T13:35:23Z</time></trkpt>
<trkpt lat="46.25227" lon="7.27516"><ele>1492.6</ele><time>2017-07-23T13:35:28Z</time></trkpt>
<trkpt lat="46.25224" lon="7.27537"><ele>1490</ele><time>2017-07-23T13:35:34Z</time></trkpt>
<trkpt lat="46.25222" lon="7.27542"><ele>1490.6</ele><time>2017-07-23T13:35:36Z</time></trkpt>
<trkpt lat="46.25218" lon="7.27546"><ele>1490.4</ele><time>2017-07-23T13:35:38Z</time></trkpt>
<trkpt lat="46.25215" lon="7.27549"><ele>1490.4</ele><time>2017-07-23T13:35:40Z</time></trkpt>
<trkpt lat="46.25214" lon="7.27549"><ele>1490.8</ele><time>2017-07-23T13:35:52Z</time></trkpt>
<trkpt lat="46.25214" lon="7.27549"><ele>1490.2</ele><time>2017-07-23T13:36:08Z</time></trkpt>
<trkpt lat="46.25214" lon="7.2755"><ele>1490.6</ele><time>2017-07-23T13:36:14Z</time></trkpt>
<trkpt lat="46.25213" lon="7.27549"><ele>1490.8</ele><time>2017-07-23T13:36:20Z</time></trkpt>
<trkpt lat="46.25208" lon="7.27548"><ele>1490.8</ele><time>2017-07-23T13:36:23Z</time></trkpt>
<trkpt lat="46.25207" lon="7.27548"><ele>1490.6</ele><time>2017-07-23T13:36:25Z</time></trkpt>
<trkpt lat="46.25207" lon="7.27548"><ele>1490.4</ele><time>2017-07-23T13:36:31Z</time></trkpt>
<trkpt lat="46.25208" lon="7.27547"><ele>1490.2</ele><time>2017-07-23T13:36:53Z</time></trkpt>
<trkpt lat="46.25207" lon="7.27547"><ele>1490.6</ele><time>2017-07-23T13:37:05Z</time></trkpt>
<trkpt lat="46.25207" lon="7.27548"><ele>1490.6</ele><time>2017-07-23T13:37:09Z</time></trkpt>
<trkpt lat="46.25207" lon="7.27548"><ele>1490.6</ele><time>2017-07-23T13:37:14Z</time></trkpt>
<trkpt lat="46.25207" lon="7.27548"><ele>1490.6</ele><time>2017-07-23T13:37:15Z</time></trkpt>
<trkpt lat="46.25206" lon="7.27548"><ele>1490.4</ele><time>2017-07-23T13:37:18Z</time></trkpt>
<trkpt lat="46.25206" lon="7.27549"><ele>1490.4</ele><time>2017-07-23T13:37:22Z</time></trkpt>
<trkpt lat="46.25206" lon="7.27551"><ele>1490.6</ele><time>2017-07-23T13:37:34Z</time></trkpt>
<trkpt lat="46.25206" lon="7.27551"><ele>1490.6</ele><time>2017-07-23T13:37:35Z</time></trkpt>
<trkpt lat="46.25206" lon="7.27551"><ele>1490.2</ele><time>2017-07-23T13:37:41Z</time></trkpt>
<trkpt lat="46.25206" lon="7.2755"><ele>1490</ele><time>2017-07-23T13:37:47Z</time></trkpt>
<trkpt lat="46.25206" lon="7.2755"><ele>1490</ele><time>2017-07-23T13:37:54Z</time></trkpt>
<trkpt lat="46.25206" lon="7.27549"><ele>1490</ele><time>2017-07-23T13:37:56Z</time></trkpt>
<trkpt lat="46.25205" lon="7.27549"><ele>1489.8</ele><time>2017-07-23T13:37:59Z</time></trkpt>
<trkpt lat="46.25205" lon="7.27549"><ele>1489.8</ele><time>2017-07-23T13:38:02Z</time></trkpt>
<trkpt lat="46.25205" lon="7.27549"><ele>1489.6</ele><time>2017-07-23T13:38:05Z</time></trkpt>
<trkpt lat="46.25206" lon="7.2755"><ele>1489.4</ele><time>2017-07-23T13:38:08Z</time></trkpt>
<trkpt lat="46.25206" lon="7.2755"><ele>1490</ele><time>2017-07-23T13:38:18Z</time></trkpt>
<trkpt lat="46.25206" lon="7.2755"><ele>1490</ele><time>2017-07-23T13:38:20Z</time></trkpt>
<trkpt lat="46.25206" lon="7.2755"><ele>1490.2</ele><time>2017-07-23T13:38:23Z</time></trkpt>
<trkpt lat="46.25206" lon="7.2755"><ele>1490.6</ele><time>2017-07-23T13:38:33Z</time></trkpt>
<trkpt lat="46.25206" lon="7.2755"><ele>1490.8</ele><time>2017-07-23T13:38:38Z</time></trkpt>
<trkpt lat="46.25206" lon="7.27548"><ele>1490.2</ele><time>2017-07-23T13:38:48Z</time></trkpt>
<trkpt lat="46.25203" lon="7.27543"><ele>1490</ele><time>2017-07-23T13:38:53Z</time></trkpt>
<trkpt lat="46.25198" lon="7.27536"><ele>1489.8</ele><time>2017-07-23T13:39:00Z</time></trkpt>
<trkpt lat="46.25184" lon="7.27517"><ele>1489.2</ele><time>2017-07-23T13:39:05Z</time></trkpt>
<trkpt lat="46.25171" lon="7.275"><ele>1488</ele><time>2017-07-23T13:39:08Z</time></trkpt>
<trkpt lat="46.25153" lon="7.27483"><ele>1486</ele><time>2017-07-23T13:39:11Z</time></trkpt>
<trkpt lat="46.25133" lon="7.27461"><ele>1484.2</ele><time>2017-07-23T13:39:14Z</time></trkpt>
<trkpt lat="46.25113" lon="7.27439"><ele>1482</ele><time>2017-07-23T13:39:17Z</time></trkpt>
<trkpt lat="46.25093" lon="7.27422"><ele>1479.8</ele><time>2017-07-23T13:39:20Z</time></trkpt>
<trkpt lat="46.25079" lon="7.2744"><ele>1478.8</ele><time>2017-07-23T13:39:24Z</time></trkpt>
<trkpt lat="46.25091" lon="7.27465"><ele>1476.2</ele><time>2017-07-23T13:39:27Z</time></trkpt>
<trkpt lat="46.25105" lon="7.27494"><ele>1473.8</ele><time>2017-07-23T13:39:30Z</time></trkpt>
<trkpt lat="46.25113" lon="7.27526"><ele>1471.4</ele><time>2017-07-23T13:39:33Z</time></trkpt>
<trkpt lat="46.25119" lon="7.2756"><ele>1468.4</ele><time>2017-07-23T13:39:36Z</time></trkpt>
<trkpt lat="46.25124" lon="7.27582"><ele>1466.6</ele><time>2017-07-23T13:39:38Z</time></trkpt>
<trkpt lat="46.25135" lon="7.27608"><ele>1463.8</ele><time>2017-07-23T13:39:41Z</time></trkpt>
<trkpt lat="46.25149" lon="7.27621"><ele>1461.8</ele><time>2017-07-23T13:39:44Z</time></trkpt>
<trkpt lat="46.25162" lon="7.27627"><ele>1460.8</ele><time>2017-07-23T13:39:46Z</time></trkpt>
<trkpt lat="46.25177" lon="7.27631"><ele>1459.2</ele><time>2017-07-23T13:39:48Z</time></trkpt>
<trkpt lat="46.25192" lon="7.27638"><ele>1456.6</ele><time>2017-07-23T13:39:50Z</time></trkpt>
<trkpt lat="46.25207" lon="7.27654"><ele>1454.8</ele><time>2017-07-23T13:39:52Z</time></trkpt>
<trkpt lat="46.25216" lon="7.27678"><ele>1453</ele><time>2017-07-23T13:39:54Z</time></trkpt>
<trkpt lat="46.25219" lon="7.2769"><ele>1452.4</ele><time>2017-07-23T13:39:55Z</time></trkpt>
<trkpt lat="46.25229" lon="7.27718"><ele>1450.8</ele><time>2017-07-23T13:39:58Z</time></trkpt>
<trkpt lat="46.25247" lon="7.27723"><ele>1450</ele><time>2017-07-23T13:40:01Z</time></trkpt>
<trkpt lat="46.25253" lon="7.27717"><ele>1449.6</ele><time>2017-07-23T13:40:02Z</time></trkpt>
<trkpt lat="46.25257" lon="7.27709"><ele>1449.2</ele><time>2017-07-23T13:40:03Z</time></trkpt>
<trkpt lat="46.25262" lon="7.27702"><ele>1448.6</ele><time>2017-07-23T13:40:04Z</time></trkpt>
<trkpt lat="46.25282" lon="7.27694"><ele>1447</ele><time>2017-07-23T13:40:07Z</time></trkpt>
<trkpt lat="46.25304" lon="7.27708"><ele>1444.6</ele><time>2017-07-23T13:40:10Z</time></trkpt>
<trkpt lat="46.25317" lon="7.27723"><ele>1443.4</ele><time>2017-07-23T13:40:12Z</time></trkpt>
<trkpt lat="46.25329" lon="7.27737"><ele>1442.2</ele><time>2017-07-23T13:40:14Z</time></trkpt>
<trkpt lat="46.25349" lon="7.27743"><ele>1440</ele><time>2017-07-23T13:40:18Z</time></trkpt>
<trkpt lat="46.25353" lon="7.27744"><ele>1439.6</ele><time>2017-07-23T13:40:19Z</time></trkpt>
<trkpt lat="46.25369" lon="7.27748"><ele>1437.2</ele><time>2017-07-23T13:40:23Z</time></trkpt>
<trkpt lat="46.2539" lon="7.27761"><ele>1435.2</ele><time>2017-07-23T13:40:27Z</time></trkpt>
<trkpt lat="46.25397" lon="7.27764"><ele>1434.6</ele><time>2017-07-23T13:40:28Z</time></trkpt>
<trkpt lat="46.25411" lon="7.2777"><ele>1433</ele><time>2017-07-23T13:40:30Z</time></trkpt>
<trkpt lat="46.2543" lon="7.27791"><ele>1430.4</ele><time>2017-07-23T13:40:33Z</time></trkpt>
<trkpt lat="46.25435" lon="7.27801"><ele>1429.4</ele><time>2017-07-23T13:40:34Z</time></trkpt>
<trkpt lat="46.25446" lon="7.27823"><ele>1428</ele><time>2017-07-23T13:40:36Z</time></trkpt>
<trkpt lat="46.25458" lon="7.27845"><ele>1426.6</ele><time>2017-07-23T13:40:38Z</time></trkpt>
<trkpt lat="46.25464" lon="7.27857"><ele>1425.2</ele><time>2017-07-23T13:40:39Z</time></trkpt>
<trkpt lat="46.25468" lon="7.27869"><ele>1424.6</ele><time>2017-07-23T13:40:40Z</time></trkpt>
<trkpt lat="46.25469" lon="7.27899"><ele>1422</ele><time>2017-07-23T13:40:43Z</time></trkpt>
<trkpt lat="46.25469" lon="7.27909"><ele>1421</ele><time>2017-07-23T13:40:44Z</time></trkpt>
<trkpt lat="46.25482" lon="7.2794"><ele>1418.8</ele><time>2017-07-23T13:40:47Z</time></trkpt>
<trkpt lat="46.25497" lon="7.27958"><ele>1417</ele><time>2017-07-23T13:40:49Z</time></trkpt>
<trkpt lat="46.25512" lon="7.27978"><ele>1415.2</ele><time>2017-07-23T13:40:51Z</time></trkpt>
<trkpt lat="46.25527" lon="7.27998"><ele>1413</ele><time>2017-07-23T13:40:53Z</time></trkpt>
<trkpt lat="46.25541" lon="7.28018"><ele>1411</ele><time>2017-07-23T13:40:55Z</time></trkpt>
<trkpt lat="46.25546" lon="7.28027"><ele>1410.4</ele><time>2017-07-23T13:40:56Z</time></trkpt>
<trkpt lat="46.25551" lon="7.28062"><ele>1408.2</ele><time>2017-07-23T13:40:59Z</time></trkpt>
<trkpt lat="46.25555" lon="7.28088"><ele>1407</ele><time>2017-07-23T13:41:01Z</time></trkpt>
<trkpt lat="46.25558" lon="7.28101"><ele>1406.4</ele><time>2017-07-23T13:41:02Z</time></trkpt>
<trkpt lat="46.25566" lon="7.28126"><ele>1404.2</ele><time>2017-07-23T13:41:04Z</time></trkpt>
<trkpt lat="46.25577" lon="7.2815"><ele>1402.4</ele><time>2017-07-23T13:41:06Z</time></trkpt>
<trkpt lat="46.25583" lon="7.28161"><ele>1401.6</ele><time>2017-07-23T13:41:07Z</time></trkpt>
<trkpt lat="46.25595" lon="7.28185"><ele>1400</ele><time>2017-07-23T13:41:09Z</time></trkpt>
<trkpt lat="46.25605" lon="7.28206"><ele>1398.2</ele><time>2017-07-23T13:41:11Z</time></trkpt>
<trkpt lat="46.25608" lon="7.28217"><ele>1397.2</ele><time>2017-07-23T13:41:12Z</time></trkpt>
<trkpt lat="46.25613" lon="7.28246"><ele>1395.6</ele><time>2017-07-23T13:41:15Z</time></trkpt>
<trkpt lat="46.25616" lon="7.28263"><ele>1394.4</ele><time>2017-07-23T13:41:18Z</time></trkpt>
<trkpt lat="46.25608" lon="7.28255"><ele>1391.6</ele><time>2017-07-23T13:41:25Z</time></trkpt>
<trkpt lat="46.25602" lon="7.28229"><ele>1391.4</ele><time>2017-07-23T13:41:31Z</time></trkpt>
<trkpt lat="46.25599" lon="7.2822"><ele>1391.2</ele><time>2017-07-23T13:41:33Z</time></trkpt>
<trkpt lat="46.25595" lon="7.2821"><ele>1391</ele><time>2017-07-23T13:41:35Z</time></trkpt>
<trkpt lat="46.25592" lon="7.28205"><ele>1391</ele><time>2017-07-23T13:41:36Z</time></trkpt>
<trkpt lat="46.25581" lon="7.2819"><ele>1390.8</ele><time>2017-07-23T13:41:39Z</time></trkpt>
<trkpt lat="46.25563" lon="7.28169"><ele>1391</ele><time>2017-07-23T13:41:43Z</time></trkpt>
<trkpt lat="46.25558" lon="7.28163"><ele>1391.6</ele><time>2017-07-23T13:41:44Z</time></trkpt>
<trkpt lat="46.2555" lon="7.2815"><ele>1391.4</ele><time>2017-07-23T13:41:46Z</time></trkpt>
<trkpt lat="46.25534" lon="7.28125"><ele>1391.6</ele><time>2017-07-23T13:41:50Z</time></trkpt>
<trkpt lat="46.25528" lon="7.28113"><ele>1391.8</ele><time>2017-07-23T13:41:52Z</time></trkpt>
<trkpt lat="46.25523" lon="7.28099"><ele>1391.6</ele><time>2017-07-23T13:41:54Z</time></trkpt>
<trkpt lat="46.25519" lon="7.28068"><ele>1390.6</ele><time>2017-07-23T13:41:58Z</time></trkpt>
<trkpt lat="46.25503" lon="7.28053"><ele>1390</ele><time>2017-07-23T13:42:02Z</time></trkpt>
<trkpt lat="46.25497" lon="7.28051"><ele>1389.8</ele><time>2017-07-23T13:42:03Z</time></trkpt>
<trkpt lat="46.25492" lon="7.28047"><ele>1389.6</ele><time>2017-07-23T13:42:04Z</time></trkpt>
<trkpt lat="46.25479" lon="7.2804"><ele>1389.6</ele><time>2017-07-23T13:42:06Z</time></trkpt>
<trkpt lat="46.25465" lon="7.28034"><ele>1389.6</ele><time>2017-07-23T13:42:08Z</time></trkpt>
<trkpt lat="46.25447" lon="7.28022"><ele>1390.6</ele><time>2017-07-23T13:42:11Z</time></trkpt>
<trkpt lat="46.25432" lon="7.28016"><ele>1390.8</ele><time>2017-07-23T13:42:14Z</time></trkpt>
<trkpt lat="46.25416" lon="7.27999"><ele>1390.4</ele><time>2017-07-23T13:42:20Z</time></trkpt>
<trkpt lat="46.25414" lon="7.27996"><ele>1390.2</ele><time>2017-07-23T13:42:21Z</time></trkpt>
<trkpt lat="46.25412" lon="7.27991"><ele>1390.6</ele><time>2017-07-23T13:42:23Z</time></trkpt>
<trkpt lat="46.25408" lon="7.27984"><ele>1390.6</ele><time>2017-07-23T13:42:31Z</time></trkpt>
<trkpt lat="46.25408" lon="7.27983"><ele>1389.8</ele><time>2017-07-23T13:42:36Z</time></trkpt>
<trkpt lat="46.25408" lon="7.27984"><ele>1389.4</ele><time>2017-07-23T13:42:39Z</time></trkpt>
<trkpt lat="46.25407" lon="7.27981"><ele>1389.6</ele><time>2017-07-23T13:42:42Z</time></trkpt>
<trkpt lat="46.25396" lon="7.27956"><ele>1390.8</ele><time>2017-07-23T13:42:51Z</time></trkpt>
<trkpt lat="46.25394" lon="7.27944"><ele>1390.6</ele><time>2017-07-23T13:42:54Z</time></trkpt>
<trkpt lat="46.25386" lon="7.27931"><ele>1390</ele><time>2017-07-23T13:42:58Z</time></trkpt>
<trkpt lat="46.25384" lon="7.27931"><ele>1390.6</ele><time>2017-07-23T13:42:59Z</time></trkpt>
<trkpt lat="46.25371" lon="7.27937"><ele>1390.8</ele><time>2017-07-23T13:43:03Z</time></trkpt>
<trkpt lat="46.25353" lon="7.27949"><ele>1391.6</ele><time>2017-07-23T13:43:09Z</time></trkpt>
<trkpt lat="46.2535" lon="7.2795"><ele>1392</ele><time>2017-07-23T13:43:10Z</time></trkpt>
<trkpt lat="46.25348" lon="7.27951"><ele>1392</ele><time>2017-07-23T13:43:11Z</time></trkpt>
<trkpt lat="46.25341" lon="7.2795"><ele>1392.4</ele><time>2017-07-23T13:43:14Z</time></trkpt>
<trkpt lat="46.25324" lon="7.27936"><ele>1394</ele><time>2017-07-23T13:43:22Z</time></trkpt>
<trkpt lat="46.25317" lon="7.27933"><ele>1394.8</ele><time>2017-07-23T13:43:27Z</time></trkpt>
<trkpt lat="46.25317" lon="7.27934"><ele>1395.2</ele><time>2017-07-23T13:43:30Z</time></trkpt>
<trkpt lat="46.25319" lon="7.27935"><ele>1395.6</ele><time>2017-07-23T13:43:43Z</time></trkpt>
<trkpt lat="46.25319" lon="7.27935"><ele>1395.6</ele><time>2017-07-23T13:43:45Z</time></trkpt>
<trkpt lat="46.25319" lon="7.27935"><ele>1395.4</ele><time>2017-07-23T13:43:48Z</time></trkpt>
<trkpt lat="46.25319" lon="7.27936"><ele>1395</ele><time>2017-07-23T13:43:52Z</time></trkpt>
<trkpt lat="46.25319" lon="7.27936"><ele>1395.2</ele><time>2017-07-23T13:43:57Z</time></trkpt>
<trkpt lat="46.25319" lon="7.27936"><ele>1395.6</ele><time>2017-07-23T13:44:01Z</time></trkpt>
<trkpt lat="46.2532" lon="7.27935"><ele>1396.4</ele><time>2017-07-23T13:44:19Z</time></trkpt>
<trkpt lat="46.2532" lon="7.27935"><ele>1396.4</ele><time>2017-07-23T13:44:20Z</time></trkpt>
<trkpt lat="46.25318" lon="7.27936"><ele>1397.6</ele><time>2017-07-23T13:44:38Z</time></trkpt>
<trkpt lat="46.25318" lon="7.27936"><ele>1397.8</ele><time>2017-07-23T13:44:53Z</time></trkpt>
<trkpt lat="46.25301" lon="7.27936"><ele>1398.2</ele><time>2017-07-23T13:45:22Z</time></trkpt>
<trkpt lat="46.25283" lon="7.27942"><ele>1399</ele><time>2017-07-23T13:45:30Z</time></trkpt>
<trkpt lat="46.25275" lon="7.27956"><ele>1400.8</ele><time>2017-07-23T13:45:37Z</time></trkpt>
<trkpt lat="46.25274" lon="7.27982"><ele>1401.6</ele><time>2017-07-23T13:45:48Z</time></trkpt>
<trkpt lat="46.25277" lon="7.28016"><ele>1401</ele><time>2017-07-23T13:45:52Z</time></trkpt>
<trkpt lat="46.25276" lon="7.28025"><ele>1400.8</ele><time>2017-07-23T13:45:53Z</time></trkpt>
<trkpt lat="46.25276" lon="7.2805"><ele>1400</ele><time>2017-07-23T13:45:56Z</time></trkpt>
<trkpt lat="46.25285" lon="7.28073"><ele>1398.8</ele><time>2017-07-23T13:45:59Z</time></trkpt>
<trkpt lat="46.25294" lon="7.28101"><ele>1395.8</ele><time>2017-07-23T13:46:03Z</time></trkpt>
<trkpt lat="46.25302" lon="7.28112"><ele>1394</ele><time>2017-07-23T13:46:05Z</time></trkpt>
<trkpt lat="46.25315" lon="7.28132"><ele>1391.6</ele><time>2017-07-23T13:46:09Z</time></trkpt>
<trkpt lat="46.25317" lon="7.28137"><ele>1391.2</ele><time>2017-07-23T13:46:10Z</time></trkpt>
<trkpt lat="46.25318" lon="7.28157"><ele>1388.6</ele><time>2017-07-23T13:46:13Z</time></trkpt>
<trkpt lat="46.25317" lon="7.28164"><ele>1387.6</ele><time>2017-07-23T13:46:14Z</time></trkpt>
<trkpt lat="46.25315" lon="7.28169"><ele>1386.6</ele><time>2017-07-23T13:46:15Z</time></trkpt>
<trkpt lat="46.25301" lon="7.28188"><ele>1382.2</ele><time>2017-07-23T13:46:19Z</time></trkpt>
<trkpt lat="46.25293" lon="7.28211"><ele>1374.8</ele><time>2017-07-23T13:46:23Z</time></trkpt>
<trkpt lat="46.25297" lon="7.28237"><ele>1367.2</ele><time>2017-07-23T13:46:27Z</time></trkpt>
<trkpt lat="46.25297" lon="7.28251"><ele>1363.8</ele><time>2017-07-23T13:46:29Z</time></trkpt>
<trkpt lat="46.25298" lon="7.28258"><ele>1362.2</ele><time>2017-07-23T13:46:30Z</time></trkpt>
<trkpt lat="46.25309" lon="7.28278"><ele>1356.6</ele><time>2017-07-23T13:46:34Z</time></trkpt>
<trkpt lat="46.25317" lon="7.28285"><ele>1354.2</ele><time>2017-07-23T13:46:36Z</time></trkpt>
<trkpt lat="46.25324" lon="7.28291"><ele>1352.2</ele><time>2017-07-23T13:46:39Z</time></trkpt>
<trkpt lat="46.2533" lon="7.28297"><ele>1350.2</ele><time>2017-07-23T13:46:42Z</time></trkpt>
<trkpt lat="46.2535" lon="7.28289"><ele>1348.2</ele><time>2017-07-23T13:46:46Z</time></trkpt>
<trkpt lat="46.25356" lon="7.28286"><ele>1347.6</ele><time>2017-07-23T13:46:47Z</time></trkpt>
<trkpt lat="46.25377" lon="7.28286"><ele>1346.2</ele><time>2017-07-23T13:46:50Z</time></trkpt>
<trkpt lat="46.25385" lon="7.28288"><ele>1345.6</ele><time>2017-07-23T13:46:51Z</time></trkpt>
<trkpt lat="46.25392" lon="7.28291"><ele>1345</ele><time>2017-07-23T13:46:52Z</time></trkpt>
<trkpt lat="46.25412" lon="7.28301"><ele>1343.4</ele><time>2017-07-23T13:46:55Z</time></trkpt>
<trkpt lat="46.25425" lon="7.28308"><ele>1342</ele><time>2017-07-23T13:46:57Z</time></trkpt>
<trkpt lat="46.25445" lon="7.28323"><ele>1340</ele><time>2017-07-23T13:47:01Z</time></trkpt>
<trkpt lat="46.2546" lon="7.2832"><ele>1337.6</ele><time>2017-07-23T13:47:04Z</time></trkpt>
<trkpt lat="46.25471" lon="7.28343"><ele>1336</ele><time>2017-07-23T13:47:08Z</time></trkpt>
<trkpt lat="46.25471" lon="7.28372"><ele>1333.2</ele><time>2017-07-23T13:47:11Z</time></trkpt>
<trkpt lat="46.25467" lon="7.28405"><ele>1331</ele><time>2017-07-23T13:47:14Z</time></trkpt>
<trkpt lat="46.25465" lon="7.28425"><ele>1330</ele><time>2017-07-23T13:47:16Z</time></trkpt>
<trkpt lat="46.25476" lon="7.28446"><ele>1328</ele><time>2017-07-23T13:47:19Z</time></trkpt>
<trkpt lat="46.25493" lon="7.28466"><ele>1326.8</ele><time>2017-07-23T13:47:22Z</time></trkpt>
<trkpt lat="46.25511" lon="7.28485"><ele>1324.8</ele><time>2017-07-23T13:47:25Z</time></trkpt>
<trkpt lat="46.25525" lon="7.28498"><ele>1323</ele><time>2017-07-23T13:47:27Z</time></trkpt>
<trkpt lat="46.25541" lon="7.28528"><ele>1321.2</ele><time>2017-07-23T13:47:30Z</time></trkpt>
<trkpt lat="46.25552" lon="7.28554"><ele>1319.2</ele><time>2017-07-23T13:47:33Z</time></trkpt>
<trkpt lat="46.25563" lon="7.28567"><ele>1318</ele><time>2017-07-23T13:47:35Z</time></trkpt>
<trkpt lat="46.2557" lon="7.28572"><ele>1317.8</ele><time>2017-07-23T13:47:36Z</time></trkpt>
<trkpt lat="46.25576" lon="7.28577"><ele>1317</ele><time>2017-07-23T13:47:37Z</time></trkpt>
<trkpt lat="46.25589" lon="7.28585"><ele>1316</ele><time>2017-07-23T13:47:39Z</time></trkpt>
<trkpt lat="46.25612" lon="7.28593"><ele>1315</ele><time>2017-07-23T13:47:42Z</time></trkpt>
<trkpt lat="46.25636" lon="7.28603"><ele>1314.2</ele><time>2017-07-23T13:47:45Z</time></trkpt>
<trkpt lat="46.25655" lon="7.2861"><ele>1313.8</ele><time>2017-07-23T13:47:47Z</time></trkpt>
<trkpt lat="46.25673" lon="7.28619"><ele>1313.2</ele><time>2017-07-23T13:47:49Z</time></trkpt>
<trkpt lat="46.25689" lon="7.28633"><ele>1312.8</ele><time>2017-07-23T13:47:51Z</time></trkpt>
<trkpt lat="46.25711" lon="7.2865"><ele>1311.4</ele><time>2017-07-23T13:47:54Z</time></trkpt>
<trkpt lat="46.25734" lon="7.28661"><ele>1310</ele><time>2017-07-23T13:47:57Z</time></trkpt>
<trkpt lat="46.25748" lon="7.28682"><ele>1308.2</ele><time>2017-07-23T13:48:00Z</time></trkpt>
<trkpt lat="46.25764" lon="7.28694"><ele>1306.2</ele><time>2017-07-23T13:48:03Z</time></trkpt>
<trkpt lat="46.2577" lon="7.28696"><ele>1305.6</ele><time>2017-07-23T13:48:04Z</time></trkpt>
<trkpt lat="46.25783" lon="7.28705"><ele>1304.2</ele><time>2017-07-23T13:48:06Z</time></trkpt>
<trkpt lat="46.25802" lon="7.28728"><ele>1301.8</ele><time>2017-07-23T13:48:09Z</time></trkpt>
<trkpt lat="46.25807" lon="7.28737"><ele>1301</ele><time>2017-07-23T13:48:10Z</time></trkpt>
<trkpt lat="46.25813" lon="7.28744"><ele>1300</ele><time>2017-07-23T13:48:11Z</time></trkpt>
<trkpt lat="46.25829" lon="7.28761"><ele>1296.4</ele><time>2017-07-23T13:48:14Z</time></trkpt>
<trkpt lat="46.25852" lon="7.28767"><ele>1292.6</ele><time>2017-07-23T13:48:18Z</time></trkpt>
<trkpt lat="46.25868" lon="7.28786"><ele>1290.6</ele><time>2017-07-23T13:48:21Z</time></trkpt>
<trkpt lat="46.25873" lon="7.28793"><ele>1289.8</ele><time>2017-07-23T13:48:22Z</time></trkpt>
<trkpt lat="46.25895" lon="7.28811"><ele>1286.6</ele><time>2017-07-23T13:48:25Z</time></trkpt>
<trkpt lat="46.25912" lon="7.28841"><ele>1284.6</ele><time>2017-07-23T13:48:28Z</time></trkpt>
<trkpt lat="46.25925" lon="7.28858"><ele>1283.2</ele><time>2017-07-23T13:48:30Z</time></trkpt>
<trkpt lat="46.25941" lon="7.28871"><ele>1281.6</ele><time>2017-07-23T13:48:32Z</time></trkpt>
<trkpt lat="46.25958" lon="7.28881"><ele>1280.2</ele><time>2017-07-23T13:48:34Z</time></trkpt>
<trkpt lat="46.25966" lon="7.28887"><ele>1279.4</ele><time>2017-07-23T13:48:35Z</time></trkpt>
<trkpt lat="46.25982" lon="7.289"><ele>1277.6</ele><time>2017-07-23T13:48:37Z</time></trkpt>
<trkpt lat="46.25999" lon="7.28911"><ele>1276.4</ele><time>2017-07-23T13:48:39Z</time></trkpt>
<trkpt lat="46.26015" lon="7.28925"><ele>1276</ele><time>2017-07-23T13:48:41Z</time></trkpt>
<trkpt lat="46.26031" lon="7.28942"><ele>1275.8</ele><time>2017-07-23T13:48:43Z</time></trkpt>
<trkpt lat="46.26047" lon="7.28955"><ele>1275</ele><time>2017-07-23T13:48:45Z</time></trkpt>
<trkpt lat="46.26064" lon="7.28968"><ele>1274.4</ele><time>2017-07-23T13:48:47Z</time></trkpt>
<trkpt lat="46.26073" lon="7.28975"><ele>1274.2</ele><time>2017-07-23T13:48:48Z</time></trkpt>
<trkpt lat="46.26091" lon="7.29"><ele>1273</ele><time>2017-07-23T13:48:51Z</time></trkpt>
<trkpt lat="46.26091" lon="7.29029"><ele>1272</ele><time>2017-07-23T13:48:54Z</time></trkpt>
<trkpt lat="46.26086" lon="7.2906"><ele>1271.4</ele><time>2017-07-23T13:48:57Z</time></trkpt>
<trkpt lat="46.2609" lon="7.29089"><ele>1270</ele><time>2017-07-23T13:49:00Z</time></trkpt>
<trkpt lat="46.261" lon="7.29107"><ele>1269.2</ele><time>2017-07-23T13:49:02Z</time></trkpt>
<trkpt lat="46.26114" lon="7.29136"><ele>1268.2</ele><time>2017-07-23T13:49:05Z</time></trkpt>
<trkpt lat="46.26118" lon="7.29148"><ele>1267.8</ele><time>2017-07-23T13:49:06Z</time></trkpt>
<trkpt lat="46.2612" lon="7.29159"><ele>1267</ele><time>2017-07-23T13:49:07Z</time></trkpt>
<trkpt lat="46.2612" lon="7.29172"><ele>1266.6</ele><time>2017-07-23T13:49:08Z</time></trkpt>
<trkpt lat="46.26119" lon="7.29198"><ele>1266.4</ele><time>2017-07-23T13:49:10Z</time></trkpt>
<trkpt lat="46.26118" lon="7.29211"><ele>1266</ele><time>2017-07-23T13:49:11Z</time></trkpt>
<trkpt lat="46.26122" lon="7.29248"><ele>1264.4</ele><time>2017-07-23T13:49:14Z</time></trkpt>
<trkpt lat="46.26124" lon="7.29261"><ele>1264.2</ele><time>2017-07-23T13:49:15Z</time></trkpt>
<trkpt lat="46.26137" lon="7.29292"><ele>1264</ele><time>2017-07-23T13:49:18Z</time></trkpt>
<trkpt lat="46.26148" lon="7.29312"><ele>1263</ele><time>2017-07-23T13:49:20Z</time></trkpt>
<trkpt lat="46.26165" lon="7.2934"><ele>1261.6</ele><time>2017-07-23T13:49:23Z</time></trkpt>
<trkpt lat="46.26176" lon="7.29359"><ele>1260.4</ele><time>2017-07-23T13:49:25Z</time></trkpt>
<trkpt lat="46.26193" lon="7.29388"><ele>1259</ele><time>2017-07-23T13:49:28Z</time></trkpt>
<trkpt lat="46.26206" lon="7.2942"><ele>1257.8</ele><time>2017-07-23T13:49:31Z</time></trkpt>
<trkpt lat="46.2621" lon="7.29432"><ele>1257.4</ele><time>2017-07-23T13:49:32Z</time></trkpt>
<trkpt lat="46.26212" lon="7.29443"><ele>1257.2</ele><time>2017-07-23T13:49:33Z</time></trkpt>
<trkpt lat="46.26218" lon="7.29472"><ele>1256</ele><time>2017-07-23T13:49:36Z</time></trkpt>
<trkpt lat="46.26222" lon="7.29491"><ele>1255.6</ele><time>2017-07-23T13:49:38Z</time></trkpt>
<trkpt lat="46.26232" lon="7.29519"><ele>1253.8</ele><time>2017-07-23T13:49:41Z</time></trkpt>
<trkpt lat="46.26244" lon="7.29545"><ele>1252.4</ele><time>2017-07-23T13:49:44Z</time></trkpt>
<trkpt lat="46.26254" lon="7.29559"><ele>1251.6</ele><time>2017-07-23T13:49:46Z</time></trkpt>
<trkpt lat="46.26271" lon="7.29576"><ele>1250.6</ele><time>2017-07-23T13:49:49Z</time></trkpt>
<trkpt lat="46.26284" lon="7.29602"><ele>1249.8</ele><time>2017-07-23T13:49:53Z</time></trkpt>
<trkpt lat="46.26287" lon="7.29606"><ele>1249.8</ele><time>2017-07-23T13:49:54Z</time></trkpt>
<trkpt lat="46.26296" lon="7.2962"><ele>1250.8</ele><time>2017-07-23T13:49:59Z</time></trkpt>
<trkpt lat="46.263" lon="7.29625"><ele>1251.8</ele><time>2017-07-23T13:50:02Z</time></trkpt>
<trkpt lat="46.26305" lon="7.29633"><ele>1253</ele><time>2017-07-23T13:50:06Z</time></trkpt>
<trkpt lat="46.26308" lon="7.29639"><ele>1253.8</ele><time>2017-07-23T13:50:09Z</time></trkpt>
<trkpt lat="46.26309" lon="7.29641"><ele>1254.2</ele><time>2017-07-23T13:50:10Z</time></trkpt>
<trkpt lat="46.26311" lon="7.29646"><ele>1255</ele><time>2017-07-23T13:50:12Z</time></trkpt>
<trkpt lat="46.26319" lon="7.2967"><ele>1259.2</ele><time>2017-07-23T13:50:23Z</time></trkpt>
<trkpt lat="46.2632" lon="7.29695"><ele>1259.8</ele><time>2017-07-23T13:50:33Z</time></trkpt>
<trkpt lat="46.26319" lon="7.29713"><ele>1257.6</ele><time>2017-07-23T13:50:36Z</time></trkpt>
<trkpt lat="46.26326" lon="7.29739"><ele>1256</ele><time>2017-07-23T13:50:40Z</time></trkpt>
<trkpt lat="46.26331" lon="7.29757"><ele>1256</ele><time>2017-07-23T13:50:43Z</time></trkpt>
<trkpt lat="46.26335" lon="7.2978"><ele>1255.4</ele><time>2017-07-23T13:50:47Z</time></trkpt>
<trkpt lat="46.26348" lon="7.29805"><ele>1255.2</ele><time>2017-07-23T13:50:52Z</time></trkpt>
<trkpt lat="46.2636" lon="7.29832"><ele>1255.4</ele><time>2017-07-23T13:50:57Z</time></trkpt>
<trkpt lat="46.26364" lon="7.29855"><ele>1256</ele><time>2017-07-23T13:51:01Z</time></trkpt>
<trkpt lat="46.26369" lon="7.29883"><ele>1256.6</ele><time>2017-07-23T13:51:06Z</time></trkpt>
<trkpt lat="46.26375" lon="7.29907"><ele>1257.6</ele><time>2017-07-23T13:51:11Z</time></trkpt>
<trkpt lat="46.26386" lon="7.29925"><ele>1260</ele><time>2017-07-23T13:51:18Z</time></trkpt>
<trkpt lat="46.2639" lon="7.29932"><ele>1260.8</ele><time>2017-07-23T13:51:21Z</time></trkpt>
<trkpt lat="46.26392" lon="7.29938"><ele>1261.2</ele><time>2017-07-23T13:51:23Z</time></trkpt>
<trkpt lat="46.26396" lon="7.29947"><ele>1261.4</ele><time>2017-07-23T13:51:26Z</time></trkpt>
<trkpt lat="46.26415" lon="7.29963"><ele>1261</ele><time>2017-07-23T13:51:34Z</time></trkpt>
<trkpt lat="46.2642" lon="7.29967"><ele>1261.2</ele><time>2017-07-23T13:51:36Z</time></trkpt>
<trkpt lat="46.26428" lon="7.29972"><ele>1261</ele><time>2017-07-23T13:51:39Z</time></trkpt>
<trkpt lat="46.26423" lon="7.29995"><ele>1260.2</ele><time>2017-07-23T13:51:46Z</time></trkpt>
<trkpt lat="46.26418" lon="7.29999"><ele>1260</ele><time>2017-07-23T13:51:48Z</time></trkpt>
<trkpt lat="46.2641" lon="7.30003"><ele>1259.6</ele><time>2017-07-23T13:51:51Z</time></trkpt>
<trkpt lat="46.26398" lon="7.30019"><ele>1259.4</ele><time>2017-07-23T13:51:58Z</time></trkpt>
<trkpt lat="46.26397" lon="7.30023"><ele>1259.6</ele><time>2017-07-23T13:51:59Z</time></trkpt>
<trkpt lat="46.26397" lon="7.30043"><ele>1261</ele><time>2017-07-23T13:52:04Z</time></trkpt>
<trkpt lat="46.26394" lon="7.30054"><ele>1262</ele><time>2017-07-23T13:52:07Z</time></trkpt>
<trkpt lat="46.26396" lon="7.30079"><ele>1263</ele><time>2017-07-23T13:52:13Z</time></trkpt>
<trkpt lat="46.26392" lon="7.30107"><ele>1264</ele><time>2017-07-23T13:52:19Z</time></trkpt>
<trkpt lat="46.26393" lon="7.30117"><ele>1264.2</ele><time>2017-07-23T13:52:21Z</time></trkpt>
<trkpt lat="46.26395" lon="7.30128"><ele>1264.6</ele><time>2017-07-23T13:52:24Z</time></trkpt>
<trkpt lat="46.26395" lon="7.30144"><ele>1265.8</ele><time>2017-07-23T13:52:28Z</time></trkpt>
<trkpt lat="46.26398" lon="7.30157"><ele>1266.4</ele><time>2017-07-23T13:52:31Z</time></trkpt>
<trkpt lat="46.26404" lon="7.30172"><ele>1268</ele><time>2017-07-23T13:52:35Z</time></trkpt>
<trkpt lat="46.26422" lon="7.30184"><ele>1270.6</ele><time>2017-07-23T13:52:42Z</time></trkpt>
<trkpt lat="46.26426" lon="7.30194"><ele>1271</ele><time>2017-07-23T13:52:45Z</time></trkpt>
<trkpt lat="46.26422" lon="7.30218"><ele>1271.2</ele><time>2017-07-23T13:52:50Z</time></trkpt>
<trkpt lat="46.26421" lon="7.30224"><ele>1271.8</ele><time>2017-07-23T13:52:51Z</time></trkpt>
<trkpt lat="46.26422" lon="7.30228"><ele>1271.8</ele><time>2017-07-23T13:52:52Z</time></trkpt>
<trkpt lat="46.26429" lon="7.30247"><ele>1274.4</ele><time>2017-07-23T13:52:57Z</time></trkpt>
<trkpt lat="46.26439" lon="7.3025"><ele>1277</ele><time>2017-07-23T13:53:01Z</time></trkpt>
<trkpt lat="46.26449" lon="7.30272"><ele>1279.8</ele><time>2017-07-23T13:53:08Z</time></trkpt>
<trkpt lat="46.26453" lon="7.30277"><ele>1280.8</ele><time>2017-07-23T13:53:10Z</time></trkpt>
<trkpt lat="46.26465" lon="7.30301"><ele>1285.6</ele><time>2017-07-23T13:53:18Z</time></trkpt>
<trkpt lat="46.26481" lon="7.30316"><ele>1287.6</ele><time>2017-07-23T13:53:24Z</time></trkpt>
<trkpt lat="46.26499" lon="7.30319"><ele>1285.8</ele><time>2017-07-23T13:53:31Z</time></trkpt>
<trkpt lat="46.26506" lon="7.30315"><ele>1284.4</ele><time>2017-07-23T13:53:34Z</time></trkpt>
<trkpt lat="46.26508" lon="7.30313"><ele>1284</ele><time>2017-07-23T13:53:35Z</time></trkpt>
<trkpt lat="46.26518" lon="7.30303"><ele>1281.4</ele><time>2017-07-23T13:53:39Z</time></trkpt>
<trkpt lat="46.2652" lon="7.30302"><ele>1280.6</ele><time>2017-07-23T13:53:40Z</time></trkpt>
<trkpt lat="46.26534" lon="7.303"><ele>1278.6</ele><time>2017-07-23T13:53:45Z</time></trkpt>
<trkpt lat="46.26543" lon="7.303"><ele>1277</ele><time>2017-07-23T13:53:48Z</time></trkpt>
<trkpt lat="46.26562" lon="7.30297"><ele>1272.4</ele><time>2017-07-23T13:53:54Z</time></trkpt>
<trkpt lat="46.2657" lon="7.30295"><ele>1272</ele><time>2017-07-23T13:53:57Z</time></trkpt>
<trkpt lat="46.2658" lon="7.30294"><ele>1270.2</ele><time>2017-07-23T13:54:01Z</time></trkpt>
<trkpt lat="46.26583" lon="7.30293"><ele>1270.4</ele><time>2017-07-23T13:54:02Z</time></trkpt>
<trkpt lat="46.26601" lon="7.30296"><ele>1270</ele><time>2017-07-23T13:54:10Z</time></trkpt>
<trkpt lat="46.26603" lon="7.30297"><ele>1270</ele><time>2017-07-23T13:54:11Z</time></trkpt>
<trkpt lat="46.26608" lon="7.3031"><ele>1270.2</ele><time>2017-07-23T13:54:16Z</time></trkpt>
<trkpt lat="46.26621" lon="7.30329"><ele>1273.4</ele><time>2017-07-23T13:54:23Z</time></trkpt>
<trkpt lat="46.26636" lon="7.30344"><ele>1273.8</ele><time>2017-07-23T13:54:28Z</time></trkpt>
<trkpt lat="46.26652" lon="7.3036"><ele>1274.4</ele><time>2017-07-23T13:54:33Z</time></trkpt>
<trkpt lat="46.26668" lon="7.30367"><ele>1274.4</ele><time>2017-07-23T13:54:38Z</time></trkpt>
<trkpt lat="46.26682" lon="7.30375"><ele>1273.4</ele><time>2017-07-23T13:54:43Z</time></trkpt>
<trkpt lat="46.26701" lon="7.30397"><ele>1272.2</ele><time>2017-07-23T13:54:51Z</time></trkpt>
<trkpt lat="46.26704" lon="7.304"><ele>1272.2</ele><time>2017-07-23T13:54:52Z</time></trkpt>
<trkpt lat="46.26723" lon="7.30413"><ele>1271.4</ele><time>2017-07-23T13:54:58Z</time></trkpt>
<trkpt lat="46.26734" lon="7.30424"><ele>1271.2</ele><time>2017-07-23T13:55:02Z</time></trkpt>
<trkpt lat="46.26746" lon="7.30441"><ele>1271</ele><time>2017-07-23T13:55:07Z</time></trkpt>
<trkpt lat="46.26758" lon="7.30462"><ele>1271.4</ele><time>2017-07-23T13:55:12Z</time></trkpt>
<trkpt lat="46.26773" lon="7.30479"><ele>1271</ele><time>2017-07-23T13:55:17Z</time></trkpt>
<trkpt lat="46.26784" lon="7.30489"><ele>1270.4</ele><time>2017-07-23T13:55:21Z</time></trkpt>
<trkpt lat="46.268" lon="7.30502"><ele>1271.6</ele><time>2017-07-23T13:55:27Z</time></trkpt>
<trkpt lat="46.26808" lon="7.30491"><ele>1272.2</ele><time>2017-07-23T13:55:31Z</time></trkpt>
<trkpt lat="46.26811" lon="7.30478"><ele>1272.2</ele><time>2017-07-23T13:55:34Z</time></trkpt>
<trkpt lat="46.26815" lon="7.30468"><ele>1272.4</ele><time>2017-07-23T13:55:37Z</time></trkpt>
<trkpt lat="46.26819" lon="7.30448"><ele>1273.2</ele><time>2017-07-23T13:55:44Z</time></trkpt>
<trkpt lat="46.26818" lon="7.30445"><ele>1273.4</ele><time>2017-07-23T13:55:45Z</time></trkpt>
<trkpt lat="46.26816" lon="7.30429"><ele>1274.2</ele><time>2017-07-23T13:55:50Z</time></trkpt>
<trkpt lat="46.26823" lon="7.30405"><ele>1274.2</ele><time>2017-07-23T13:55:57Z</time></trkpt>
<trkpt lat="46.26829" lon="7.30389"><ele>1274.6</ele><time>2017-07-23T13:56:02Z</time></trkpt>
<trkpt lat="46.26832" lon="7.30382"><ele>1275</ele><time>2017-07-23T13:56:04Z</time></trkpt>
<trkpt lat="46.26837" lon="7.30372"><ele>1274.8</ele><time>2017-07-23T13:56:07Z</time></trkpt>
<trkpt lat="46.2684" lon="7.30361"><ele>1274.4</ele><time>2017-07-23T13:56:10Z</time></trkpt>
<trkpt lat="46.26852" lon="7.30341"><ele>1275</ele><time>2017-07-23T13:56:18Z</time></trkpt>
<trkpt lat="46.26854" lon="7.3034"><ele>1274.8</ele><time>2017-07-23T13:56:19Z</time></trkpt>
<trkpt lat="46.26858" lon="7.30338"><ele>1274.8</ele><time>2017-07-23T13:56:21Z</time></trkpt>
<trkpt lat="46.26868" lon="7.30334"><ele>1275.2</ele><time>2017-07-23T13:56:27Z</time></trkpt>
<trkpt lat="46.26884" lon="7.30328"><ele>1275.6</ele><time>2017-07-23T13:56:34Z</time></trkpt>
<trkpt lat="46.26903" lon="7.3032"><ele>1275</ele><time>2017-07-23T13:56:42Z</time></trkpt>
<trkpt lat="46.26914" lon="7.30303"><ele>1275</ele><time>2017-07-23T13:56:49Z</time></trkpt>
<trkpt lat="46.26918" lon="7.30299"><ele>1275</ele><time>2017-07-23T13:56:51Z</time></trkpt>
<trkpt lat="46.26935" lon="7.3029"><ele>1273.8</ele><time>2017-07-23T13:56:58Z</time></trkpt>
<trkpt lat="46.26955" lon="7.30296"><ele>1273.8</ele><time>2017-07-23T13:57:05Z</time></trkpt>
<trkpt lat="46.26973" lon="7.30302"><ele>1275.6</ele><time>2017-07-23T13:57:11Z</time></trkpt>
<trkpt lat="46.2698" lon="7.30304"><ele>1276.4</ele><time>2017-07-23T13:57:13Z</time></trkpt>
<trkpt lat="46.26983" lon="7.30304"><ele>1276.4</ele><time>2017-07-23T13:57:14Z</time></trkpt>
<trkpt lat="46.26997" lon="7.30299"><ele>1277.8</ele><time>2017-07-23T13:57:19Z</time></trkpt>
<trkpt lat="46.27012" lon="7.30294"><ele>1278.8</ele><time>2017-07-23T13:57:24Z</time></trkpt>
<trkpt lat="46.27028" lon="7.30275"><ele>1278.6</ele><time>2017-07-23T13:57:30Z</time></trkpt>
<trkpt lat="46.2704" lon="7.30254"><ele>1277.4</ele><time>2017-07-23T13:57:36Z</time></trkpt>
<trkpt lat="46.27052" lon="7.30248"><ele>1277.8</ele><time>2017-07-23T13:57:40Z</time></trkpt>
<trkpt lat="46.27072" lon="7.30254"><ele>1278.6</ele><time>2017-07-23T13:57:46Z</time></trkpt>
<trkpt lat="46.27086" lon="7.30254"><ele>1279.4</ele><time>2017-07-23T13:57:49Z</time></trkpt>
<trkpt lat="46.27105" lon="7.30259"><ele>1280.8</ele><time>2017-07-23T13:57:54Z</time></trkpt>
<trkpt lat="46.27125" lon="7.30245"><ele>1284.2</ele><time>2017-07-23T13:58:01Z</time></trkpt>
<trkpt lat="46.27135" lon="7.30223"><ele>1286</ele><time>2017-07-23T13:58:08Z</time></trkpt>
<trkpt lat="46.27142" lon="7.30205"><ele>1285.8</ele><time>2017-07-23T13:58:13Z</time></trkpt>
<trkpt lat="46.27152" lon="7.30183"><ele>1286</ele><time>2017-07-23T13:58:20Z</time></trkpt>
<trkpt lat="46.27163" lon="7.30169"><ele>1286.6</ele><time>2017-07-23T13:58:25Z</time></trkpt>
<trkpt lat="46.27178" lon="7.30153"><ele>1286.2</ele><time>2017-07-23T13:58:30Z</time></trkpt>
<trkpt lat="46.27195" lon="7.30141"><ele>1287.6</ele><time>2017-07-23T13:58:35Z</time></trkpt>
<trkpt lat="46.27213" lon="7.30141"><ele>1290.2</ele><time>2017-07-23T13:58:40Z</time></trkpt>
<trkpt lat="46.2723" lon="7.30166"><ele>1291.8</ele><time>2017-07-23T13:58:47Z</time></trkpt>
<trkpt lat="46.27241" lon="7.30176"><ele>1292.2</ele><time>2017-07-23T13:58:51Z</time></trkpt>
<trkpt lat="46.27246" lon="7.30183"><ele>1292.4</ele><time>2017-07-23T13:58:53Z</time></trkpt>
<trkpt lat="46.27259" lon="7.30207"><ele>1289</ele><time>2017-07-23T13:58:59Z</time></trkpt>
<trkpt lat="46.27276" lon="7.30213"><ele>1288.2</ele><time>2017-07-23T13:59:04Z</time></trkpt>
<trkpt lat="46.27297" lon="7.30215"><ele>1288.4</ele><time>2017-07-23T13:59:10Z</time></trkpt>
<trkpt lat="46.27309" lon="7.30222"><ele>1289.8</ele><time>2017-07-23T13:59:14Z</time></trkpt>
<trkpt lat="46.2733" lon="7.3023"><ele>1291.2</ele><time>2017-07-23T13:59:20Z</time></trkpt>
<trkpt lat="46.27349" lon="7.30242"><ele>1293.4</ele><time>2017-07-23T13:59:26Z</time></trkpt>
<trkpt lat="46.27365" lon="7.30259"><ele>1293.6</ele><time>2017-07-23T13:59:32Z</time></trkpt>
<trkpt lat="46.27394" lon="7.30283"><ele>1292.4</ele><time>2017-07-23T13:59:42Z</time></trkpt>
<trkpt lat="46.27412" lon="7.30292"><ele>1289.8</ele><time>2017-07-23T13:59:48Z</time></trkpt>
<trkpt lat="46.27427" lon="7.30296"><ele>1287.4</ele><time>2017-07-23T13:59:57Z</time></trkpt>
<trkpt lat="46.27437" lon="7.30319"><ele>1286.6</ele><time>2017-07-23T14:00:06Z</time></trkpt>
<trkpt lat="46.27443" lon="7.30344"><ele>1286.6</ele><time>2017-07-23T14:00:13Z</time></trkpt>
<trkpt lat="46.27446" lon="7.30352"><ele>1287</ele><time>2017-07-23T14:00:15Z</time></trkpt>
<trkpt lat="46.2745" lon="7.30367"><ele>1288.8</ele><time>2017-07-23T14:00:19Z</time></trkpt>
<trkpt lat="46.27453" lon="7.30395"><ele>1292.4</ele><time>2017-07-23T14:00:26Z</time></trkpt>
<trkpt lat="46.2747" lon="7.30408"><ele>1295</ele><time>2017-07-23T14:00:34Z</time></trkpt>
<trkpt lat="46.27479" lon="7.30418"><ele>1297.2</ele><time>2017-07-23T14:00:39Z</time></trkpt>
<trkpt lat="46.27481" lon="7.30424"><ele>1298.2</ele><time>2017-07-23T14:00:41Z</time></trkpt>
<trkpt lat="46.27472" lon="7.30439"><ele>1297.4</ele><time>2017-07-23T14:00:46Z</time></trkpt>
<trkpt lat="46.27456" lon="7.30459"><ele>1297.6</ele><time>2017-07-23T14:00:51Z</time></trkpt>
<trkpt lat="46.2744" lon="7.30488"><ele>1299.2</ele><time>2017-07-23T14:00:59Z</time></trkpt>
<trkpt lat="46.27435" lon="7.30511"><ele>1299.8</ele><time>2017-07-23T14:01:04Z</time></trkpt>
<trkpt lat="46.27429" lon="7.30522"><ele>1299.4</ele><time>2017-07-23T14:01:07Z</time></trkpt>
<trkpt lat="46.27425" lon="7.3053"><ele>1299.6</ele><time>2017-07-23T14:01:09Z</time></trkpt>
<trkpt lat="46.27422" lon="7.30544"><ele>1300.8</ele><time>2017-07-23T14:01:12Z</time></trkpt>
<trkpt lat="46.27427" lon="7.30571"><ele>1302.2</ele><time>2017-07-23T14:01:17Z</time></trkpt>
<trkpt lat="46.27431" lon="7.306"><ele>1302.4</ele><time>2017-07-23T14:01:22Z</time></trkpt>
<trkpt lat="46.27434" lon="7.30621"><ele>1303.4</ele><time>2017-07-23T14:01:26Z</time></trkpt>
<trkpt lat="46.27435" lon="7.30641"><ele>1303</ele><time>2017-07-23T14:01:30Z</time></trkpt>
<trkpt lat="46.27438" lon="7.30662"><ele>1302.4</ele><time>2017-07-23T14:01:34Z</time></trkpt>
<trkpt lat="46.27449" lon="7.30707"><ele>1298.4</ele><time>2017-07-23T14:01:43Z</time></trkpt>
<trkpt lat="46.27453" lon="7.30737"><ele>1294.8</ele><time>2017-07-23T14:01:50Z</time></trkpt>
<trkpt lat="46.2746" lon="7.30764"><ele>1294.4</ele><time>2017-07-23T14:01:55Z</time></trkpt>
<trkpt lat="46.27468" lon="7.30788"><ele>1293.2</ele><time>2017-07-23T14:02:00Z</time></trkpt>
<trkpt lat="46.27484" lon="7.30802"><ele>1292</ele><time>2017-07-23T14:02:06Z</time></trkpt>
<trkpt lat="46.27504" lon="7.3081"><ele>1291</ele><time>2017-07-23T14:02:12Z</time></trkpt>
<trkpt lat="46.27514" lon="7.30818"><ele>1291.4</ele><time>2017-07-23T14:02:15Z</time></trkpt>
<trkpt lat="46.27523" lon="7.30844"><ele>1292.8</ele><time>2017-07-23T14:02:20Z</time></trkpt>
<trkpt lat="46.27528" lon="7.3087"><ele>1296.2</ele><time>2017-07-23T14:02:26Z</time></trkpt>
<trkpt lat="46.27532" lon="7.30875"><ele>1296.4</ele><time>2017-07-23T14:02:29Z</time></trkpt>
<trkpt lat="46.27543" lon="7.30856"><ele>1296.4</ele><time>2017-07-23T14:02:35Z</time></trkpt>
<trkpt lat="46.27548" lon="7.3085"><ele>1296.4</ele><time>2017-07-23T14:02:37Z</time></trkpt>
<trkpt lat="46.27563" lon="7.30827"><ele>1298</ele><time>2017-07-23T14:02:45Z</time></trkpt>
<trkpt lat="46.27579" lon="7.30822"><ele>1300.4</ele><time>2017-07-23T14:02:52Z</time></trkpt>
<trkpt lat="46.27597" lon="7.30817"><ele>1304.6</ele><time>2017-07-23T14:03:00Z</time></trkpt>
<trkpt lat="46.27602" lon="7.30815"><ele>1306</ele><time>2017-07-23T14:03:02Z</time></trkpt>
<trkpt lat="46.27612" lon="7.30813"><ele>1309.2</ele><time>2017-07-23T14:03:06Z</time></trkpt>
<trkpt lat="46.2762" lon="7.30811"><ele>1311.6</ele><time>2017-07-23T14:03:09Z</time></trkpt>
<trkpt lat="46.27639" lon="7.3081"><ele>1317.6</ele><time>2017-07-23T14:03:18Z</time></trkpt>
<trkpt lat="46.27643" lon="7.3081"><ele>1318.6</ele><time>2017-07-23T14:03:20Z</time></trkpt>
<trkpt lat="46.27663" lon="7.30809"><ele>1323.2</ele><time>2017-07-23T14:03:29Z</time></trkpt>
<trkpt lat="46.27666" lon="7.30809"><ele>1323.2</ele><time>2017-07-23T14:03:30Z</time></trkpt>
<trkpt lat="46.27678" lon="7.30812"><ele>1322</ele><time>2017-07-23T14:03:36Z</time></trkpt>
<trkpt lat="46.2768" lon="7.30813"><ele>1322.4</ele><time>2017-07-23T14:03:37Z</time></trkpt>
<trkpt lat="46.27685" lon="7.30838"><ele>1324.8</ele><time>2017-07-23T14:03:46Z</time></trkpt>
<trkpt lat="46.27685" lon="7.30853"><ele>1321.8</ele><time>2017-07-23T14:03:51Z</time></trkpt>
<trkpt lat="46.27687" lon="7.3088"><ele>1319.4</ele><time>2017-07-23T14:04:00Z</time></trkpt>
<trkpt lat="46.27674" lon="7.30895"><ele>1319</ele><time>2017-07-23T14:04:08Z</time></trkpt>
<trkpt lat="46.27672" lon="7.30918"><ele>1320.2</ele><time>2017-07-23T14:04:14Z</time></trkpt>
<trkpt lat="46.27672" lon="7.30921"><ele>1320.2</ele><time>2017-07-23T14:04:15Z</time></trkpt>
<trkpt lat="46.27673" lon="7.30925"><ele>1320.8</ele><time>2017-07-23T14:04:16Z</time></trkpt>
<trkpt lat="46.27676" lon="7.30943"><ele>1321.8</ele><time>2017-07-23T14:04:21Z</time></trkpt>
<trkpt lat="46.27677" lon="7.3095"><ele>1323</ele><time>2017-07-23T14:04:23Z</time></trkpt>
<trkpt lat="46.27673" lon="7.30972"><ele>1323.8</ele><time>2017-07-23T14:04:29Z</time></trkpt>
<trkpt lat="46.27671" lon="7.30982"><ele>1323.4</ele><time>2017-07-23T14:04:32Z</time></trkpt>
<trkpt lat="46.27675" lon="7.31009"><ele>1322.4</ele><time>2017-07-23T14:04:40Z</time></trkpt>
<trkpt lat="46.27674" lon="7.31019"><ele>1322</ele><time>2017-07-23T14:04:44Z</time></trkpt>
<trkpt lat="46.27669" lon="7.31026"><ele>1321.4</ele><time>2017-07-23T14:04:48Z</time></trkpt>
<trkpt lat="46.27666" lon="7.3103"><ele>1321.4</ele><time>2017-07-23T14:04:51Z</time></trkpt>
<trkpt lat="46.27665" lon="7.31034"><ele>1321.2</ele><time>2017-07-23T14:04:55Z</time></trkpt>
<trkpt lat="46.27664" lon="7.31044"><ele>1321.4</ele><time>2017-07-23T14:05:04Z</time></trkpt>
<trkpt lat="46.27663" lon="7.31048"><ele>1321.4</ele><time>2017-07-23T14:05:08Z</time></trkpt>
<trkpt lat="46.2766" lon="7.31071"><ele>1321.8</ele><time>2017-07-23T14:05:20Z</time></trkpt>
<trkpt lat="46.2766" lon="7.31079"><ele>1321.6</ele><time>2017-07-23T14:05:25Z</time></trkpt>
<trkpt lat="46.2766" lon="7.31089"><ele>1321.2</ele><time>2017-07-23T14:05:30Z</time></trkpt>
<trkpt lat="46.27662" lon="7.31093"><ele>1321.2</ele><time>2017-07-23T14:05:35Z</time></trkpt>
<trkpt lat="46.2766" lon="7.31106"><ele>1321.2</ele><time>2017-07-23T14:05:42Z</time></trkpt>
<trkpt lat="46.27656" lon="7.31126"><ele>1320.8</ele><time>2017-07-23T14:05:52Z</time></trkpt>
<trkpt lat="46.27656" lon="7.31128"><ele>1320.8</ele><time>2017-07-23T14:05:54Z</time></trkpt>
<trkpt lat="46.27656" lon="7.31129"><ele>1320.6</ele><time>2017-07-23T14:05:55Z</time></trkpt>
<trkpt lat="46.27656" lon="7.3113"><ele>1320.6</ele><time>2017-07-23T14:05:56Z</time></trkpt>
<trkpt lat="46.27658" lon="7.31149"><ele>1319.8</ele><time>2017-07-23T14:06:10Z</time></trkpt>
<trkpt lat="46.27662" lon="7.31163"><ele>1319.2</ele><time>2017-07-23T14:06:20Z</time></trkpt>
<trkpt lat="46.27662" lon="7.31169"><ele>1318.6</ele><time>2017-07-23T14:06:26Z</time></trkpt>
<trkpt lat="46.27662" lon="7.3117"><ele>1318.6</ele><time>2017-07-23T14:06:27Z</time></trkpt>
<trkpt lat="46.27663" lon="7.31173"><ele>1317.6</ele><time>2017-07-23T14:06:30Z</time></trkpt>
<trkpt lat="46.27664" lon="7.31176"><ele>1317</ele><time>2017-07-23T14:06:32Z</time></trkpt>
<trkpt lat="46.27679" lon="7.31193"><ele>1315.4</ele><time>2017-07-23T14:06:53Z</time></trkpt>
<trkpt lat="46.27692" lon="7.31198"><ele>1315.4</ele><time>2017-07-23T14:07:03Z</time></trkpt>
<trkpt lat="46.27693" lon="7.31198"><ele>1315.4</ele><time>2017-07-23T14:07:04Z</time></trkpt>
<trkpt lat="46.27694" lon="7.31198"><ele>1315.4</ele><time>2017-07-23T14:07:05Z</time></trkpt>
<trkpt lat="46.27705" lon="7.31201"><ele>1315.6</ele><time>2017-07-23T14:07:12Z</time></trkpt>
<trkpt lat="46.27708" lon="7.31203"><ele>1315.8</ele><time>2017-07-23T14:07:15Z</time></trkpt>
<trkpt lat="46.27712" lon="7.31202"><ele>1316.6</ele><time>2017-07-23T14:07:20Z</time></trkpt>
<trkpt lat="46.27717" lon="7.31204"><ele>1317</ele><time>2017-07-23T14:07:23Z</time></trkpt>
<trkpt lat="46.2772" lon="7.31204"><ele>1317.2</ele><time>2017-07-23T14:07:25Z</time></trkpt>
<trkpt lat="46.27729" lon="7.31206"><ele>1318.4</ele><time>2017-07-23T14:07:31Z</time></trkpt>
<trkpt lat="46.2773" lon="7.31207"><ele>1318.4</ele><time>2017-07-23T14:07:32Z</time></trkpt>
<trkpt lat="46.27735" lon="7.31208"><ele>1318.6</ele><time>2017-07-23T14:07:35Z</time></trkpt>
<trkpt lat="46.2774" lon="7.31208"><ele>1318.8</ele><time>2017-07-23T14:07:38Z</time></trkpt>
<trkpt lat="46.2775" lon="7.31211"><ele>1319.6</ele><time>2017-07-23T14:07:44Z</time></trkpt>
<trkpt lat="46.27764" lon="7.31206"><ele>1322</ele><time>2017-07-23T14:07:52Z</time></trkpt>
<trkpt lat="46.27774" lon="7.31207"><ele>1324</ele><time>2017-07-23T14:07:57Z</time></trkpt>
<trkpt lat="46.27791" lon="7.3122"><ele>1328.4</ele><time>2017-07-23T14:08:09Z</time></trkpt>
<trkpt lat="46.27795" lon="7.31227"><ele>1330.2</ele><time>2017-07-23T14:08:13Z</time></trkpt>
<trkpt lat="46.27802" lon="7.31239"><ele>1331.8</ele><time>2017-07-23T14:08:18Z</time></trkpt>
<trkpt lat="46.27806" lon="7.31246"><ele>1332.2</ele><time>2017-07-23T14:08:21Z</time></trkpt>
<trkpt lat="46.27809" lon="7.31251"><ele>1332.6</ele><time>2017-07-23T14:08:23Z</time></trkpt>
<trkpt lat="46.27813" lon="7.31261"><ele>1333.4</ele><time>2017-07-23T14:08:27Z</time></trkpt>
<trkpt lat="46.27818" lon="7.31279"><ele>1333.2</ele><time>2017-07-23T14:08:34Z</time></trkpt>
<trkpt lat="46.27818" lon="7.31296"><ele>1333.2</ele><time>2017-07-23T14:08:39Z</time></trkpt>
<trkpt lat="46.27819" lon="7.31322"><ele>1334.2</ele><time>2017-07-23T14:08:46Z</time></trkpt>
<trkpt lat="46.27834" lon="7.31326"><ele>1333</ele><time>2017-07-23T14:08:53Z</time></trkpt>
<trkpt lat="46.27847" lon="7.31325"><ele>1333.2</ele><time>2017-07-23T14:08:58Z</time></trkpt>
<trkpt lat="46.27864" lon="7.31321"><ele>1331.8</ele><time>2017-07-23T14:09:05Z</time></trkpt>
<trkpt lat="46.27874" lon="7.31316"><ele>1330.2</ele><time>2017-07-23T14:09:09Z</time></trkpt>
<trkpt lat="46.27879" lon="7.31311"><ele>1329</ele><time>2017-07-23T14:09:12Z</time></trkpt>
<trkpt lat="46.27883" lon="7.31308"><ele>1328.8</ele><time>2017-07-23T14:09:14Z</time></trkpt>
<trkpt lat="46.27885" lon="7.31307"><ele>1329</ele><time>2017-07-23T14:09:16Z</time></trkpt>
<trkpt lat="46.279" lon="7.31292"><ele>1329</ele><time>2017-07-23T14:09:27Z</time></trkpt>
<trkpt lat="46.27915" lon="7.31278"><ele>1331.4</ele><time>2017-07-23T14:09:34Z</time></trkpt>
<trkpt lat="46.27928" lon="7.31272"><ele>1334.6</ele><time>2017-07-23T14:09:41Z</time></trkpt>
<trkpt lat="46.27943" lon="7.31268"><ele>1338.4</ele><time>2017-07-23T14:09:47Z</time></trkpt>
<trkpt lat="46.27948" lon="7.31269"><ele>1340</ele><time>2017-07-23T14:09:49Z</time></trkpt>
<trkpt lat="46.27952" lon="7.31269"><ele>1342.4</ele><time>2017-07-23T14:09:51Z</time></trkpt>
<trkpt lat="46.27959" lon="7.31268"><ele>1345.8</ele><time>2017-07-23T14:09:54Z</time></trkpt>
<trkpt lat="46.27968" lon="7.31267"><ele>1351.6</ele><time>2017-07-23T14:09:59Z</time></trkpt>
<trkpt lat="46.27975" lon="7.31274"><ele>1353.4</ele><time>2017-07-23T14:10:03Z</time></trkpt>
<trkpt lat="46.27981" lon="7.31282"><ele>1354.8</ele><time>2017-07-23T14:10:07Z</time></trkpt>
<trkpt lat="46.2799" lon="7.31305"><ele>1354.2</ele><time>2017-07-23T14:10:16Z</time></trkpt>
<trkpt lat="46.27994" lon="7.31332"><ele>1356.2</ele><time>2017-07-23T14:10:23Z</time></trkpt>
<trkpt lat="46.27994" lon="7.31343"><ele>1356.8</ele><time>2017-07-23T14:10:26Z</time></trkpt>
<trkpt lat="46.27993" lon="7.31375"><ele>1359.2</ele><time>2017-07-23T14:10:34Z</time></trkpt>
<trkpt lat="46.27989" lon="7.31401"><ele>1357.8</ele><time>2017-07-23T14:10:41Z</time></trkpt>
<trkpt lat="46.27987" lon="7.31405"><ele>1357.8</ele><time>2017-07-23T14:10:42Z</time></trkpt>
<trkpt lat="46.27986" lon="7.31408"><ele>1358</ele><time>2017-07-23T14:10:43Z</time></trkpt>
<trkpt lat="46.27984" lon="7.31418"><ele>1358.4</ele><time>2017-07-23T14:10:46Z</time></trkpt>
<trkpt lat="46.27983" lon="7.31427"><ele>1359</ele><time>2017-07-23T14:10:49Z</time></trkpt>
<trkpt lat="46.27993" lon="7.31448"><ele>1360.4</ele><time>2017-07-23T14:10:57Z</time></trkpt>
<trkpt lat="46.28017" lon="7.31454"><ele>1361.6</ele><time>2017-07-23T14:11:07Z</time></trkpt>
<trkpt lat="46.28035" lon="7.3146"><ele>1363.4</ele><time>2017-07-23T14:11:18Z</time></trkpt>
<trkpt lat="46.28043" lon="7.31465"><ele>1363.4</ele><time>2017-07-23T14:11:23Z</time></trkpt>
<trkpt lat="46.28045" lon="7.31468"><ele>1363.6</ele><time>2017-07-23T14:11:25Z</time></trkpt>
<trkpt lat="46.28049" lon="7.31486"><ele>1363</ele><time>2017-07-23T14:11:34Z</time></trkpt>
<trkpt lat="46.28038" lon="7.31497"><ele>1362.4</ele><time>2017-07-23T14:11:40Z</time></trkpt>
<trkpt lat="46.28027" lon="7.31507"><ele>1362.2</ele><time>2017-07-23T14:11:45Z</time></trkpt>
<trkpt lat="46.28017" lon="7.31532"><ele>1363.2</ele><time>2017-07-23T14:11:54Z</time></trkpt>
<trkpt lat="46.28005" lon="7.31554"><ele>1361.6</ele><time>2017-07-23T14:12:00Z</time></trkpt>
<trkpt lat="46.27985" lon="7.31569"><ele>1361.4</ele><time>2017-07-23T14:12:07Z</time></trkpt>
<trkpt lat="46.27967" lon="7.31585"><ele>1360.6</ele><time>2017-07-23T14:12:13Z</time></trkpt>
<trkpt lat="46.27957" lon="7.31601"><ele>1360.2</ele><time>2017-07-23T14:12:17Z</time></trkpt>
<trkpt lat="46.27944" lon="7.31618"><ele>1358.8</ele><time>2017-07-23T14:12:22Z</time></trkpt>
<trkpt lat="46.2793" lon="7.3164"><ele>1359.8</ele><time>2017-07-23T14:12:28Z</time></trkpt>
<trkpt lat="46.27925" lon="7.31654"><ele>1361</ele><time>2017-07-23T14:12:32Z</time></trkpt>
<trkpt lat="46.27926" lon="7.31658"><ele>1361</ele><time>2017-07-23T14:12:34Z</time></trkpt>
<trkpt lat="46.27935" lon="7.31684"><ele>1362.2</ele><time>2017-07-23T14:12:41Z</time></trkpt>
<trkpt lat="46.2793" lon="7.31711"><ele>1362.2</ele><time>2017-07-23T14:12:48Z</time></trkpt>
<trkpt lat="46.27918" lon="7.31727"><ele>1363.2</ele><time>2017-07-23T14:12:53Z</time></trkpt>
<trkpt lat="46.27909" lon="7.31744"><ele>1363.8</ele><time>2017-07-23T14:12:58Z</time></trkpt>
<trkpt lat="46.27906" lon="7.31752"><ele>1364.8</ele><time>2017-07-23T14:13:00Z</time></trkpt>
<trkpt lat="46.27904" lon="7.31761"><ele>1365.6</ele><time>2017-07-23T14:13:02Z</time></trkpt>
<trkpt lat="46.2789" lon="7.31824"><ele>1368</ele><time>2017-07-23T14:13:16Z</time></trkpt>
<trkpt lat="46.27879" lon="7.3185"><ele>1364.6</ele><time>2017-07-23T14:13:22Z</time></trkpt>
<trkpt lat="46.27876" lon="7.31859"><ele>1364.4</ele><time>2017-07-23T14:13:24Z</time></trkpt>
<trkpt lat="46.27873" lon="7.31875"><ele>1363.4</ele><time>2017-07-23T14:13:27Z</time></trkpt>
<trkpt lat="46.27871" lon="7.31903"><ele>1362.2</ele><time>2017-07-23T14:13:33Z</time></trkpt>
<trkpt lat="46.27873" lon="7.31919"><ele>1362.6</ele><time>2017-07-23T14:13:37Z</time></trkpt>
<trkpt lat="46.27876" lon="7.31946"><ele>1362.6</ele><time>2017-07-23T14:13:43Z</time></trkpt>
<trkpt lat="46.27886" lon="7.3197"><ele>1364.8</ele><time>2017-07-23T14:13:49Z</time></trkpt>
<trkpt lat="46.27899" lon="7.31991"><ele>1366.8</ele><time>2017-07-23T14:13:55Z</time></trkpt>
<trkpt lat="46.27913" lon="7.32011"><ele>1368.4</ele><time>2017-07-23T14:14:01Z</time></trkpt>
<trkpt lat="46.27915" lon="7.32014"><ele>1368</ele><time>2017-07-23T14:14:02Z</time></trkpt>
<trkpt lat="46.2793" lon="7.32037"><ele>1368.4</ele><time>2017-07-23T14:14:08Z</time></trkpt>
<trkpt lat="46.27952" lon="7.32069"><ele>1368.4</ele><time>2017-07-23T14:14:19Z</time></trkpt>
<trkpt lat="46.27968" lon="7.32087"><ele>1370.6</ele><time>2017-07-23T14:14:25Z</time></trkpt>
<trkpt lat="46.27973" lon="7.32092"><ele>1371</ele><time>2017-07-23T14:14:27Z</time></trkpt>
<trkpt lat="46.2799" lon="7.32104"><ele>1372.8</ele><time>2017-07-23T14:14:33Z</time></trkpt>
<trkpt lat="46.28004" lon="7.32126"><ele>1373</ele><time>2017-07-23T14:14:39Z</time></trkpt>
<trkpt lat="46.28019" lon="7.32145"><ele>1371.4</ele><time>2017-07-23T14:14:45Z</time></trkpt>
<trkpt lat="46.28039" lon="7.32152"><ele>1370</ele><time>2017-07-23T14:14:51Z</time></trkpt>
<trkpt lat="46.28054" lon="7.32157"><ele>1369.6</ele><time>2017-07-23T14:14:55Z</time></trkpt>
<trkpt lat="46.28063" lon="7.32158"><ele>1368.8</ele><time>2017-07-23T14:14:58Z</time></trkpt>
<trkpt lat="46.28069" lon="7.32159"><ele>1368.2</ele><time>2017-07-23T14:15:00Z</time></trkpt>
<trkpt lat="46.28081" lon="7.3217"><ele>1365.8</ele><time>2017-07-23T14:15:05Z</time></trkpt>
<trkpt lat="46.28094" lon="7.32174"><ele>1362.8</ele><time>2017-07-23T14:15:11Z</time></trkpt>
<trkpt lat="46.28097" lon="7.32172"><ele>1362.4</ele><time>2017-07-23T14:15:13Z</time></trkpt>
<trkpt lat="46.28093" lon="7.32169"><ele>1362.6</ele><time>2017-07-23T14:15:18Z</time></trkpt>
<trkpt lat="46.2809" lon="7.32166"><ele>1363</ele><time>2017-07-23T14:15:22Z</time></trkpt>
<trkpt lat="46.28088" lon="7.32164"><ele>1363.2</ele><time>2017-07-23T14:15:24Z</time></trkpt>
<trkpt lat="46.28087" lon="7.32161"><ele>1363.2</ele><time>2017-07-23T14:15:26Z</time></trkpt>
<trkpt lat="46.28086" lon="7.3216"><ele>1363.6</ele><time>2017-07-23T14:15:27Z</time></trkpt>
<trkpt lat="46.28083" lon="7.32158"><ele>1364</ele><time>2017-07-23T14:15:29Z</time></trkpt>
<trkpt lat="46.28075" lon="7.32148"><ele>1365.2</ele><time>2017-07-23T14:15:37Z</time></trkpt>
<trkpt lat="46.28066" lon="7.32142"><ele>1365</ele><time>2017-07-23T14:15:44Z</time></trkpt>
<trkpt lat="46.28055" lon="7.32133"><ele>1365</ele><time>2017-07-23T14:15:52Z</time></trkpt>
<trkpt lat="46.28047" lon="7.32129"><ele>1366</ele><time>2017-07-23T14:15:58Z</time></trkpt>
<trkpt lat="46.28033" lon="7.32113"><ele>1367.2</ele><time>2017-07-23T14:16:10Z</time></trkpt>
<trkpt lat="46.28028" lon="7.32105"><ele>1367.8</ele><time>2017-07-23T14:16:15Z</time></trkpt>
<trkpt lat="46.28021" lon="7.32087"><ele>1370</ele><time>2017-07-23T14:16:25Z</time></trkpt>
<trkpt lat="46.28016" lon="7.32066"><ele>1374</ele><time>2017-07-23T14:16:36Z</time></trkpt>
<trkpt lat="46.28011" lon="7.3206"><ele>1375.4</ele><time>2017-07-23T14:16:41Z</time></trkpt>
<trkpt lat="46.28" lon="7.32036"><ele>1379.4</ele><time>2017-07-23T14:16:55Z</time></trkpt>
<trkpt lat="46.27992" lon="7.3201"><ele>1382.2</ele><time>2017-07-23T14:17:08Z</time></trkpt>
<trkpt lat="46.27989" lon="7.31992"><ele>1383.6</ele><time>2017-07-23T14:17:17Z</time></trkpt>
<trkpt lat="46.27986" lon="7.31971"><ele>1385.6</ele><time>2017-07-23T14:17:27Z</time></trkpt>
<trkpt lat="46.27987" lon="7.31967"><ele>1385.8</ele><time>2017-07-23T14:17:29Z</time></trkpt>
<trkpt lat="46.27993" lon="7.31942"><ele>1382.6</ele><time>2017-07-23T14:17:41Z</time></trkpt>
<trkpt lat="46.27997" lon="7.3193"><ele>1381.2</ele><time>2017-07-23T14:17:47Z</time></trkpt>
<trkpt lat="46.28" lon="7.31929"><ele>1381.2</ele><time>2017-07-23T14:17:49Z</time></trkpt>
<trkpt lat="46.28001" lon="7.31929"><ele>1381.4</ele><time>2017-07-23T14:17:50Z</time></trkpt>
<trkpt lat="46.28004" lon="7.31927"><ele>1381.2</ele><time>2017-07-23T14:17:52Z</time></trkpt>
<trkpt lat="46.28006" lon="7.31926"><ele>1381.2</ele><time>2017-07-23T14:17:53Z</time></trkpt>
<trkpt lat="46.28012" lon="7.31926"><ele>1381.4</ele><time>2017-07-23T14:17:57Z</time></trkpt>
<trkpt lat="46.28025" lon="7.31932"><ele>1382.8</ele><time>2017-07-23T14:18:07Z</time></trkpt>
<trkpt lat="46.2803" lon="7.31935"><ele>1383</ele><time>2017-07-23T14:18:11Z</time></trkpt>
<trkpt lat="46.28046" lon="7.31942"><ele>1384.4</ele><time>2017-07-23T14:18:24Z</time></trkpt>
<trkpt lat="46.28056" lon="7.31943"><ele>1385</ele><time>2017-07-23T14:18:33Z</time></trkpt>
<trkpt lat="46.28056" lon="7.31942"><ele>1385</ele><time>2017-07-23T14:18:35Z</time></trkpt>
<trkpt lat="46.28056" lon="7.31944"><ele>1384.8</ele><time>2017-07-23T14:18:55Z</time></trkpt>
<trkpt lat="46.28055" lon="7.31943"><ele>1384.8</ele><time>2017-07-23T14:19:11Z</time></trkpt>
<trkpt lat="46.28055" lon="7.31943"><ele>1384.6</ele><time>2017-07-23T14:19:14Z</time></trkpt>
<trkpt lat="46.28055" lon="7.31942"><ele>1384.6</ele><time>2017-07-23T14:19:15Z</time></trkpt>
<trkpt lat="46.28055" lon="7.31943"><ele>1384.6</ele><time>2017-07-23T14:19:17Z</time></trkpt>
<trkpt lat="46.28055" lon="7.31942"><ele>1384.4</ele><time>2017-07-23T14:19:22Z</time></trkpt>
<trkpt lat="46.28056" lon="7.31941"><ele>1384.2</ele><time>2017-07-23T14:19:44Z</time></trkpt>
<trkpt lat="46.28054" lon="7.31939"><ele>1384</ele><time>2017-07-23T14:20:41Z</time></trkpt>
<trkpt lat="46.28054" lon="7.31949"><ele>1385.2</ele><time>2017-07-23T14:21:36Z</time></trkpt>
<trkpt lat="46.28053" lon="7.31949"><ele>1385.4</ele><time>2017-07-23T14:21:39Z</time></trkpt>
<trkpt lat="46.28053" lon="7.31944"><ele>1385.2</ele><time>2017-07-23T14:22:32Z</time></trkpt>
<trkpt lat="46.28054" lon="7.31944"><ele>1385.2</ele><time>2017-07-23T14:22:41Z</time></trkpt>
</trkseg></trk></gpx>